     2.10           OBSERVATION DATA    G (GPS)             RINEX VERSION / TYPE
teqc 2005May6 SOPAC 20050707 00:22:43UTC                    PGM / RUN BY / DATE
Linux 2.4.20-8|Pentium IV|gcc|Linux|486/DX+                 COMMENT
BIT 2 OF LLI FLAGS DATA COLLECTED UNDER A/S CONDITION       COMMENT
N 843                                                       MARKER NAME
N843                                                        MARKER NUMBER
Paul Dunham                                                 OBSERVER / AGENCY
0220223934 TRIMBLE 4700 1.30                                REC # / TYPE / VERS
0220203928 TRM33429.00+GP NONE                              ANT # / TYPE
 -2480803.0000 -4183502.0000  4114323.0000                  APPROX POSITION XYZ
        2.0000        0.0000        0.0000                  ANTENNA: DELTA H/E/N
     1     1                                                WAVELENGTH FACT L1/2
     6    L1    L2    C1    P2    P1    D1                  # / TYPES OF OBSERV
    15.0000                                                 INTERVAL
Northern California Height Modernization 2004               COMMENT
                                                            COMMENT
SOPAC - Scripps Orbit and Permanent Array Center            COMMENT
IGPP - Institute of Geophysics and Planetary Physics        COMMENT
SIO - Scripps Institution of Oceanography                   COMMENT
UCSD - University of California, San Diego                  COMMENT
                                                            COMMENT
email: archive@gpsmail.ucsd.edu                             COMMENT
ftp://garner.ucsd.edu                                       COMMENT
http://sopac.ucsd.edu                                       COMMENT
                                                            COMMENT
                                                            COMMENT
Approximate Lat, Lon : 40.418, -120.668                     COMMENT
                                                            COMMENT
SNR is mapped to RINEX snr flag value [0-9]                 COMMENT
L1 & L2: 2-19 dBHz = 1, 20-27 dBHz = 2, 28-31 dBHz = 3      COMMENT
32-35 dBHz = 4, 36-38 dBHz = 5, 39-41 dBHz = 6              COMMENT
42-44 dBHz = 7, 45-48 dBHz = 8, >= 49 dBHz = 9              COMMENT
  2004     9     3    14    44    0.0000000     GPS         TIME OF FIRST OBS
                                                            END OF HEADER
 04  9  3 14 44  0.0000000  0  3G14G15G22
     26724.88355     12298.85154  20190132.0784   20190127.4654
      -806.2664
    141481.00156     87543.41654  21298957.4384   21298954.2894
     -3022.7034
    178407.97156    126828.76154  21531956.8444   21531950.8134
     -1946.1254
 04  9  3 14 44 15.0000000  0  3G14G15G22
     38914.05546     21796.90444  20192452.3284   20192447.1644
      -818.8284
    186908.15846    122941.17644  21307602.8524   21307599.4224
     -3034.0314
    207657.80246    149620.81844  21537522.5164   21537516.6524
     -1953.7974
 04  9  3 14 44 30.0000000  0  7G 3G11G14G15G19G22G25
    117901.03154     79653.19252  23751541.6644   23751540.0594
     -3194.7194
   -102970.28955    -78270.96252  23261437.4774   23261433.4454
      2718.3284
     51293.24146     31443.01044  20194808.7814   20194802.9844
      -831.5784
    232505.60246    158471.63144  21316279.4844   21316276.2974
     -3045.4694
     60838.13955     39477.43553  22389989.2424   22389983.6214
     -1670.4374
    237024.23546    172503.73744  21543110.9304   21543105.0434
     -1961.5624
   -115006.67454    -85642.22251  23531052.3204   23531048.3204
      3100.1564
 04  9  3 14 44 45.0000000  0  8G 3G11G14G15G18G19G22G25
    165872.50344    117033.55342  23760669.8594   23760668.7234
     -3201.0624
   -143681.24345   -109993.79842  23253690.0634   23253685.8134
      2709.7504
     63860.26846     41235.48344  20197198.6024   20197194.4734
      -843.8914
    278271.17346    194133.07144  21324988.0864   21324985.4924
     -3056.6254
    146883.60354     85967.47451  23931792.1564   23931788.1454
     -2947.7974
     85991.61146     59077.51343  22394775.1644   22394769.9264
     -1683.2974
    266505.12246    195475.84244  21548720.8054   21548715.4104
     -1969.0784
   -161463.51244   -121842.41742  23522210.3984   23522207.6174
      3093.9694
 04  9  3 14 45  0.0000000  0  8G 3G11G14G15G18G19G22G25
    213936.91544    154486.31642  23769815.7814   23769814.8444
     -3207.3754
   -184268.88245   -141620.60442  23245966.8134   23245962.0944
      2701.7194
     76609.57246     51169.98844  20199625.3054   20199620.7734
      -856.0004
    324199.05246    229921.00944  21333727.5084   21333724.8164
     -3067.2814
    191141.98444    120454.46841  23940213.7974   23940210.5164
     -2953.2664
    111332.10246     78823.33143  22399597.7274   22399592.3554
     -1695.5314
    296095.05946    218532.90644  21554351.3594   21554346.0314
     -1976.2664
   -207830.73744   -157972.73642  23513387.5554   23513383.8874
      3087.9844
 04  9  3 14 45 15.0000000  0  8G 3G11G14G15G18G19G22G25
    262089.62344    192007.83942  23778980.0394   23778978.3484
     -3213.2344
   -224737.21845   -173154.31442  23238266.3754   23238260.9344
      2693.8284
     89536.58046     61242.97944  20202085.3754   20202080.3984
      -867.7034
    370284.94146    265832.08544  21342497.4614   21342494.7274
     -3077.7344
    235481.79044    155004.98641  23948650.5474   23948648.5704
     -2958.9224
    136855.27846     98711.48844  22404454.6724   22404449.0664
     -1707.5944
    325789.77246    241671.64144  21560002.4844   21559996.9144
     -1983.2194
   -254112.13944   -194036.19342  23504580.8134   23504577.6454
      3082.4844
 04  9  3 14 45 30.0000000  0  8G 3G11G14G15G18G19G22G25
    310323.96744    229593.03442  23788158.2194   23788156.8094
     -3218.3914
   -265092.19545   -204599.77742  23230586.6484   23230582.0004
      2686.5784
    102634.76546     71449.33645  20204577.3204   20204572.8484
      -878.7974
    416522.29547    301861.16344  21351296.9064   21351293.5474
     -3087.4534
    279896.53444    189613.76942  23957102.6094   23957101.0634
     -2963.3124
    162554.43446    118736.80844  22409344.9534   22409338.7934
     -1719.0784
    355582.71847    264886.89744  21565672.0554   21565666.0944
     -1989.3284
   -300313.85445   -230037.54042  23495788.1024   23495785.8444
      3077.6564
 04  9  3 14 45 45.0000000  0  8G 3G11G14G15G18G19G22G25
    358636.75045    267239.27942  23797352.2664   23797350.1724
     -3223.6724
   -305336.67245   -235959.11542  23222928.7814   23222924.2304
      2679.2034
    115901.14347     81786.77945  20207102.4454   20207097.1724
      -890.0944
    462908.16146    338005.97144  21360123.3204   21360120.5044
     -3097.3914
    324383.31444    224278.70841  23965569.1724   23965565.7304
     -2968.2664
    188426.35546    138896.71344  22414268.4454   22414262.8404
     -1730.5314
    385471.23147    288176.63745  21571359.8984   21571354.2664
     -1995.8284
   -346438.27444   -265978.63242  23487011.2274   23487008.2734
      3072.4384
 04  9  3 14 46  0.0000000  0  8G 3G11G14G15G18G19G22G25
    407022.55844    304942.50542  23806559.8524   23806557.8524
     -3228.0784
   -345475.08246   -267235.79942  23215290.2034   23215286.1764
      2672.5784
    129330.57846     92251.24745  20209657.2894   20209652.9734
      -900.5314
    509437.22146    374262.35444  21368977.8754   21368974.5904
     -3106.5004
    368937.16044    258996.01342  23974045.9454   23974043.5944
     -2972.2974
    214465.93846    159187.26644  22419223.6024   22419217.6604
     -1741.4694
    415450.33647    311536.96045  21577064.7664   21577058.7154
     -2001.4064
   -392489.84445   -301862.97942  23478248.2584   23478244.9924
      3067.7504
 04  9  3 14 46 15.0000000  0  8G 3G11G14G15G18G19G22G25
    455478.20644    342700.16542  23815779.8524   23815778.5164
     -3232.3124
   -385509.93546   -298431.79942  23207671.5084   23207667.4534
      2665.6564
    142920.06547    102840.45945  20212243.9304   20212238.7624
      -911.1414
    556106.43646    410627.96344  21377858.6724   21377855.1454
     -3115.8914
    413555.29944    293763.29041  23982537.7894   23982534.3054
     -2976.6724
    240670.07146    179606.07044  22424209.7734   22424204.0514
     -1752.2974
    445517.08847    334965.58345  21582786.0314   21582780.2664
     -2007.2504
   -438471.23145   -337692.64442  23469498.1804   23469495.4734
      3063.2344
 04  9  3 14 46 30.0000000  0  8G 3G11G14G15G18G19G22G25
    503998.50444    380508.12542  23825013.7114   23825011.5634
     -3236.8754
   -425446.01946   -329550.81042  23200072.3284   23200067.7664
      2659.0314
    156664.48147    113550.37545  20214859.3054   20214854.4614
      -921.4224
    602910.62046    447098.72545  21386765.1884   21386761.7974
     -3124.7814
    458232.63544    328576.78641  23991040.2114   23991036.1054
     -2980.4534
    267033.60646    200149.05744  22429226.9694   22429221.0664
     -1762.8914
    475666.57947    358458.67645  21588523.1954   21588517.6844
     -2012.7344
   -484387.03045   -373471.15442  23460761.1724   23460757.6174
      3058.6884
 04  9  3 14 46 45.0000000  0  8G 3G11G14G15G18G19G22G25
    552581.61144    418365.05442  23834258.5944   23834257.1564
     -3240.6874
   -465284.40146   -360593.76642  23192491.4224   23192486.5394
      2652.9534
    170562.32947    124379.86545  20217504.1564   20217499.1024
      -931.3124
    649848.24946    483673.46944  21395697.2274   21395693.5474
     -3133.2974
    502967.78845    363435.30441  23999552.4144   23999548.8914
     -2983.9844
    293554.91946    220814.98344  22434273.4614   22434267.8874
     -1773.0314
    505897.39147    382015.12845  21594275.8834   21594270.0394
     -2017.8124
   -530238.24545   -409199.36242  23452035.7734   23452032.7304
      3054.9694
 04  9  3 14 47  0.0000000  0  8G 3G11G14G15G18G19G22G25
    601222.23245    456266.79542  23843514.9924   23843512.8204
     -3244.7194
   -505029.63446   -391564.05742  23184927.2814   23184923.2234
      2646.4694
    184608.47147    135324.89345  20220176.7664   20220172.0474
      -941.3914
    696914.24346    520348.24845  21404653.7034   21404649.9844
     -3142.1094
    547755.95845    398335.13142  24008076.4144   24008072.3674
     -2987.7034
    320228.81246    241599.82644  22439349.4224   22439343.7974
     -1783.3284
    536204.59647    405631.11145  21600043.0394   21600036.9774
     -2023.0784
   -576029.49145   -444880.88242  23443321.0944   23443319.0744
      3050.7344
 04  9  3 14 47 15.0000000  0  8G 3G11G14G15G18G19G22G25
    649918.25645    494211.73842  23852781.9064   23852779.5124
     -3247.9374
   -544683.39746   -422463.08142  23177382.4924   23177377.2274
      2640.8594
    198800.87647    146383.88945  20222877.8984   20222872.8404
      -950.8444
    744106.50847    557121.42045  21413633.9534   21413630.3554
     -3150.1724
    592595.08544    433274.65041  24016607.5554   24016605.0004
     -2990.7504
    347053.14046    262501.87144  22444454.0704   22444448.6414
     -1793.0944
    566586.21747    429305.09445  21605824.8754   21605818.5864
     -2027.6874
   -621762.24245   -480516.75642  23434619.1724   23434616.7304
      3047.1724
 04  9  3 14 47 30.0000000  0  7G 3G11G14G15G19G22G25
    698666.30145    532197.19742  23862057.4694   23862055.5904
     -3251.7344
   -584248.24746   -453292.87843  23169853.1484   23169848.8954
      2634.5944
    213136.33547    157554.38046  20225605.7344   20225600.8204
      -960.6254
    791421.90847    593990.54145  21422637.9694   21422634.5084
     -3158.4844
    374024.57847    283518.55944  22449586.3444   22449581.1134
     -1803.0164
    597039.30847    453034.75645  21611619.8594   21611613.6604
     -2032.6724
   -667439.18745   -516109.13242  23425926.8754   23425924.4064
      3043.0784
 04  9  3 14 47 45.0000000  0  7G 3G11G14G15G19G22G25
    747465.72245    570222.71442  23871344.4304   23871342.1884
     -3255.0314
   -623724.12147   -484053.29643  23162341.3754   23162336.8364
      2628.7664
    227614.55947    168836.10146  20228361.0864   20228355.6724
      -969.9224
    838860.04447    630955.29745  21431664.8524   21431661.2344
     -3166.6564
    401142.71347    304649.55044  22454746.7814   22454741.3834
     -1812.7814
    627563.62247    476819.91845  21617427.9774   21617422.6684
     -2037.2974
   -713060.18045   -551657.97942  23417245.5704   23417243.0944
      3039.4534
 04  9  3 14 48  0.0000000  0  7G 3G11G14G15G19G22G25
    796316.53746    608288.22642  23880640.0704   23880637.7974
     -3258.3124
   -663110.63947   -514744.10543  23154846.0084   23154842.3054
      2622.8914
    242235.52747    180229.05446  20231142.7114   20231138.1094
      -979.3754
    886420.90947    668015.69645  21440715.1254   21440711.7854
     -3174.7034
    428407.54047    325894.85044  22459934.8834   22459929.6174
     -1822.4224
    658159.39847    500660.77245  21623250.4614   21623244.4884
     -2041.9534
   -758624.66445   -587162.75342  23408574.5634   23408572.5744
      3035.8594
 04  9  3 14 48 15.0000000  0  7G 3G11G14G15G19G22G25
    845216.39946    646391.99342  23889946.1254   23889943.0634
     -3261.4374
   -702409.29347   -545366.43243  23147367.6644   23147363.7584
      2617.2504
    256997.20747    191731.65346  20233952.0004   20233946.9344
      -988.6094
    934102.49247    705170.14545  21449788.8674   21449785.4614
     -3182.6254
    455816.92847    347252.80545  22465150.9304   22465145.6684
     -1831.8284
    688824.80047    524555.87546  21629085.7734   21629080.0904
     -2046.4844
   -804134.02046   -622624.54942  23399915.4924   23399912.5594
      3032.4064
 04  9  3 14 48 30.0000000  0  7G 3G11G14G15G19G22G25
    894164.42046    684533.24742  23899260.1724   23899257.3484
     -3264.7344
   -741620.36747   -575920.50643  23139906.3674   23139901.8134
      2611.0474
    271898.84147    203343.32046  20236787.8914   20236783.0984
      -998.1874
    981903.90847    742417.98745  21458885.1414   21458881.8984
     -3190.8284
    483369.96347    368722.68044  22470393.8984   22470388.5474
     -1841.6564
    719559.06747    548504.63645  21634934.4534   21634928.3284
     -2051.2664
   -849588.58945   -658043.67642  23391264.7424   23391262.8164
      3028.3914
 04  9  3 14 48 45.0000000  0  7G 3G11G14G15G19G22G25
    943157.01846    722709.27342  23908583.5704   23908581.0824
     -3267.5624
   -780746.85147   -606408.69643  23132461.0394   23132455.9384
      2605.7974
    286936.92947    215061.29746  20239649.5234   20239645.0704
     -1006.8914
   1029821.77147    779756.56545  21468003.8594   21467999.9654
     -3198.2034
    511063.11347    390301.73844  22475664.0784   22475658.4144
     -1850.6874
    750359.10747    572504.66246  21640795.1334   21640789.6454
     -2055.4064
   -894991.09046   -693422.22142  23382625.7974   23382622.4224
      3025.2344
 04  9  3 14 49  0.0000000  0  7G 3G11G14G15G19G22G25
    992192.12846    760918.44742  23917914.2974   23917912.4224
     -3270.4064
   -819790.05547   -636831.97243  23125030.7974   23125025.9534
      2600.0004
    302109.69147    226884.21246  20242536.2974   20242531.6804
     -1016.0004
   1077854.19647    817184.40445  21477144.0784   21477140.6994
     -3205.9844
    538894.47647    411988.49544  22480960.0554   22480954.7504
     -1860.0164
    781223.12147    596554.52946  21646668.5864   21646663.1024
     -2059.7974
   -940342.93246   -728761.31442  23373994.7274   23373992.1214
      3021.6724
 04  9  3 14 49 15.0000000  0  7G 3G11G14G15G19G22G25
   1041270.29546    799161.12642  23927253.8524   23927251.2584
     -3273.3914
   -858748.90947   -667189.52743  23117617.4924   23117612.3834
      2594.3914
    317417.85047    238812.63846  20245449.6884   20245444.9104
     -1025.0944
   1126001.80748    854701.99445  21486305.8754   21486303.1804
     -3213.7814
    566864.66847    433783.41645  22486282.7734   22486277.3244
     -1869.3594
    812152.07548    620654.99246  21652554.3594   21652548.3714
     -2064.0784
   -985642.97946   -764060.03442  23365374.2424   23365371.3404
      3018.2974
 04  9  3 14 49 30.0000000  0  7G 3G11G14G15G19G22G25
   1090384.21646    837431.69342  23936599.7974   23936597.6334
     -3275.6564
   -897629.85547   -697486.38343  23110218.3834   23110213.8244
      2589.2344
    332854.35447    250841.08146  20248387.1724   20248382.3754
     -1033.5004
   1174257.47247    892303.79445  21495488.6094   21495485.5514
     -3220.8594
    594966.53647    455680.97744  22491630.8594   22491625.1844
     -1877.9694
    843138.98148    644800.62046  21658451.1254   21658444.9184
     -2067.8754
  -1030897.72346   -799323.46042  23356762.4224   23356759.6884
      3015.3594
 04  9  3 14 49 45.0000000  0  7G 3G11G14G15G19G22G25
   1139533.90847    875730.10942  23945952.9534   23945950.8714
     -3277.8914
   -936432.29147   -727722.03544  23102834.7584   23102830.2734
      2584.0164
    348419.33748    262969.62946  20251349.0084   20251343.8484
     -1041.9844
   1222621.52548    929990.03645  21504692.7114   21504688.9884
     -3228.0474
    623200.21547    477681.22845  22497003.5164   22496997.4184
     -1886.7814
    874184.19748    668991.67246  21664358.6094   21664353.1884
     -2071.7974
  -1076106.49646   -834551.06342  23348160.5164   23348156.9534
      3012.2194
 04  9  3 14 50  0.0000000  0  7G 3G11G14G15G19G22G25
   1188719.74147    914056.70442  23955312.7424   23955310.0984
     -3280.1414
   -975155.33147   -757895.82643  23095465.8674   23095461.6724
      2578.9384
    364113.30748    275198.69146  20254335.6884   20254330.6054
     -1050.5624
   1271094.33348    967761.03945  21513916.4064   21513913.1914
     -3235.1414
    651565.97948    499784.39045  22502400.7114   22502395.0514
     -1895.4534
    905288.29848    693228.62746  21670277.3834   21670272.1454
     -2075.5164
  -1121268.24747   -869741.99843  23339566.2034   23339562.6844
      3009.2814
 04  9  3 14 50 15.0000000  0  7G 3G11G14G15G19G22G25
   1237937.67947    952408.30442  23964678.5554   23964676.2194
     -3282.1414
  -1013802.28147   -788010.33143  23088111.0314   23088107.1644
      2574.0314
    379932.49348    287525.31846  20257345.9924   20257341.1054
     -1058.6724
   1319672.05048   1005613.78145  21523160.3524   21523157.2464
     -3241.7974
    680060.06047    521987.56345  22507823.1484   22507817.9534
     -1903.7194
    936447.70548    717508.66546  21676207.2584   21676201.1994
     -2078.9844
  -1166386.24247   -904898.85143  23330980.0004   23330977.2344
      3006.5784
 04  9  3 14 50 30.0000000  0  7G 3G11G14G15G19G22G25
   1287188.55346    990785.58142  23974050.1334   23974048.5744
     -3284.5004
  -1052371.61047   -818064.34743  23080772.0864   23080767.5434
      2568.7034
    395877.87248    299950.28146  20260379.9304   20260374.6724
     -1067.2034
   1368355.72248   1043549.08445  21532424.7584   21532421.3284
     -3249.0314
    708683.40047    544291.44545  22513269.7734   22513264.7704
     -1912.5004
    967663.69048    741832.80446  21682147.3054   21682141.3524
     -2082.9224
  -1211458.84746   -940020.32843  23322402.2034   23322400.1334
      3003.3284
 04  9  3 14 50 45.0000000  0  7G 3G11G14G15G19G22G25
   1336470.50046   1029187.07042  23983427.7814   23983426.2974
     -3286.2344
  -1090864.60048   -848058.87243  23073447.1094   23073442.5314
      2563.8594
    411947.65248    312472.17346  20263438.1334   20263433.0594
     -1075.3594
   1417143.63048   1081565.61345  21541708.8054   21541705.9694
     -3255.8914
    737433.98348    566694.48545  22518740.7274   22518735.7584
     -1920.7664
    998934.51648    766199.65446  21688097.7274   21688092.4694
     -2086.3594
  -1256487.33947   -975107.44443  23313834.6564   23313832.0474
      3000.6254
 04  9  3 14 51  0.0000000  0  7G 3G11G14G15G19G22G25
   1385782.05846   1067611.64342  23992812.3524   23992810.4614
     -3288.2814
  -1129282.11647   -877994.61544  23066135.9384   23066131.5514
      2558.8284
    428140.56048    325090.02647  20266519.3204   20266514.7774
     -1083.4224
   1466034.33748   1119662.24945  21551012.3364   21551008.9654
     -3262.6414
    766310.47248    589195.61345  22524236.1954   22524231.3984
     -1929.1724
   1030259.15348    790608.45546  21694058.5554   21694053.3524
     -2089.9844
  -1301472.48947  -1010160.79643  23305273.9064   23305271.5514
      2997.5784
 04  9  3 14 51 15.0000000  0  7G 3G11G14G15G19G22G25
   1435123.20447   1106059.26742  24002201.0474   24002199.3674
     -3290.0314
  -1167623.35147   -907870.91444  23058840.3364   23058835.8594
      2553.7664
    444456.87548    337804.03846  20269624.1024   20269619.9574
     -1091.5784
   1515027.93348   1157839.06346  21560336.1334   21560332.3134
     -3269.3914
    795312.96948    611794.95645  22529755.0634   22529749.9304
     -1937.5004
   1061638.06848    815059.54746  21700029.9144   21700024.1374
     -2093.4534
  -1346413.44647  -1045179.68743  23296722.1884   23296718.9694
      2994.7974
 04  9  3 14 51 30.0000000  0  7G 3G11G14G15G19G22G25
   1484489.47646   1144526.44742  24011595.1804   24011593.4694
     -3291.9374
  -1205892.20248   -937690.79444  23051558.1024   23051553.5354
      2548.8284
    460892.12048    350610.69647  20272751.6564   20272747.5514
     -1099.6564
   1564120.11048   1196092.66746  21569678.0944   21569674.2704
     -3276.1564
    824437.10948    634489.06945  22535297.1094   22535292.0744
     -1945.6874
   1093066.94848    839549.56446  21706010.6094   21706005.3164
     -2096.9844
  -1391314.14546  -1080167.23443  23288177.0864   23288174.2734
      2992.0004
 04  9  3 14 51 45.0000000  0  7G 3G11G14G15G19G22G25
   1533880.66946   1183013.08542  24020994.2424   24020992.2734
     -3293.5314
  -1244088.19148   -967453.89144  23044289.6094   23044285.3914
      2544.0164
    477446.33948    363510.08346  20275901.6804   20275897.4344
     -1107.4844
   1613310.83048   1234423.08245  21579038.6644   21579035.4144
     -3282.6254
    853682.78648    657277.88945  22540862.4454   22540857.0554
     -1953.6564
   1124545.95648    864078.64346  21712000.9304   21711995.5984
     -2100.1874
  -1436174.06447  -1115122.98743  23279641.6414   23279638.5274
      2989.4064
 04  9  3 14 52  0.0000000  0  7G 3G11G14G15G19G22G25
   1583297.97246   1221520.03242  24030399.0234   24030396.0664
     -3295.1724
  -1282209.53648   -997158.82644  23037035.2504   23037031.1884
      2539.0474
    494121.00548    376503.32246  20279075.2584   20279070.2154
     -1115.5004
   1662601.49648   1272831.37345  21588418.1564   21588414.6884
     -3289.2664
    883051.24548    680162.39045  22546451.0784   22546445.5514
     -1961.8444
   1156076.67748    888648.02746  21718001.1174   21717995.5314
     -2103.6414
  -1480991.19446  -1150045.44143  23271112.6724   23271110.3054
      2986.4534
 04  9  3 14 52 15.0000000  0  7G 3G11G14G15G19G22G25
   1632739.54546   1260045.91042  24039805.7974   24039804.1294
     -3296.6094
  -1320257.45148  -1026806.57844  23029795.1484   23029790.3594
      2534.3134
    510914.22248    389588.93047  20282270.7424   20282266.2274
     -1123.2814
   1711990.33648   1311316.15346  21597816.4064   21597813.4414
     -3295.6414
    912540.72748    703141.18345  22552062.6094   22552057.4614
     -1969.7344
   1187657.41048    913256.37446  21724010.7974   21724005.3404
     -2106.8444
  -1525766.75646  -1184935.44543  23262591.7274   23262589.6644
      2983.8444
 04  9  3 14 52 30.0000000  0  7G 3G11G14G15G19G22G25
   1682204.79546   1298590.20342  24049219.5084   24049216.9654
     -3298.3284
  -1358231.82948  -1056396.99244  23022568.7974   23022564.6484
      2529.2814
    527825.70348    402766.71546  20285489.2274   20285484.6454
     -1131.2974
   1761476.98248   1349877.16545  21607233.5004   21607230.2854
     -3302.2344
    942150.76748    726213.93345  22557697.4694   22557692.0354
     -1977.8594
   1219288.20348    937903.73146  21730030.0084   21730024.7194
     -2110.3124
  -1570500.64446  -1219793.00743  23254079.9224   23254077.3444
      2981.0164
 04  9  3 14 52 45.0000000  0  7G 3G11G14G15G19G22G25
   1731692.10546   1337151.75742  24058635.9924   24058634.0474
     -3300.1254
  -1396133.57748  -1085930.82444  23015356.2664   23015351.7664
      2524.1254
    544854.07148    416035.55947  20288729.1644   20288724.8324
     -1139.3594
   1811059.95148   1388513.22245  21616668.6954   21616665.2304
     -3308.9374
    971879.66848    749379.29445  22563354.6954   22563349.4384
     -1986.1564
   1250967.62948    962588.98746  21736058.6564   21736052.4384
     -2113.8444
  -1615193.68347  -1254618.74243  23245575.0004   23245572.5044
      2977.9694
 04  9  3 14 53  0.0000000  0  7G 3G11G14G15G19G22G25
   1781202.10846   1375730.91542  24068057.7504   24068055.6134
     -3301.5004
  -1433961.50248  -1115407.12744  23008158.0634   23008153.6524
      2519.4224
    561999.99948    429396.01047  20291992.1254   20291987.5784
     -1146.9374
   1860740.02848   1427224.95246  21626122.6484   21626119.8914
     -3315.2504
   1001728.18848    772637.86445  22569035.1884   22569029.4734
     -1993.8754
   1282696.65348    987312.88046  21742095.9534   21742090.7154
     -2116.9064
  -1659844.61447  -1289411.66743  23237078.0394   23237075.0744
      2975.3594
 04  9  3 14 53 15.0000000  0  7G 3G11G14G15G19G22G25
   1830732.05246   1414325.66342  24077483.5234   24077480.5044
     -3302.6724
  -1471717.78148  -1144827.61644  23000973.7034   23000968.5394
      2514.6564
    579260.90348    442846.05147  20295277.1174   20295272.0664
     -1154.5944
   1910514.59448   1466010.29745  21635594.4844   21635591.1054
     -3321.4844
   1031693.72548    795987.61145  22574736.7504   22574731.3674
     -2001.6564
   1314472.78848   1012073.48546  21748143.3054   21748137.5124
     -2120.0474
  -1704455.41947  -1324173.32643  23228588.6024   23228586.1024
      2972.5784
 04  9  3 14 53 30.0000000  0  8G 3G11G14G15G 1G19G22G25
   1880280.32446   1452934.68342  24086912.2344   24086910.0234
     -3303.7814
  -1509403.35548  -1174193.00744  22993801.4774   22993797.4694
      2510.1884
    596635.23148    456384.47847  20298583.0314   20298578.1524
     -1162.0004
   1960382.09748   1504868.07545  21645083.7274   21645080.2274
     -3327.4694
   -100804.86056    -63365.27652  23957601.5164   23957599.4144
      2944.4384
   1061774.60948    819427.24645  22580461.1644   22580455.7584
     -2009.0784
   1346294.78449   1036869.83346  21754198.5394   21754192.4654
     -2122.8754
  -1749027.13147  -1358904.53143  23220107.0394   23220104.1414
      2970.3444
 04  9  3 14 53 45.0000000  0  8G 3G11G14G15G 1G19G22G25
   1929845.50346   1491556.88542  24096344.0004   24096341.2304
     -3305.0944
  -1547018.93348  -1203503.81544  22986643.9924   22986640.4144
      2505.1414
    614121.85648    470010.41147  20301910.7584   20301906.5274
     -1169.7194
   2010341.23948   1543797.25645  21654590.5554   21654587.4414
     -3333.8754
   -144945.44946    -97760.54542  23949201.7664   23949199.8134
      2940.9694
   1091969.51548    842955.72545  22586207.2504   22586201.6094
     -2017.0314
   1378161.70648   1061701.19046  21760262.8284   21760257.3524
     -2126.1254
  -1793560.40747  -1393605.76243  23211632.2034   23211629.8444
      2967.4064
 04  9  3 14 54  0.0000000  0  8G 3G11G14G15G 1G19G22G25
   1979430.92646   1530194.86142  24105780.5864   24105777.4104
     -3306.1254
  -1584560.52848  -1232757.01844  22979499.8674   22979496.1844
      2500.4224
    631724.26748    483726.55847  20305260.1954   20305255.4534
     -1177.2504
   2060395.55449   1582800.59546  21664115.8594   21664112.6844
     -3340.0624
   -189035.95046   -132116.72542  23940811.1024   23940809.7304
      2937.8284
   1122281.89248    866575.73645  22591975.6094   22591969.8984
     -2024.6414
   1410077.16348   1086570.35046  21766336.1174   21766330.5274
     -2129.2344
  -1838051.02047  -1428273.75543  23203166.6484   23203163.7384
      2964.6564
 04  9  3 14 54 15.0000000  0  8G 3G11G14G15G 1G19G22G25
   2029033.66446   1568846.27442  24115218.5234   24115216.7424
     -3307.5474
  -1622030.38347  -1261954.31344  22972369.4144   22972366.0084
      2495.4384
    649439.66548    497530.75847  20308631.5474   20308626.5824
     -1184.8914
   2110542.21848   1621875.89545  21673658.3914   21673654.8204
     -3346.3914
   -233078.76046   -166435.85242  23932430.7194   23932428.2034
      2934.4534
   1152708.87148    890285.05145  22597765.8134   22597759.6134
     -2032.4224
   1442038.49249   1111475.27246  21772417.8834   21772412.4104
     -2132.4224
  -1882501.36747  -1462910.38843  23194708.3204   23194704.9304
      2961.7974
 04  9  3 14 54 30.0000000  0  8G 3G11G14G15G 1G19G22G25
   2078655.58446   1607512.69142  24124661.9224   24124659.3674
     -3308.8914
  -1659426.11448  -1291093.83644  22965252.9614   22965249.0824
      2490.4844
    667270.12848    511424.61247  20312024.7194   20312019.9844
     -1192.5314
   2160783.12849   1661024.63646  21683218.8674   21683215.1484
     -3352.5164
   -277071.63146   -200716.00142  23924058.7424   23924056.7894
      2931.3134
   1183252.26848    914085.08045  22603577.5164   22603571.8554
     -2040.0314
   1474047.96048   1136417.70046  21778509.5944   21778503.8794
     -2135.6414
  -1926908.92547  -1497513.65043  23186257.1724   23186254.6374
      2959.0004
 04  9  3 14 54 45.0000000  0  8G 3G11G14G15G 1G19G22G25
   2128291.91446   1646190.34042  24134108.8444   24134104.9884
     -3309.5314
  -1696751.65048  -1320178.67244  22958150.4064   22958146.3754
      2486.0164
    685211.17548    525404.65447  20315438.4614   20315434.4304
     -1199.7504
   2211113.87448   1700243.37445  21692797.0314   21692792.8794
     -3358.3444
   -321018.50346   -234960.25642  23915695.9144   23915693.5354
      2928.2814
   1213907.47248    937972.24145  22609411.4694   22609405.7194
     -2047.3914
   1506101.15349   1161394.19746  21784608.7194   21784602.5274
     -2138.3284
  -1971277.57147  -1532086.63343  23177814.1804   23177811.4694
      2956.5634
 04  9  3 14 55  0.0000000  0  8G 3G11G14G15G 1G19G22G25
   2177945.44446   1684881.32442  24143555.6254   24143554.1644
     -3310.7974
  -1734003.65848  -1349206.21144  22951061.5164   22951057.8524
      2480.8754
    703265.47248    539472.92447  20318874.2664   20318869.7114
     -1207.5004
   2261537.35949   1739534.38945  21702391.8834   21702388.1564
     -3364.7814
   -364916.26645   -269166.33342  23907342.2344   23907339.7544
      2924.8284
   1244677.30648    961948.71145  22615266.5704   22615261.3674
     -2055.2664
   1538201.10548   1186407.12846  21790717.1724   21790711.4384
     -2141.6874
  -2015603.96847  -1566626.67443  23169379.2584   23169376.4144
      2953.6414
 04  9  3 14 55 15.0000000  0  8G 3G11G14G15G 1G19G22G25
   2227615.87846   1723585.53142  24153008.0314   24153006.0864
     -3311.7504
  -1771181.90548  -1378176.28144  22943986.7344   22943982.8364
      2476.1884
    721432.92448    553629.36947  20322331.5474   20322326.6684
     -1214.8914
   2312053.31049   1778897.45445  21712004.7664   21712001.2544
     -3370.7344
   -408764.61446   -303333.88342  23898998.5554   23898996.0984
      2921.7504
   1275561.52648    986014.32645  22621143.4144   22621138.1524
     -2062.6874
   1570347.91149   1211456.58446  21796834.5004   21796828.7464
     -2144.5944
  -2059887.60247  -1601133.36943  23160951.9064   23160948.9144
      2950.8914
 04  9  3 14 55 30.0000000  0  8G 3G11G14G15G 1G19G22G25
   2277301.69746   1762301.73342  24162463.1414   24162460.6374
     -3313.0004
  -1808287.15148  -1407089.46544  22936925.7734   22936921.8364
      2471.2034
    739712.17649    567872.92547  20325809.6804   20325805.1954
     -1222.3754
   2362660.28449   1818331.43345  21721634.9224   21721631.4104
     -3376.9224
   -452564.61546   -337463.76942  23890663.3834   23890661.6954
      2918.3754
   1306558.66248   1010167.91745  22627042.0234   22627036.7154
     -2070.2974
   1602540.38449   1236541.59846  21802960.4774   21802955.0004
     -2147.7504
  -2104129.33647  -1635607.45443  23152532.9454   23152530.6454
      2948.0004
 04  9  3 14 55 45.0000000  0  8G 3G11G14G15G 1G19G22G25
   2327002.36747   1801029.49542  24171920.8914   24171918.6414
     -3313.9064
  -1845319.33648  -1435945.70844  22929879.1564   22929874.8634
      2466.4384
    758102.84348    582203.31347  20329309.0784   20329304.5784
     -1229.7504
   2413357.88449   1857836.02946  21731282.7424   21731278.7934
     -3382.7974
   -496316.32946   -371556.00942  23882337.5004   23882335.6134
      2915.3284
   1337668.10648   1034409.00545  22632962.1094   22632956.8484
     -2077.6414
   1634778.24049   1261662.00047  21809095.0394   21809089.8244
     -2150.6564
  -2148329.09247  -1670048.78343  23144122.0864   23144119.8554
      2945.3284
 04  9  3 14 56  0.0000000  0  8G 3G11G14G15G 1G19G22G25
   2376716.55547   1839767.80042  24181381.2974   24181379.2234
     -3314.7344
  -1882279.03648  -1464745.46844  22922846.0234   22922841.9844
      2461.5474
    776603.83449    596619.66547  20332830.2344   20332825.3554
     -1237.0624
   2464145.06548   1897410.43246  21740946.9454   21740943.4734
     -3388.8754
   -540020.43946   -405611.15842  23874021.7664   23874019.1294
      2912.0314
   1368888.82448   1058736.83245  22638903.0004   22638898.1094
     -2085.0624
   1667060.75149   1286817.17847  21815238.5944   21815233.4024
     -2153.6254
  -2192487.43947  -1704457.88543  23135718.6414   23135717.2664
      2942.4844
 04  9  3 14 56 15.0000000  0  8G 3G11G14G15G 1G19G22G25
   2426444.86946   1878517.08542  24190844.8754   24190842.1294
     -3315.4224
  -1919164.97548  -1493487.76144  22915826.6024   22915822.7544
      2456.7814
    795216.08749    611122.71447  20336371.7504   20336366.8364
     -1244.3914
   2515022.53549   1937055.20145  21750628.5474   21750624.7194
     -3394.5944
   -583675.80646   -439628.32842  23865713.7664   23865711.5354
      2908.9384
   1400221.55248   1083151.93145  22644866.0314   22644860.6024
     -2092.3444
   1699388.76849   1312007.83347  21821390.7344   21821384.7344
     -2156.5784
  -2236602.97247  -1738833.60943  23127324.3284   23127322.2894
      2939.8134
 04  9  3 14 56 30.0000000  0  8G 3G11G14G15G 1G19G22G25
   2476186.10446   1917276.47542  24200309.7974   24200307.3404
     -3316.7504
  -1955977.84648  -1522173.14944  22908822.0554   22908816.8444
      2451.6724
    813938.41949    625711.53247  20339934.2344   20339929.8244
     -1251.9224
   2565989.16749   1976769.43245  21760327.8444   21760323.8754
     -3400.8444
   -627283.22846   -473608.13342  23857416.4304   23857413.3794
      2905.3444
   1431664.89148   1107653.20945  22650849.3914   22650843.3244
     -2100.0474
   1731761.32449   1337233.17946  21827550.9144   21827544.9844
     -2159.8284
  -2280676.35447  -1773176.50743  23118937.0554   23118935.0664
      2936.7664
 04  9  3 14 56 45.0000000  0  8G 3G11G14G15G 1G19G22G25
   2525939.90646   1956045.60242  24209776.9224   24209775.8164
     -3317.2034
  -1992717.35448  -1550801.33044  22901830.6884   22901825.3674
      2446.9694
    832770.45748    640385.84447  20343518.0554   20343513.4774
     -1259.0164
   2617044.59949   2016552.86745  21770042.7894   21770039.3054
     -3406.5004
   -670842.48846   -507550.40542  23849127.6174   23849124.4064
      2902.5164
   1463218.46348   1132240.39645  22656853.9694   22656848.0234
     -2107.0784
   1764178.27949   1362493.13646  21833719.3204   21833713.3444
     -2162.3914
  -2324707.19747  -1807486.23043  23110558.3444   23110556.2274
      2934.1414
 04  9  3 14 57  0.0000000  0  8G 3G11G14G15G 1G19G22G25
   2575707.36545   1994825.43342  24219247.4224   24219246.6414
     -3318.2344
  -2029381.73748  -1579370.98544  22894853.5004   22894848.8554
      2441.8284
    851713.53648    655146.67647  20347122.6804   20347118.1804
     -1266.5314
   2668190.17849   2056406.54446  21779775.9304   21779772.3794
     -3412.7194
   -714351.92046   -541453.86142  23840847.4534   23840844.8014
      2898.9694
   1494883.66348   1156914.55345  22662879.1804   22662873.9344
     -2114.6874
   1796641.32649   1387789.00846  21839896.8444   21839890.6334
     -2165.6874
  -2368693.63047  -1841761.35043  23102188.2034   23102186.0234
      2930.9844
 04  9  3 14 57 15.0000000  0  8G 3G11G14G15G 1G19G22G25
   2625487.94846   2033615.41142  24228720.8204   24228719.7274
     -3318.9844
  -2065970.93948  -1607882.03444  22887890.6644   22887886.4694
      2436.8914
    870767.15249    669993.64647  20350748.2274   20350744.0354
     -1273.7194
   2719425.32849   2096330.01645  21789525.4304   21789522.0394
     -3418.4534
   -757811.62946   -575318.55942  23832576.7424   23832574.4184
      2895.7344
   1526659.76848   1181675.15245  22668926.1414   22668921.0704
     -2121.9844
   1829150.08549   1413120.49546  21846083.2274   21846077.2194
     -2168.6254
  -2412635.64947  -1876001.87743  23093826.1804   23093824.2034
      2928.1724
 04  9  3 14 57 30.0000000  0  8G 3G11G14G15G 1G19G22G25
   2675279.14646   2072413.74042  24238196.0234   24238194.3484
     -3319.7664
  -2102486.73048  -1636335.90544  22880942.1024   22880936.8014
      2431.8444
    889929.08048    684925.00147  20354394.8134   20354390.7544
     -1281.1254
   2770747.76449   2136321.50345  21799291.5784   21799289.1094
     -3424.4064
   -801223.55346   -609145.99342  23824317.2664   23824313.3794
      2892.4694
   1558544.42748   1206520.30945  22674993.7814   22674988.4774
     -2129.2814
   1861702.39249   1438485.90946  21852277.4534   21852272.0474
     -2171.6414
  -2456534.96047  -1910209.11344  23085472.7194   23085470.2384
      2925.1884
 04  9  3 14 57 45.0000000  0  8G 3G11G14G15G 1G19G22G25
   2725081.59945   2111220.76042  24247672.5474   24247670.8404
     -3320.6254
  -2138927.96648  -1664731.67744  22874007.7344   22874002.4614
      2426.8134
    909200.17548    699941.43147  20358061.8284   20358058.0904
     -1288.4844
   2822158.32849   2176381.65645  21809074.6254   21809071.8284
     -3430.3914
   -844586.55946   -642935.36042  23816064.4384   23816061.6884
      2889.1254
   1590538.37548   1231450.64645  22681081.9844   22681076.3954
     -2136.6874
   1894299.26749   1463886.06046  21858480.6254   21858474.7034
     -2174.7194
  -2500390.05547  -1944381.91443  23077127.3754   23077125.0744
      2922.0634
 04  9  3 14 58  0.0000000  0  8G 3G11G14G15G 1G19G22G25
   2774893.75346   2150035.41042  24257152.0634   24257150.4734
     -3320.8914
  -2175295.46148  -1693069.97744  22867086.9774   22867082.4454
      2422.2664
    928578.89949    715041.73347  20361749.8914   20361745.5354
     -1295.2504
   2873655.52048   2216509.32045  21818874.3914   21818871.5004
     -3435.7974
   -887901.73546   -676687.43442  23807822.2114   23807819.5474
      2886.2664
   1622640.04048   1256464.92145  22687190.7424   22687185.9494
     -2143.4694
   1926939.43749   1489319.94246  21864691.6804   21864685.9024
     -2177.2034
  -2544201.92848  -1978521.01743  23068790.2664   23068788.0554
      2919.5944
 04  9  3 14 58 15.0000000  0  8G 3G11G14G15G 1G19G22G25
   2824714.87346   2188857.02742  24266632.5314   24266630.9104
     -3321.8754
  -2211589.31248  -1721350.87044  22860180.4064   22860175.7034
      2416.9224
    948064.73149    730225.49247  20365457.6884   20365453.5354
     -1302.8124
   2925238.70748   2256703.98645  21828690.3754   21828687.2344
     -3441.9064
   -931169.24246   -710402.36442  23799588.7194   23799586.2304
      2882.7034
   1654848.69048   1281562.55945  22693319.3754   22693314.3914
     -2151.0004
   1959622.56549   1514787.29946  21870910.9144   21870905.3914
     -2180.5004
  -2587970.55747  -2012626.43743  23060461.3914   23060458.8634
      2916.2814
 04  9  3 14 58 30.0000000  0  7G11G14G15G 1G19G22G25
  -2247807.76748  -1749573.07744  22853288.5704   22853283.1844
      2412.1884
    967658.81549    745493.60547  20369186.4844   20369182.3054
     -1309.7664
   2976909.12649   2296966.61445  21838522.6094   21838520.2114
     -3447.4844
   -974387.49346   -744078.89742  23791364.4144   23791361.8794
      2879.7664
   1687165.55248   1306744.49745  22699469.3134   22699464.0704
     -2157.8914
   1992350.09749   1540289.25946  21877139.1254   21877133.5824
     -2183.1724
  -2631694.25348  -2046696.83443  23052140.6644   23052138.2584
      2913.5634
 04  9  3 14 58 45.0000000  0  7G11G14G15G 1G19G22G25
  -2283951.41148  -1777736.96044  22846410.6564   22846405.5784
      2407.0634
    987360.13249    760845.26847  20372935.4614   20372931.0434
     -1316.9694
   3028665.71248   2337296.40145  21848371.8284   21848369.1914
     -3453.2664
  -1017557.10546   -777717.56342  23783149.5474   23783146.7894
      2876.3134
   1719589.37748   1332009.79845  22705639.0944   22705634.1914
     -2165.1414
   2025121.08349   1565825.06846  21883375.2114   21883369.3834
     -2186.1414
  -2675373.53247  -2080732.61444  23043829.0004   23043826.2974
      2910.4064
 04  9  3 14 59  0.0000000  0  7G11G14G15G 1G19G22G25
  -2320018.49548  -1805841.19244  22839546.8364   22839542.2544
      2402.2344
   1007169.93048    776281.47247  20376705.2734   20376700.3244
     -1323.9374
   3080509.67149   2377694.26245  21858237.4694   21858234.0744
     -3458.8284
  -1060676.57545   -811317.15942  23774944.2034   23774941.6094
      2873.3914
   1752121.29548   1357359.33845  22711829.9534   22711824.4184
     -2172.0784
   2057936.92149   1591395.83246  21889619.9144   21889613.7344
     -2188.9224
  -2719006.59647  -2114732.39143  23035526.0554   23035523.3094
      2907.6254
 04  9  3 14 59 15.0000000  0  7G11G14G15G 1G19G22G25
  -2356011.06848  -1833887.36044  22832697.6564   22832692.7544
      2396.9224
   1027085.74649    791800.27847  20380494.8134   20380490.3444
     -1331.3594
   3132438.46749   2418158.23245  21868119.1644   21868116.2464
     -3464.8594
  -1103748.00045   -844879.31043  23766747.6414   23766745.1764
      2869.7034
   1784758.68048   1382791.06445  22718040.7034   22718035.2894
     -2179.4224
   2090795.43549   1616999.85546  21895872.7664   21895866.7154
     -2192.0944
  -2762595.24148  -2148697.55943  23027231.9384   23027228.7734
      2904.3284
 04  9  3 14 59 30.0000000  0  7G11G14G15G 1G19G22G25
  -2391926.64448  -1861873.53544  22825863.4694   22825858.7344
      2391.9064
   1047109.52749    807403.21947  20384305.2194   20384300.5274
     -1338.3444
   3184454.01049   2458689.80745  21878017.4144   21878014.4884
     -3470.4224
  -1146769.01046   -878402.14243  23758561.0864   23758558.3484
      2866.4534
   1817503.45448   1408306.44045  22724272.1884   22724265.8914
     -2186.4224
   2123698.69249   1642638.74146  21902134.2344   21902127.7274
     -2194.8124
  -2806137.10848  -2182626.28243  23018945.6414   23018942.7664
      2901.3754
 04  9  3 14 59 45.0000000  0  7G11G14G15G 1G19G22G25
  -2427765.33148  -1889799.78844  22819043.7114   22819039.0234
      2386.6564
   1067240.77849    823089.89947  20388136.4304   20388131.4694
     -1345.7344
   3236555.86848   2499288.63445  21887931.9384   21887929.3324
     -3476.3444
  -1189739.71046   -911885.80442  23750383.9304   23750381.2934
      2863.0314
   1850355.00348   1433905.03145  22730523.4774   22730517.6254
     -2193.7034
   2156646.46649   1668312.33046  21908403.7814   21908397.7704
     -2198.0784
  -2849631.95848  -2216518.34543  23010668.7114   23010665.8444
      2898.0004
 04  9  3 15  0  0.0000000  0  7G11G14G15G 1G19G22G25
  -2463529.59748  -1917668.05144  22812237.8594   22812233.7304
      2381.4534
   1087476.34149    838857.85847  20391986.9064   20391982.5044
     -1352.7974
   3288740.90148   2539952.26845  21897862.3134   21897859.6884
     -3482.1094
  -1232662.85146   -945332.43442  23742215.5634   23742213.4774
      2859.6564
   1883310.09948   1459584.31845  22736794.5004   22736788.8714
     -2200.7664
   2189635.72949   1694018.21446  21914681.4614   21914675.6214
     -2200.9694
  -2893082.45448  -2250375.87743  23002400.2814   23002397.1414
      2894.9384
 04  9  3 15  0 15.0000000  0  7G11G14G15G 1G19G22G25
  -2499215.69649  -1945475.40645  22805447.4924   22805442.5514
      2376.4694
   1107819.42649    854709.60147  20395858.2814   20395853.1484
     -1359.8284
   3341012.13648   2580683.07145  21907809.2584   21907806.4574
     -3487.6564
  -1275534.99146   -978739.27442  23734057.6644   23734055.0204
      2856.5164
   1916371.82148   1485346.67645  22743086.2584   22743080.7234
     -2207.7034
   2222669.90149   1719759.10746  21920967.8284   21920961.7704
     -2203.8444
  -2936484.83748  -2284195.91343  22994141.2424   22994138.0204
      2891.8444
 04  9  3 15  0 30.0000000  0  7G11G14G15G 1G19G22G25
  -2534826.54248  -1973224.10944  22798671.3444   22798666.2704
      2371.4384
   1128266.67549    870642.52747  20399749.1954   20399744.4614
     -1366.7194
   3393366.23248   2621478.44845  21917772.3914   21917769.0004
     -3493.0944
  -1318359.08946  -1012108.69543  23725908.7894   23725906.2814
      2853.2814
   1949536.68848   1511189.40445  22749397.0004   22749391.5864
     -2214.4374
   2255745.90549   1745532.60846  21927261.8444   21927255.7624
     -2206.5314
  -2979842.01548  -2317980.71844  22985890.9614   22985887.4694
      2888.8914
 04  9  3 15  0 45.0000000  0  7G11G14G15G 1G19G22G25
  -2570362.17948  -2000914.21744  22791908.5634   22791903.7894
      2366.6254
   1148817.61849    886656.24547  20403659.5084   20403655.1294
     -1373.3594
   3445802.69849   2662338.00645  21927750.8054   21927747.7274
     -3498.3754
  -1361135.15446  -1045440.72142  23717769.0164   23717765.8524
      2850.2034
   1982804.25548   1537112.17045  22755727.6564   22755722.2114
     -2221.1874
   2288863.40149   1771338.42946  21933563.9304   21933558.2114
     -2209.1724
  -3023153.89448  -2351730.19443  22977648.5394   22977645.5234
      2886.0784
 04  9  3 15  1  0.0000000  0  7G11G14G15G 1G19G22G25
  -2605822.54848  -2028545.67444  22785161.0554   22785156.2894
      2361.3914
   1169471.71948    902750.33847  20407590.3984   20407585.1954
     -1380.5164
   3498320.89148   2703261.26745  21937744.7344   21937741.1414
     -3504.0624
  -1403863.43646  -1078735.46943  23709636.9924   23709634.8984
      2846.8444
   2016173.66948   1563114.27545  22762077.6804   22762072.1604
     -2228.1564
   2322022.04449   1797176.32646  21939873.6724   21939867.9144
     -2212.0624
  -3066420.42347  -2385444.38544  22969415.1254   22969411.9494
      2882.7664
 04  9  3 15  1 15.0000000  0  7G11G14G15G 1G19G22G25
  -2641207.27248  -2056118.18045  22778427.2734   22778422.4774
      2356.4694
   1190228.97549    918924.81647  20411539.9224   20411535.1484
     -1387.2344
   3550920.82449   2744248.19545  21947753.9144   21947750.9494
     -3509.2974
  -1446543.47346  -1111992.61142  23701516.1484   23701513.7304
      2843.7664
   2049644.89048   1589195.74245  22768447.3204   22768441.9614
     -2234.7504
   2355222.06449   1823046.44546  21946191.4614   21946185.5314
     -2214.7034
  -3109640.99747  -2419122.73643  22961190.7114   22961187.5084
      2879.8594
 04  9  3 15  1 30.0000000  0  7G11G14G15G 1G19G22G25
  -2676513.90748  -2083629.83744  22771708.6644   22771703.7814
      2351.1254
   1211091.47649    935181.29647  20415510.3054   20415505.2974
     -1394.4224
   3603604.57649   2785300.45345  21957779.1414   21957776.4804
     -3515.1094
  -1489172.94246  -1145210.38343  23693404.4454   23693401.8014
      2840.1724
   2083219.78948   1615357.98145  22774836.6484   22774831.3324
     -2241.8444
   2388465.58149   1848950.47246  21952517.3834   21952511.6684
     -2217.7664
  -3152813.03348  -2452763.26344  22952975.6564   22952971.5704
      2876.4384
 04  9  3 15  1 45.0000000  0  7G11G14G15G 1G19G22G25
  -2711743.27448  -2111081.30844  22765005.0234   22764999.8324
      2346.1724
   1232057.63449    951518.55547  20419500.1174   20419495.3874
     -1401.0784
   3656370.52348   2826416.75045  21967820.2664   21967817.3524
     -3520.3594
  -1531753.00947  -1178389.69643  23685301.2274   23685298.5514
      2837.2194
   2116896.81548   1641599.78845  22781244.5084   22781238.9884
     -2248.3914
   2421751.30549   1874887.38846  21958851.6484   21958845.8634
     -2220.2974
  -3195937.65148  -2486366.85044  22944769.2424   22944765.2664
      2873.5474
 04  9  3 15  2  0.0000000  0  7G11G14G15G 1G19G22G25
  -2746897.29348  -2138474.07244  22758315.0314   22758310.1024
      2341.1884
   1253124.99649    967934.67647  20423509.1484   20423503.9064
     -1407.7974
   3709216.19949   2867595.16945  21977876.9614   21977873.4344
     -3525.5474
  -1574285.70647  -1211532.03942  23677207.1094   23677205.2854
      2834.0784
   2150673.46348   1667919.23145  22787671.7814   22787666.6724
     -2254.9534
   2455077.04749   1900855.47746  21965193.2734   21965187.6414
     -2222.9694
  -3239016.49748  -2519934.76444  22936571.1564   22936568.3554
      2870.5474
 04  9  3 15  2 15.0000000  0  7G11G14G15G 1G19G22G25
  -2781974.58148  -2165807.01344  22751639.8914   22751635.2974
      2335.8134
   1274294.41149    984430.31547  20427537.4774   20427532.6564
     -1414.8124
   3762142.44949   2908836.38645  21987948.1414   21987944.7854
     -3531.1564
  -1616769.80347  -1244636.53243  23669123.1254   23669120.3164
      2830.4534
   2184550.41748   1694316.84545  22794118.9924   22794113.3164
     -2262.0004
   2488443.87049   1926855.58646  21971542.5164   21971537.0904
     -2226.0004
  -3282048.16448  -2553465.91243  22928382.4454   22928379.4064
      2867.1414
 04  9  3 15  2 30.0000000  0  7G11G14G15G 1G19G22G25
  -2816973.59248  -2193078.96044  22744979.7504   22744975.1524
      2330.7034
   1295567.01549   1001006.36647  20431585.5474   20431580.6954
     -1421.5784
   3815150.45748   2950141.30545  21998035.5004   21998032.0784
     -3536.5164
  -1659203.80347  -1277701.94442  23661048.2274   23661045.5434
      2827.2814
   2218528.70248   1720793.40145  22800585.3364   22800579.1684
     -2268.6094
   2521853.04849   1952888.68446  21977900.2114   21977894.3484
     -2228.6414
  -3325030.92348  -2586958.96544  22920203.0784   22920199.8364
      2864.0314
 04  9  3 15  2 45.0000000  0  7G11G14G15G 1G19G22G25
  -2851895.36248  -2220290.71144  22738334.6414   22738330.1094
      2325.6094
   1316941.25749   1017661.62047  20435652.8984   20435648.3834
     -1428.2664
   3868238.52448   2991508.60345  22008137.3444   22008134.6294
     -3541.7814
  -1701588.91046  -1310729.30943  23652981.5554   23652979.8364
      2824.1724
   2252606.63748   1747347.62445  22807069.8674   22807064.2734
     -2275.1094
   2555303.14749   1978953.69946  21984265.6564   21984259.6644
     -2231.2814
  -3367965.90648  -2620414.77144  22912032.9924   22912029.7154
      2860.8444
 04  9  3 15  3  0.0000000  0  7G11G14G15G 1G19G22G25
  -2886742.05648  -2247443.98844  22731703.2664   22731698.8554
      2320.5784
   1338414.50949   1034394.00347  20439739.2034   20439734.2194
     -1434.8284
   3921404.01949   3032936.23745  22018255.0164   22018251.5204
     -3546.9224
  -1743927.35946  -1343720.30143  23644926.2344   23644923.4024
      2821.0164
   2286781.43748   1773977.31945  22813572.7034   22813567.7034
     -2281.5784
   2588791.84649   2005048.77346  21990638.3284   21990632.8634
     -2233.8444
  -3410855.12347  -2653834.92244  22903871.5084   22903867.9024
      2857.7504
 04  9  3 15  3 15.0000000  0  7G11G14G15G 1G19G22G25
  -2921511.20848  -2274536.84844  22725086.6954   22725082.0164
      2315.4224
   1359988.87549   1051205.19347  20443844.3134   20443839.7584
     -1441.6254
   3974649.11249   3074425.88745  22028386.4224   22028383.7034
     -3552.2344
  -1786216.69446  -1376673.02843  23636878.1644   23636875.6454
      2817.6724
   2321055.17648   1800684.10545  22820094.9454   22820089.7464
     -2288.1724
   2622321.44549   2031175.71746  21997018.7034   21997012.8984
     -2236.5944
  -3453695.87347  -2687217.29944  22895718.8984   22895715.7194
      2854.3914
 04  9  3 15  3 30.0000000  0  7G11G14G15G 1G19G22G25
  -2956200.85648  -2301567.73344  22718485.4844   22718480.6564
      2309.9534
   1381665.62649   1068096.15547  20447969.3284   20447964.1844
     -1448.5624
   4027974.98248   3115978.48745  22038534.3834   22038531.7274
     -3557.7344
  -1828455.25746  -1409586.19343  23628840.5944   23628838.1724
      2814.1254
   2355428.94148   1827468.83645  22826635.9064   22826630.6054
     -2294.9694
   2655893.42249   2057335.68346  22003407.8134   22003401.4454
     -2239.5624
  -3496486.42047  -2720560.55544  22887576.0944   22887573.1094
      2851.0634
 04  9  3 15  3 45.0000000  0  7G11G14G15G 1G19G22G25
  -2990812.36648  -2328537.74644  22711899.4534   22711894.4654
      2305.1094
   1403442.93449   1085065.48747  20452113.6484   20452108.6804
     -1454.9224
   4081379.70148   3157592.52745  22048697.0394   22048694.4304
     -3562.6874
  -1870644.56647  -1442460.96743  23620811.7974   23620809.7704
      2811.2504
   2389900.78048   1854329.98345  22833196.1564   22833190.3634
     -2301.1094
   2689506.17349   2083527.42446  22009803.9064   22009797.3914
     -2241.9224
  -3539227.95648  -2753865.63244  22879442.6804   22879440.0664
      2848.0784
 04  9  3 15  4  0.0000000  0  7G11G14G15G 1G19G22G25
  -3025344.66148  -2355446.05144  22705328.0234   22705323.2464
      2299.8284
   1425321.37249   1102113.60547  20456277.0864   20456271.6094
     -1461.6564
   4134863.89148   3199268.50745  22058874.3984   22058871.7464
     -3568.0004
  -1912783.56747  -1475296.53643  23612793.6644   23612790.6844
      2807.8754
   2424471.27048   1881268.01045  22839774.3524   22839769.3954
     -2307.7504
   2723160.41149   2109751.48546  22016207.9144   22016201.8364
     -2244.7664
  -3581919.34648  -2787131.63544  22871319.2194   22871315.7974
      2844.6564
 04  9  3 15  4 15.0000000  0  7G11G14G15G 1G19G22G25
  -3059799.90848  -2382294.28144  22698771.0784   22698766.4964
      2294.4694
   1447298.24649   1119238.43247  20460459.1024   20460453.5904
     -1468.3914
   4188424.87548   3241004.30345  22069067.3914   22069064.2584
     -3573.2814
  -1954874.61047  -1508094.76243  23604783.7034   23604780.7234
      2804.5004
   2459137.48448   1908280.62445  22846371.3524   22846366.0664
     -2314.2814
   2756853.69449   2136005.97746  22022619.7584   22022613.4414
     -2247.4844
  -3624562.73948  -2820360.20844  22863204.2114   22863200.9344
      2841.3754
 04  9  3 15  4 30.0000000  0  7G11G14G15G 1G19G22G25
  -3094178.12248  -2409082.48844  22692229.4924   22692225.0434
      2289.0944
   1469373.06549   1136439.58547  20464659.7114   20464654.7074
     -1475.1094
   4242062.04048   3282799.47545  22079273.5164   22079271.1484
     -3578.5004
  -1996917.88547  -1540855.75343  23596783.6254   23596780.6644
      2801.0474
   2493898.84448   1935367.38045  22852985.9454   22852980.9064
     -2320.8284
   2790585.66249   2162290.62146  22029038.3834   22029032.5514
     -2250.3444
  -3667158.14848  -2853551.41544  22855098.4304   22855095.7974
      2837.8594
 04  9  3 15  4 45.0000000  0  7G11G14G15G 1G19G22G25
  -3128472.91348  -2435805.71644  22685703.4454   22685698.5944
      2283.5314
   1491551.78349   1153721.69547  20468880.1804   20468874.9144
     -1482.0784
   4295781.40649   3324658.68645  22089496.1094   22089493.5314
     -3584.0624
  -2038907.03547  -1573574.55043  23588793.0704   23588790.1414
      2797.6094
   2528761.21748   1962532.83545  22859620.2034   22859615.1844
     -2327.5624
   2824362.51649   2188610.22346  22035466.4454   22035460.1844
     -2253.2504
  -3709699.09248  -2886700.17844  22847003.1954   22847000.1914
      2834.1884
 04  9  3 15  5  0.0000000  0  7G11G14G15G 1G19G22G25
  -3162688.30548  -2462467.06444  22679192.4224   22679187.8914
      2278.3134
   1513829.67149   1171081.08147  20473119.4534   20473114.8554
     -1488.5624
   4349578.23748   3366578.27145  22099733.3204   22099730.3054
     -3589.1254
  -2080846.34146  -1606254.50243  23580811.5864   23580809.1954
      2794.1564
   2563719.88148   1989773.33545  22866272.5004   22866267.6954
     -2333.8754
   2858179.90149   2214961.42246  22041901.3054   22041895.8054
     -2255.9694
  -3752189.60247  -2919809.62444  22838917.0634   22838914.6454
      2830.9384
 04  9  3 15  5 15.0000000  0  7G11G14G15G 1G19G22G25
  -3196823.82548  -2489066.16944  22672696.3054   22672692.0314
      2273.1254
   1536206.75349   1188517.75947  20477377.9304   20477373.1484
     -1494.9694
   4403452.43748   3408558.15645  22109985.4924   22109982.5234
     -3594.0624
  -2122735.40846  -1638895.32743  23572841.1884   23572837.9454
      2790.9844
   2598774.66448   2017088.72545  22872943.5314   22872938.0704
     -2340.0784
   2892037.90149   2241344.26446  22048344.1804   22048338.0824
     -2258.4694
  -3794629.12547  -2952879.36044  22830840.9614   22830838.4184
      2827.7034
 04  9  3 15  5 30.0000000  0  7G11G14G15G 1G19G22G25
  -3230878.85749  -2515602.54544  22666216.0474   22666211.7734
      2267.7034
   1558683.24249   1206031.89647  20481655.0554   20481649.8914
     -1501.6724
   4457404.19048   3450598.44945  22120251.9844   22120249.0824
     -3599.2504
  -2164573.75947  -1671496.62143  23564879.3834   23564876.7974
      2787.6094
   2633925.56448   2044479.00945  22879632.0474   22879626.8874
     -2346.5784
   2925936.84049   2267759.00046  22054795.0004   22054789.4694
     -2261.2034
  -3837016.92247  -2985908.79344  22822774.7344   22822772.3484
      2824.2344
 04  9  3 15  5 45.0000000  0  7G11G14G15G 1G19G22G25
  -3264857.72749  -2542079.60144  22659750.8444   22659745.7664
      2262.7814
   1581254.20749   1223619.65447  20485949.9924   20485945.1414
     -1507.7974
   4511428.55648   3492695.33145  22130532.4924   22130530.0124
     -3603.9844
  -2206365.90447  -1704061.89443  23556926.3914   23556924.0474
      2784.7504
   2669167.54848   2071940.27745  22886338.3674   22886332.8794
     -2352.3284
   2959872.02949   2294201.97146  22061253.1334   22061247.2894
     -2263.4224
  -3879357.22548  -3018901.20744  22814717.9844   22814715.1414
      2821.1884
 04  9  3 15  6  0.0000000  0  7G11G14G15G 1G19G22G25
  -3298757.94849  -2568495.36044  22653299.6644   22653294.9224
      2257.4224
   1603921.84149   1241282.73047  20490263.7584   20490258.8364
     -1514.3444
   4565527.56748   3534850.37045  22140826.8364   22140824.4494
     -3608.9694
  -2248109.38347  -1736589.28143  23548981.8364   23548979.5084
      2781.4064
   2704502.66748   2099474.10745  22893062.3914   22893057.8404
     -2358.6874
   2993845.79749   2320675.02546  22067718.2034   22067712.1454
     -2266.1414
  -3921647.49248  -3051854.62844  22806670.2504   22806667.5634
      2817.6884
 04  9  3 15  6 15.0000000  0  7G11G14G15G 1G19G22G25
  -3332576.27349  -2594847.31344  22646864.3134   22646859.3594
      2252.0004
   1626688.60149   1259023.06247  20494595.8594   20494591.4304
     -1520.9534
   4619703.83948   3577065.61545  22151137.2114   22151134.2424
     -3614.1254
  -2289801.21247  -1769076.37543  23541049.1644   23541046.7734
      2777.8594
   2739933.35348   2127082.41744  22899804.8834   22899800.0784
     -2365.0474
   3027861.03849   2347180.38246  22074190.7034   22074184.8444
     -2268.8914
  -3963884.52648  -3084766.58244  22798633.0394   22798630.5514
      2814.1724
 04  9  3 15  6 30.0000000  0  7G11G14G15G 1G19G22G25
  -3366314.05149  -2621136.48544  22640444.1334   22640439.0514
      2246.4224
   1649552.81549   1276839.31547  20498946.8754   20498942.1054
     -1527.6564
   4673955.59048   3619339.67145  22161460.2974   22161457.6644
     -3619.3124
  -2331442.79747  -1801524.39043  23533125.3984   23533122.6294
      2774.4384
   2775457.81148   2154763.77944  22906565.1254   22906559.8634
     -2371.4064
   3061916.14749   2373716.82346  22080670.7274   22080665.6024
     -2271.7194
  -4006069.62848  -3117638.05644  22790605.5084   22790603.1524
      2810.5004
 04  9  3 15  6 45.0000000  0  7G11G14G15G 1G19G22G25
  -3399972.63249  -2647363.96344  22634038.9534   22634034.4844
      2241.0314
   1672512.48049   1294729.95647  20503315.6954   20503311.1054
     -1534.0314
   4728280.84448   3661671.01945  22171798.9224   22171795.6684
     -3624.3444
  -2373035.75047  -1833934.43243  23525209.8754   23525207.5434
      2771.0004
   2811073.93848   2182516.59145  22913342.7274   22913337.3134
     -2377.6874
   3096009.36449   2400282.94846  22087158.8594   22087153.0744
     -2274.3914
  -4048203.99948  -3150470.01644  22782587.7894   22782584.8914
      2806.9534
 04  9  3 15  7  0.0000000  0  7G11G14G15G 1G19G22G25
  -3433551.03549  -2673528.96144  22627648.9144   22627644.1054
      2235.8284
   1695568.21949   1312695.45347  20507703.4304   20507699.0124
     -1540.2664
   4782680.06848   3704059.99445  22182150.0084   22182147.1254
     -3629.0784
  -2414579.13647  -1866305.88743  23517304.5784   23517301.2934
      2767.9064
   2846782.21648   2210341.20345  22920137.5474   22920132.4694
     -2383.6724
   3130141.48949   2426879.39146  22093653.5554   22093648.0944
     -2276.7814
  -4090286.49648  -3183261.53044  22774579.6724   22774576.6724
      2803.7194
 04  9  3 15  7 15.0000000  0  7G11G14G15G 1G19G22G25
  -3467048.95948  -2699631.23644  22621274.8524   22621269.8484
      2230.5944
   1718719.68949   1330735.55847  20512108.9304   20512104.4224
     -1546.5784
   4837153.02548   3746506.41745  22192515.7424   22192513.0554
     -3633.9064
  -2456072.83047  -1898638.62943  23509408.9064   23509405.8484
      2764.6414
   2882582.25048   2238237.31145  22926949.8914   22926944.8014
     -2389.5944
   3164312.52749   2453506.15846  22100156.1414   22100151.2074
     -2279.2974
  -4132316.95748  -3216012.50344  22766580.8984   22766577.9344
      2800.3284
 04  9  3 15  7 30.0000000  0  7G11G14G15G 1G19G22G25
  -3500465.67949  -2725670.24545  22614915.8984   22614910.6524
      2225.0314
   1741967.16649   1348850.46847  20516532.6484   20516528.1994
     -1553.0004
   4891699.94548   3789010.49345  22202895.6024   22202893.5394
     -3638.9534
  -2497516.21547  -1930932.16343  23501522.2194   23501519.8914
      2761.1884
   2918474.09148   2266204.96845  22933780.1484   22933774.9224
     -2395.7504
   3198522.86849   2480163.54446  22106666.5634   22106661.1294
     -2282.0004
  -4174294.57548  -3248722.31144  22758593.1564   22758590.1174
      2796.6724
 04  9  3 15  7 45.0000000  0  7G11G14G15G 1G19G22G25
  -3533800.50549  -2751645.42744  22608571.9844   22608567.2814
      2219.4534
   1765310.89349   1367040.36547  20520974.9924   20520970.0984
     -1559.5944
   4946320.90948   3831572.26245  22213289.9844   22213287.0554
     -3643.9844
  -2538908.79447  -1963186.09543  23493645.3674   23493642.7774
      2757.7194
   2954457.82148   2294244.21545  22940627.5164   22940622.7664
     -2402.0474
   3232772.83749   2506851.81846  22113184.1024   22113178.8714
     -2284.7814
  -4216218.60048  -3281390.35944  22750616.1254   22750612.8754
      2793.0474
 04  9  3 15  8  0.0000000  0  7G11G14G15G 1G19G22G25
  -3567054.38049  -2777557.54245  22602243.9614   22602239.2664
      2213.9064
   1788749.41649   1385304.14447  20525435.3834   20525430.5944
     -1566.0784
   5001014.57348   3874190.67145  22223698.0164   22223695.2344
     -3648.9374
  -2580251.56447  -1995401.21743  23485777.9454   23485775.5274
      2754.2664
   2990531.92848   2322353.88644  22947492.0474   22947487.1334
     -2408.2034
   3267061.25449   2533570.05546  22119709.0474   22119703.4064
     -2287.5004
  -4258089.81848  -3314017.26044  22742648.0554   22742644.9454
      2789.3444
 04  9  3 15  8 15.0000000  0  7G11G14G15G 1G19G22G25
  -3600226.88849  -2803406.25045  22595931.9224   22595926.9144
      2208.7664
   1812282.58749   1403641.67547  20529913.1484   20529908.2424
     -1572.0474
   5055780.79848   3916865.61845  22234119.9384   22234116.6764
     -3653.5004
  -2621544.27447  -2027577.36243  23477920.4844   23477918.0204
      2751.0784
   3026696.15648   2350533.78744  22954373.8524   22954369.0004
     -2413.9694
   3301388.29149   2560318.37346  22126241.2274   22126235.7584
     -2289.7344
  -4299907.81648  -3346602.68844  22734689.7424   22734686.9574
      2786.0474
 04  9  3 15  8 30.0000000  0  7G11G14G15G 1G19G22G25
  -3633315.83449  -2829189.84645  22589635.4144   22589630.2154
      2203.2664
   1835912.09049   1422054.26547  20534409.6024   20534405.3874
     -1578.4534
   5110621.14348   3959598.33145  22244555.1254   22244552.4454
     -3658.3594
  -2662784.86246  -2059712.84243  23470072.5234   23470070.1334
      2747.7814
   3062952.06248   2378785.12744  22961273.1254   22961267.8284
     -2420.0784
   3335755.80049   2587098.23746  22132781.3834   22132775.7304
     -2292.4064
  -4341670.29548  -3379144.84544  22726742.5784   22726739.7384
      2782.4534
 04  9  3 15  8 45.0000000  0  7G11G14G15G 1G19G22G25
  -3666323.57649  -2854910.16245  22583354.2114   22583349.7854
      2197.6564
   1859635.07649   1440539.70647  20538923.7894   20538919.4384
     -1584.8914
   5165532.73648   4002386.56644  22255005.0784   22255001.9734
     -3663.3124
  -2703975.70046  -2091809.61242  23462234.2274   23462231.5744
      2744.2194
   3099296.89248   2407105.75144  22968189.4614   22968184.1484
     -2426.1414
   3370161.14049   2613907.57246  22139328.0864   22139322.7544
     -2295.1254
  -4383379.54248  -3411645.53144  22718806.0864   22718802.6954
      2778.6254
 04  9  3 15  9  0.0000000  0  7G11G14G15G 1G19G22G25
  -3699247.95749  -2880565.50945  22577088.4614   22577084.1994
      2192.0784
   1883453.14249   1459099.22647  20543456.4694   20543451.7074
     -1591.1414
   5220517.06748   4045231.46145  22265468.4224   22265465.3324
     -3668.1254
  -2745114.99747  -2123866.17742  23454405.4384   23454402.6604
      2740.8284
   3135731.88548   2435496.61844  22975123.0474   22975117.7344
     -2432.0474
   3404605.97149   2640747.68346  22145882.4304   22145877.2544
     -2297.7194
  -4425033.53648  -3444103.17944  22710879.1334   22710876.4104
      2775.0004
 04  9  3 15  9 15.0000000  0  7G11G14G15G 1G19G22G25
  -3732090.19049  -2906156.86045  22570838.8914   22570834.7344
      2186.6724
   1907364.60449   1477731.53147  20548006.7034   20548001.9264
     -1597.2504
   5275572.56548   4088131.81645  22275944.9454   22275941.8984
     -3672.7504
  -2786203.98846  -2155883.57142  23446586.2734   23446583.8794
      2737.6094
   3172255.20248   2463956.33344  22982072.7504   22982068.4104
     -2437.8914
   3439088.96249   2667617.52946  22152445.0164   22152439.0664
     -2300.1724
  -4466633.17848  -3476518.46344  22702963.2974   22702960.2194
      2771.5004
 04  9  3 15  9 30.0000000  0  7G11G14G15G 1G19G22G25
  -3764848.94549  -2931683.15445  22564605.3054   22564600.9494
      2181.3284
   1931370.33749   1496437.28147  20552574.9454   20552570.0434
     -1603.2974
   5330700.02848   4131088.24945  22286435.4144   22286432.5164
     -3677.3594
  -2827241.42947  -2187860.79043  23438777.3284   23438774.4534
      2734.3134
   3208867.70548   2492485.52144  22989040.6804   22989035.6414
     -2443.6094
   3473611.22949   2694517.96746  22159014.0084   22159008.3914
     -2302.5624
  -4508177.00448  -3508890.25844  22695057.5314   22695054.0904
      2768.0314
 04  9  3 15  9 45.0000000  0  7G11G14G15G 1G19G22G25
  -3797523.91349  -2957144.17645  22558387.2814   22558382.6804
      2175.5634
   1955470.15049   1515216.35147  20557160.7974   20557156.3554
     -1609.7504
   5385899.16848   4174100.53445  22296939.3914   22296936.4414
     -3682.3444
  -2868227.26746  -2219797.80243  23430977.7664   23430975.5664
      2730.7664
   3245568.98648   2521083.89945  22996024.1644   22996018.9694
     -2449.6724
   3508172.68549   2721448.95446  22165590.9304   22165584.9224
     -2305.3444
  -4549664.98548  -3541218.53744  22687162.5474   22687159.3914
      2764.0634
 04  9  3 15 10  0.0000000  0  7G11G14G15G 1G19G22G25
  -3830115.72949  -2982540.40345  22552185.2114   22552180.5044
      2170.0314
   1979662.82649   1534067.77347  20561764.6884   20561759.8794
     -1615.9374
   5441168.81448   4217167.75445  22307456.5084   22307453.6484
     -3687.0004
  -2909162.23046  -2251695.17043  23423188.7664   23423185.6914
      2727.3134
   3282357.89148   2549750.55045  23003025.1884   23003020.0124
     -2455.4694
   3542772.44549   2748409.78246  22172175.2894   22172169.4184
     -2307.8914
  -4591097.55948  -3573503.63344  22679277.8834   22679275.0004
      2760.3284
 04  9  3 15 10 15.0000000  0  7G11G14G15G 1G19G22G25
  -3862622.37149  -3007870.26445  22545999.6254   22545995.1214
      2164.3134
   2003949.89149   1552992.75947  20566386.5004   20566381.4024
     -1622.2664
   5496510.44948   4260291.08145  22317988.0944   22317985.0394
     -3691.7814
  -2950044.33946  -2283551.35143  23415409.3754   23415406.6294
      2723.7034
   3319235.72448   2578486.50545  23010043.2034   23010038.0984
     -2461.5164
   3577412.24349   2775401.81746  22178766.5704   22178761.4574
     -2310.5944
  -4632472.45648  -3605743.78644  22671404.6724   22671401.6024
      2756.4064
 04  9  3 15 10 30.0000000  0  7G11G14G15G 1G19G22G25
  -3895045.54349  -3033135.05945  22539829.7274   22539824.8984
      2158.8134
   2028328.76349   1571989.27247  20571025.4144   20571020.9774
     -1628.2664
   5551921.53648   4303468.52444  22328532.4064   22328529.4064
     -3696.3284
  -2990875.83347  -2315368.07743  23407638.8594   23407636.6054
      2720.4224
   3356199.76948   2607289.64644  23017077.2034   23017072.4384
     -2467.0474
   3612089.70949   2802423.19946  22185366.1724   22185360.1564
     -2313.0164
  -4673791.70248  -3637940.58944  22663542.2664   22663539.0864
      2752.7814
 04  9  3 15 10 45.0000000  0  7G11G14G15G 1G19G22G25
  -3927383.20749  -3058333.25845  22533676.2894   22533671.3754
      2152.8594
   2052801.54049   1591058.95147  20575682.1564   20575677.5124
     -1634.7974
   5607403.97348   4346701.55945  22339090.2424   22339087.9344
     -3701.3444
  -3031654.43546  -2347143.59743  23399878.6484   23399876.2114
      2716.5784
   3393252.00248   2636161.49044  23024128.0394   23024122.4104
     -2473.2034
   3646806.99149   2829475.61046  22191972.3984   22191966.3954
     -2315.9064
  -4715052.97348  -3670092.21144  22655690.7194   22655687.1524
      2748.7034
 04  9  3 15 11  0.0000000  0  7G11G14G15G 1G19G22G25
  -3959634.18049  -3083463.89145  22527538.5864   22527534.1604
      2147.3914
   2077368.84749   1610202.30147  20580357.5234   20580352.8284
     -1640.7974
   5662958.38948   4389990.68144  22349662.1644   22349659.2814
     -3705.7974
  -3072379.02346  -2378877.04943  23392130.1024   23392127.0434
      2713.3754
   3430392.93448   2665102.45345  23031195.4454   23031190.0124
     -2478.7664
   3681564.97149   2856559.72646  22198586.5704   22198580.6484
     -2318.3284
  -4756254.90448  -3702197.59645  22647849.9224   22647846.4964
      2745.0164
 04  9  3 15 11 15.0000000  0  7G11G14G15G 1G19G22G25
  -3991801.22849  -3108529.12445  22521417.8364   22521413.0514
      2141.7814
   2102027.16049   1629416.56047  20585049.8204   20585044.7814
     -1646.8284
   5718581.32248   4433333.21344  22360247.0234   22360244.4344
     -3710.3754
  -3113052.74046  -2410570.86543  23384389.3364   23384386.8444
      2709.9844
   3467618.92348   2694109.69245  23038279.1564   23038274.0394
     -2484.4694
   3716360.51149   2883673.12146  22205207.4694   22205202.0664
     -2320.7814
  -4797400.39947  -3734259.00945  22640020.2664   22640016.8634
      2741.3284
 04  9  3 15 11 30.0000000  0  7G11G14G15G 1G19G22G25
  -4023883.91849  -3133528.63745  22515312.6724   22515307.9924
      2135.9064
   2126776.57849   1648701.81447  20589759.7274   20589754.8554
     -1653.1414
   5774272.74448   4476729.08644  22370844.1884   22370841.9224
     -3715.1874
  -3153675.15246  -2442224.67743  23376659.4384   23376656.8444
      2706.3444
   3504929.79948   2723183.08144  23045379.4224   23045374.3204
     -2490.3754
   3751193.85949   2910815.96446  22211836.7584   22211830.8524
     -2323.5624
  -4838488.87448  -3766275.98845  22632201.2034   22632197.5474
      2737.1884
 04  9  3 15 11 45.0000000  0  7G11G14G15G 1G19G22G25
  -4055881.01149  -3158461.43045  22509224.2194   22509219.1374
      2130.3444
   2151617.77849   1668058.57847  20594486.9844   20594481.8404
     -1659.0624
   5830033.40648   4520178.92344  22381455.5944   22381452.4574
     -3719.5624
  -3194245.17847  -2473837.70843  23368938.7584   23368936.8554
      2702.9694
   3542326.28348   2752323.16844  23052495.9774   23052490.3554
     -2495.8594
   3786065.83049   2937988.91346  22218472.2974   22218466.6564
     -2326.0004
  -4879519.07048  -3798247.54844  22624393.4384   22624390.5824
      2733.4694
 04  9  3 15 12  0.0000000  0  7G11G14G15G 1G19G22G25
  -4087791.32949  -3183326.61145  22503151.3134   22503146.7664
      2124.2504
   2176551.45649   1687487.41447  20599231.7584   20599226.5664
     -1665.5314
   5885863.89248   4563683.16244  22392079.7344   22392076.7194
     -3724.5474
  -3234761.81547  -2505409.07843  23361228.9384   23361226.7344
      2699.1884
   3579808.91148   2781530.37644  23059628.3364   23059623.3324
     -2501.8594
   3820977.38149   2965192.70546  22225115.9064   22225110.5354
     -2328.9374
  -4920489.70648  -3830172.69744  22616597.0634   22616593.5864
      2729.1884
 04  9  3 15 12 15.0000000  0  7G11G14G15G 1G19G22G25
  -4119614.00649  -3208123.49945  22497095.5164   22497091.0664
      2118.6094
   2201577.95049   1706988.56947  20603993.9454   20603989.4774
     -1671.5004
   5941764.46748   4607242.02544  22402716.9614   22402714.5234
     -3728.9694
  -3275224.34647  -2536938.33843  23353529.1414   23353526.7034
      2695.6414
   3617377.89548   2810804.89844  23066778.2814   23066772.4614
     -2507.4694
   3855928.94449   2992427.66646  22231766.9924   22231761.2894
     -2331.3594
  -4961399.95348  -3862050.79344  22608811.8134   22608808.8244
      2725.3594
 04  9  3 15 12 30.0000000  0  7G11G14G15G 1G19G22G25
  -4151350.18149  -3232852.96745  22491056.5234   22491052.0004
      2112.9224
   2226695.55049   1726560.72347  20608773.4694   20608768.9574
     -1677.4534
   5997733.42148   4650854.15944  22413367.4454   22413364.6604
     -3733.5624
  -3315634.21246  -2568426.53943  23345839.5314   23345837.1454
      2692.3134
   3655031.25648   2840145.16444  23073942.3914   23073937.4804
     -2512.9844
   3890919.15949   3019692.74746  22238425.4774   22238419.7544
     -2333.8914
  -5002250.97548  -3893882.73045  22601038.5084   22601034.9804
      2721.4534
 04  9  3 15 12 45.0000000  0  7G11G14G15G 1G19G22G25
  -4182999.17949  -3257514.53045  22485033.9224   22485029.4454
      2107.2194
   2251904.26549   1746203.86547  20613570.6414   20613565.9304
     -1683.3914
   6053770.78947   4694519.61844  22424031.3524   22424028.0354
     -3737.8914
  -3355990.78447  -2599873.20343  23338159.6724   23338157.4844
      2688.8754
   3692769.18048   2869551.30844  23081124.2034   23081118.8554
     -2518.4694
   3925948.38449   3046988.23946  22245091.0784   22245085.6524
     -2336.4534
  -5043041.85648  -3925667.80744  22593275.9304   22593273.4144
      2717.6094
 04  9  3 15 13  0.0000000  0  7G11G14G15G 1G19G22G25
  -4214562.25249  -3282109.12345  22479027.8674   22479023.3554
      2101.3134
   2277202.55149   1765916.81347  20618384.9774   20618380.2814
     -1689.4694
   6109874.91448   4738237.08044  22434708.0944   22434704.7114
     -3742.5474
  -3396295.38347  -2631279.38043  23330489.9924   23330487.8634
      2685.3284
   3730589.81248   2899021.92244  23088320.9614   23088315.7074
     -2524.0474
   3961015.17749   3074312.98646  22251764.0004   22251758.8984
     -2339.0624
  -5083773.82048  -3957407.00144  22585524.6724   22585521.7814
      2713.4694
 04  9  3 15 13 15.0000000  0  7G11G14G15G 1G19G22G25
  -4246038.50649  -3306636.08045  22473038.2424   22473032.9734
      2095.4844
   2302590.81749   1785699.86247  20623216.3204   20623211.2974
     -1695.5474
   6166046.27448   4782006.94544  22445396.5004   22445393.7424
     -3747.0784
  -3436547.14646  -2662644.38743  23322831.0004   23322827.3404
      2681.6724
   3768493.54448   2928557.27644  23095533.4534   23095529.1374
     -2529.7664
   3996120.19049   3101667.52246  22258444.4774   22258439.1914
     -2341.6254
  -5124445.83448  -3989099.45745  22577785.5394   22577782.1134
      2709.3754
 04  9  3 15 13 30.0000000  0  7G11G14G15G 1G19G22G25
  -4277428.10649  -3331095.50845  22467064.5634   22467059.4734
      2089.7974
   2328068.19149   1805552.35647  20628064.2814   20628059.6484
     -1701.3754
   6222283.94048   4825828.46644  22456098.6334   22456095.4454
     -3751.3284
  -3476746.63746  -2693968.67342  23315180.9454   23315177.7774
      2678.3284
   3806479.35348   2958156.57544  23102762.3284   23102757.4534
     -2535.0164
   4031262.70149   3129051.26646  22265131.8594   22265126.3554
     -2344.0784
  -5165058.25748  -4020745.48944  22570057.3524   22570053.5554
      2705.5634
 04  9  3 15 13 45.0000000  0  7G11G14G15G 1G19G22G25
  -4308730.83449  -3355487.24945  22461108.0634   22461103.4654
      2084.0314
   2353634.42549   1825474.08247  20632929.2114   20632924.7544
     -1707.2974
   6278587.60248   4869701.41444  22466812.3984   22466810.3484
     -3755.6874
  -3516893.78046  -2725252.14942  23307541.1564   23307537.5554
      2674.8444
   3844546.77848   2987819.47044  23110006.3284   23110000.9414
     -2540.4844
   4066442.62048   3156464.17246  22271826.5234   22271821.0004
     -2346.5624
  -5205610.84848  -4052344.89445  22562340.1414   22562336.9184
      2701.5944
 04  9  3 15 14  0.0000000  0  7G11G14G15G 1G19G22G25
  -4339947.32949  -3379811.78745  22455167.5704   22455163.1094
      2078.0784
   2379288.53049   1845464.29147  20637811.2664   20637806.5234
     -1713.3444
   6334956.30348   4913625.05644  22477539.4454   22477536.4964
     -3760.2034
  -3556989.10345  -2756495.26943  23299911.4614   23299908.1454
      2671.0784
   3882694.89748   3017545.27044  23117266.3914   23117260.4384
     -2546.0624
   4101659.41049   3183905.80846  22278528.3134   22278523.2344
     -2349.1414
  -5246103.73348  -4083897.76444  22554633.9534   22554630.8674
      2697.3444
 04  9  3 15 14 15.0000000  0  7G11G14G15G 1G19G22G25
  -4371077.17549  -3404068.81845  22449243.6254   22449238.9494
      2072.4844
   2405030.43449   1865522.90647  20642709.8054   20642705.3834
     -1718.9374
   6391389.76148   4957599.14344  22488277.9304   22488275.4774
     -3764.2344
  -3597032.40246  -2787697.82443  23292290.7894   23292287.9614
      2667.9224
   3920923.31848   3047333.62044  23124540.1334   23124534.9454
     -2551.1094
   4136913.00049   3211376.11546  22285236.7734   22285231.6374
     -2351.3594
  -5286536.69047  -4115403.95044  22546940.1884   22546937.2974
      2693.6254
 04  9  3 15 14 30.0000000  0  7G11G14G15G 1G19G22G25
  -4402120.79349  -3428258.65745  22443336.2114   22443331.7704
      2066.9384
   2430859.24549   1885649.24447  20647624.8914   20647619.6294
     -1724.5944
   6447887.08948   5001623.00144  22499029.2974   22499026.5634
     -3768.3444
  -3637024.19846  -2818860.24243  23284681.2664   23284678.3244
      2664.6884
   3959231.01548   3077183.75544  23131830.0314   23131824.5554
     -2556.2344
   4172202.65449   3238874.52646  22291952.1094   22291946.5204
     -2353.5944
  -5326909.99947  -4146863.66744  22539257.2034   22539254.8364
      2689.7814
 04  9  3 15 14 45.0000000  0  7G11G14G15G 1G19G22G25
  -4433077.25649  -3452380.58445  22437445.5314   22437440.9304
      2060.8914
   2456775.32549   1905843.58447  20652556.1334   20652551.5864
     -1730.5944
   6504448.63148   5045696.90744  22509792.8204   22509790.0664
     -3772.8594
  -3676963.80446  -2849982.00242  23277080.3834   23277078.2934
      2660.9534
   3997618.19348   3107095.81844  23139134.7344   23139129.7704
     -2561.7974
   4207529.09449   3266401.60446  22298674.5314   22298669.5664
     -2356.2664
  -5367222.80647  -4178276.21245  22531586.1484   22531583.1094
      2685.4384
 04  9  3 15 15  0.0000000  0  7G11G14G15G 1G19G22G25
  -4463944.33349  -3476432.85545  22431571.6954   22431566.9304
      2054.7504
   2482780.33149   1926107.20947  20657505.0314   20657500.0744
     -1736.7194
   6561076.16248   5089822.22144  22520568.8914   22520566.4534
     -3777.5314
  -3716849.12346  -2881061.46443  23269491.0314   23269488.0044
      2657.0004
   4036086.52448   3137071.11844  23146455.5474   23146450.2704
     -2567.3914
   4242894.26348   3293958.84946  22305404.2734   22305399.1254
     -2359.1254
  -5407472.84648  -4209639.87445  22523926.9144   22523923.9654
      2681.1094
 04  9  3 15 15 15.0000000  0  7G11G14G15G 1G19G22G25
  -4494719.61049  -3500413.59245  22425715.4534   22425710.5984
      2048.5944
   2508876.07049   1946441.54447  20662471.0784   20662466.0784
     -1742.7814
   6617771.35947   5134000.26844  22531357.2734   22531355.1134
     -3782.0944
  -3756678.03846  -2912096.96943  23261911.7424   23261908.9534
      2653.3594
   4074637.65448   3167110.93344  23153791.9774   23153787.0984
     -2572.9374
   4278300.11449   3321547.80646  22312141.6644   22312136.7504
     -2361.8284
  -5447657.67248  -4240952.70145  22516280.0314   22516277.3134
      2676.7194
 04  9  3 15 15 30.0000000  0  7G11G14G15G 1G19G22G25
  -4525405.39349  -3524324.59045  22419876.0084   22419871.3284
      2042.9534
   2535059.82049   1966844.46047  20667453.6094   20667448.8244
     -1748.3124
   6674531.45148   5178228.88844  22542158.0084   22542155.4884
     -3785.9374
  -3796452.82447  -2943090.31843  23254343.3054   23254340.1524
      2650.0004
   4113268.72148   3197213.03644  23161143.0554   23161138.0434
     -2577.8914
   4313744.10749   3349166.48546  22318886.5634   22318881.7344
     -2363.9694
  -5487779.30548  -4272216.30145  22508645.0164   22508642.2424
      2672.9224
 04  9  3 15 15 45.0000000  0  7G11G14G15G 1G19G22G25
  -4556001.54149  -3548165.73145  22414053.6254   22414049.1764
      2036.6884
   2561331.22749   1987315.68147  20672452.6174   20672447.9304
     -1754.4534
   6731356.02348   5222507.73244  22552971.8754   22552968.9024
     -3790.5004
  -3836173.63347  -2974041.54943  23246784.0554   23246781.5234
      2646.2504
   4151979.10948   3227376.95844  23168509.0474   23168503.3834
     -2583.3914
   4349226.04949   3376814.72846  22325638.6644   22325633.4304
     -2366.7664
  -5527837.78648  -4303430.68145  22501022.5164   22501019.5514
      2668.4224
 04  9  3 15 16  0.0000000  0  7G11G14G15G 1G19G22G25
  -4586506.91749  -3571936.15845  22408248.7194   22408244.4774
      2030.8754
   2587691.00349   2007855.76547  20677468.8134   20677464.1024
     -1759.9224
   6788245.73247   5266837.35744  22563797.6644   22563794.5084
     -3794.5624
  -3875839.33947  -3004949.90043  23239236.0084   23239233.4774
      2642.8134
   4190769.55848   3257603.28544  23175890.1564   23175885.4264
     -2588.4694
   4384747.11749   3404493.46146  22332398.2424   22332393.2504
     -2369.1254
  -5567831.78648  -4334594.81245  22493411.3834   22493408.5784
      2664.3754
 04  9  3 15 16 15.0000000  0  7G11G14G15G 1G19G22G25
  -4616927.03749  -3595640.13545  22402459.8284   22402455.4844
      2025.0634
   2614133.19049   2028460.05447  20682500.7974   20682495.4964
     -1765.5784
   6845194.66048   5311213.10044  22574634.4064   22574631.8164
     -3798.6564
  -3915455.51447  -3035819.62343  23231697.5944   23231695.0124
      2639.3594
   4229633.92248   3287887.15544  23183286.6094   23183281.2304
     -2593.4694
   4420301.35248   3432198.03746  22339163.8364   22339158.4454
     -2371.4694
  -5607766.63048  -4365712.85345  22485812.3364   22485809.1054
      2660.2974
 04  9  3 15 16 30.0000000  0  7G11G14G15G 1G19G22G25
  -4647256.96149  -3619273.85645  22396688.8674   22396683.6024
      2018.8594
   2640661.90049   2049131.76147  20687548.8284   20687544.1884
     -1771.5944
   6902206.90948   5355638.19644  22585484.0704   22585480.9734
     -3802.9844
  -3955017.61347  -3066647.22443  23224168.7894   23224165.9224
      2635.6094
   4268576.29148   3318231.83744  23190696.2034   23190691.4654
     -2598.9064
   4455893.26149   3459931.98146  22345936.6024   22345931.6564
     -2374.1254
  -5647637.61048  -4396781.12345  22478225.2974   22478222.0004
      2655.8754
 04  9  3 15 16 45.0000000  0  7G11G14G15G 1G19G22G25
  -4677496.67849  -3642837.26845  22390934.4454   22390929.5394
      2012.9384
   2667276.74549   2069870.60147  20692613.3984   20692609.1804
     -1777.2034
   6959282.15448   5400112.38244  22596344.9924   22596342.3914
     -3807.1254
  -3994525.58747  -3097432.63943  23216650.8594   23216647.8094
      2632.0474
   4307596.19248   3348636.93644  23198122.0234   23198116.2274
     -2603.9224
   4491522.66049   3487695.13046  22352716.8984   22352711.4104
     -2376.5784
  -5687444.46348  -4427799.43245  22470650.0234   22470647.1524
      2651.5944
 04  9  3 15 17  0.0000000  0  7G11G14G15G 1G19G22G25
  -4707644.82249  -3666329.32745  22385197.1024   22385192.3324
      2006.9694
   2693978.62649   2090677.24647  20697694.8754   20697689.9344
     -1782.8444
   7016421.07948   5444636.17644  22607218.0634   22607215.6174
     -3811.2194
  -4033978.32748  -3128175.01043  23209143.0394   23209140.7034
      2628.4844
   4346694.21648   3379102.90844  23205562.1644   23205556.4064
     -2608.9534
   4527190.54449   3515488.26146  22359504.0474   22359498.8244
     -2378.9844
  -5727185.81948  -4458766.70145  22463087.2584   22463084.0944
      2647.4064
 04  9  3 15 17 15.0000000  0  7G11G14G15G 1G19G22G25
  -4737701.40849  -3689750.05145  22379477.6724   22379472.4534
      2000.5634
   2720767.10549   2111551.37247  20702792.3834   20702787.4534
     -1788.8444
   7073623.20548   5489209.22444  22618103.3284   22618101.1094
     -3815.6414
  -4073375.90247  -3158874.40443  23201646.3054   23201643.9144
      2624.5004
   4385869.96348   3409629.43044  23213017.7194   23213011.9384
     -2614.4694
   4562896.70249   3543311.21446  22366298.8524   22366293.5864
     -2381.7504
  -5766861.56948  -4489682.86545  22455537.1644   22455534.4024
      2642.8134
 04  9  3 15 17 30.0000000  0  7G11G14G15G 1G19G22G25
  -4767667.32549  -3713100.11645  22373775.1804   22373770.3204
      1994.8444
   2747640.70949   2132491.83147  20707906.3674   20707901.7854
     -1794.1724
   7130887.08048   5533830.40644  22629000.3984   22628998.4024
     -3819.4064
  -4112719.46047  -3189531.71843  23194159.2894   23194156.2584
      2621.2504
   4425121.63148   3440215.14444  23220486.0944   23220480.8134
     -2619.1094
   4598639.87648   3571163.02246  22373100.3594   22373095.0124
     -2383.9064
  -5806472.70148  -4520548.65445  22447999.2664   22447996.3754
      2638.8444
 04  9  3 15 17 45.0000000  0  7G11G14G15G 1G19G22G25
  -4797545.93049  -3736382.14145  22368089.7034   22368084.6884
      1988.8134
   2774595.63949   2153495.66847  20713035.5864   20713030.8364
     -1800.0004
   7188208.84348   5578496.66744  22639908.7664   22639905.9534
     -3823.5624
  -4152012.43948  -3220149.58743  23186681.5944   23186678.4884
      2617.5784
   4464445.23748   3470856.89544  23227968.7034   23227963.9614
     -2624.2034
   4634416.47549   3599040.87346  22379908.7274   22379903.5904
     -2386.4064
  -5846022.38848  -4551366.57645  22440473.7814   22440470.3954
      2634.3134
 04  9  3 15 18  0.0000000  0  7G11G14G15G 1G19G22G25
  -4827333.96849  -3759593.61245  22362421.0944   22362416.3404
      1982.9064
   2801634.57349   2174564.96047  20718180.9304   20718176.4774
     -1805.2814
   7245591.03248   5623210.03344  22650828.0234   22650825.6524
     -3827.4224
  -4191251.70048  -3250725.63243  23179214.8204   23179212.1954
      2614.2664
   4503843.46648   3501556.78843  23235466.4924   23235461.2384
     -2628.9224
   4670229.41549   3626947.03846  22386723.6334   22386718.3364
     -2388.6254
  -5885507.48648  -4582134.15845  22432959.6414   22432956.9184
      2630.3134
 04  9  3 15 18 15.0000000  0  7G11G14G15G 1G19G22G25
  -4857031.23349  -3782734.33845  22356769.9454   22356764.9024
      1976.8754
   2828757.22049   2195699.47947  20723342.0004   20723337.7814
     -1810.8914
   7303033.42448   5667970.29844  22661759.3134   22661756.2114
     -3831.4224
  -4230437.14948  -3281259.74543  23171758.0704   23171755.5274
      2610.5944
   4543315.92848   3532314.51543  23242977.5784   23242972.7154
     -2633.8914
   4706078.72949   3654881.54846  22393545.6564   22393540.2074
     -2391.1254
  -5924927.58248  -4612851.10245  22425458.0704   22425455.1564
      2625.8444
 04  9  3 15 18 30.0000000  0  7G11G14G15G 1G19G22G25
  -4886637.90549  -3805804.47445  22351135.7894   22351130.8244
      1970.6254
   2855962.98949   2216898.76547  20728519.4924   20728514.8094
     -1816.6254
   7360535.36148   5712776.97844  22672701.2114   22672698.2854
     -3835.6414
  -4269569.12548  -3311752.15843  23164311.4614   23164309.0864
      2606.9064
   4582861.79848   3563129.47243  23250502.7194   23250499.0744
     -2639.0624
   4741963.99649   3682844.07246  22400374.4924   22400368.8364
     -2393.7504
  -5964282.87448  -4643517.53845  22417968.9844   22417966.0204
      2621.3754
 04  9  3 15 18 45.0000000  0  7G11G14G15G 1G19G22G25
  -4916152.03149  -3828802.49145  22345519.6414   22345514.6134
      1964.6094
   2883253.23949   2238163.88847  20733712.5944   20733707.7504
     -1822.0784
   7418098.08848   5757631.01244  22683655.2344   22683652.3794
     -3839.4224
  -4308645.91147  -3342201.61243  23156875.7894   23156873.3714
      2603.2344
   4622482.30447   3594002.56843  23258042.5554   23258038.5124
     -2643.7664
   4777886.70549   3710835.78446  22407209.9534   22407204.9924
     -2396.0164
  -6003571.29148  -4674131.86645  22410493.2584   22410489.5594
      2617.0634
 04  9  3 15 19  0.0000000  0  7G11G14G15G 1G19G22G25
  -4945573.11749  -3851728.02345  22339921.2664   22339916.0354
      1958.1414
   2910628.04249   2259494.89447  20738921.6954   20738917.5944
     -1827.9064
   7475721.70348   5802532.50644  22694620.0944   22694617.8834
     -3843.7814
  -4347667.11848  -3372607.72843  23149450.2584   23149447.6724
      2599.4844
   4662177.29747   3624933.69243  23265596.2504   23265591.5514
     -2648.9694
   4813847.16849   3738856.90146  22414053.0784   22414047.6724
     -2398.7814
  -6042792.35748  -4704693.71945  22403029.3444   22403026.4534
      2612.3594
 04  9  3 15 19 15.0000000  0  7G11G14G15G 1G19G22G25
  -4974902.30849  -3874581.93845  22334339.4144   22334334.6454
      1951.8914
   2938085.57549   2280890.36147  20744146.6954   20744142.5234
     -1833.5164
   7533404.49948   5847480.10044  22705597.0944   22705594.4184
     -3847.8124
  -4386633.98848  -3402971.49043  23142034.3914   23142032.3984
      2595.7194
   4701945.15047   3655921.62243  23273164.1024   23273159.0514
     -2654.0314
   4849844.03249   3766906.38746  22420902.9224   22420897.3914
     -2401.3594
  -6081947.09249  -4735203.89445  22395578.6254   22395575.0784
      2607.7974
 04  9  3 15 19 30.0000000  0  7G11G14G15G 1G19G22G25
  -5004139.43949  -3897364.11645  22328775.9064   22328771.6454
      1945.9694
   2965625.50749   2302350.04347  20749387.5084   20749383.3404
     -1838.8594
   7591146.06648   5892473.49744  22716585.1334   22716582.0274
     -3851.5314
  -4425546.57248  -3433292.97543  23134630.7344   23134627.7544
      2592.1414
   4741785.28447   3686965.84843  23280744.8834   23280740.3984
     -2658.5474
   4885876.98449   3794983.99446  22427759.9384   22427754.4024
     -2403.5164
  -6121035.38648  -4765662.27145  22388140.0234   22388136.8554
      2603.5474
 04  9  3 15 19 45.0000000  0  7G11G14G15G 1G19G22G25
  -5033285.16449  -3920075.07445  22323229.8364   22323225.2504
      1940.0004
   2993246.73549   2323873.05247  20754643.5474   20754639.1724
     -1844.1414
   7648945.20748   5937511.75344  22727583.9224   22727580.5594
     -3855.1254
  -4464405.72948  -3463572.84243  23127235.0554   23127232.6024
      2588.8134
   4781696.35447   3718065.35343  23288340.0084   23288335.2734
     -2663.0164
   4921945.18749   3823089.06046  22434623.9694   22434618.4964
     -2405.6874
  -6160057.71648  -4796069.26945  22380714.0314   22380711.1054
      2599.3134
 04  9  3 15 20  0.0000000  0  7G11G14G15G 1G19G22G25
  -5062338.26549  -3942713.85645  22317701.1094   22317696.4804
      1933.6094
   3020950.02749   2345460.03547  20759915.0864   20759910.8134
     -1849.8284
   7706802.65848   5982595.44644  22738593.1804   22738590.6374
     -3859.2504
  -4503210.30748  -3493810.17543  23119851.4694   23119848.2034
      2585.0164
   4821679.08548   3749220.69843  23295948.6884   23295943.5704
     -2668.1094
   4958049.59949   3851222.34446  22441493.6334   22441488.6564
     -2408.3124
  -6199012.80148  -4826423.87545  22373302.0704   22373298.3914
      2594.5314
 04  9  3 15 20 15.0000000  0  7G11G14G15G 1G19G22G25
  -5091297.10749  -3965279.19145  22312190.7194   22312185.5944
      1927.1564
   3048736.66649   2367111.94947  20765202.7274   20765198.2974
     -1855.5474
   7764719.70348   6027725.58444  22749615.4144   22749612.3594
     -3863.4374
  -4541958.53748  -3524003.58944  23112477.5704   23112474.8554
      2581.0784
   4861734.63647   3780432.78543  23303570.9144   23303565.7304
     -2673.1094
   4994191.83149   3879385.11046  22448371.5704   22448366.2344
     -2410.9694
  -6237898.67249  -4856724.52945  22365901.6094   22365898.0664
      2589.7504
 04  9  3 15 20 30.0000000  0  7G11G14G15G 1G19G22G25
  -5120162.47549  -3987771.69245  22306697.6724   22306693.4224
      1921.3134
   3076605.15749   2388827.63547  20770506.2584   20770501.5664
     -1860.5474
   7822694.76948   6072900.91644  22760647.3674   22760644.6414
     -3866.8284
  -4580651.63748  -3554154.04544  23105113.8984   23105111.6844
      2577.8444
   4901861.25747   3811700.27043  23311206.6954   23311202.1804
     -2677.3754
   5030370.58149   3907576.31446  22455256.3754   22455250.6604
     -2413.0004
  -6276716.32249  -4886972.03445  22358515.1644   22358511.7584
      2585.6254
 04  9  3 15 20 45.0000000  0  7G11G14G15G 1G19G22G25
  -5148935.42249  -4010192.16046  22301222.3674   22301218.2194
      1915.0784
   3104553.89549   2410605.87547  20775824.5314   20775819.6524
     -1865.9224
   7880726.26548   6118120.24044  22771690.6804   22771688.1254
     -3870.5784
  -4619290.81048  -3584262.46743  23097762.2034   23097759.9494
      2574.0944
   4942057.39048   3843021.89943  23318856.0554   23318851.2154
     -2682.0784
   5066584.34449   3935794.82246  22462147.6484   22462142.2154
     -2415.4694
  -6315466.87949  -4917167.26145  22351141.2504   22351137.5904
      2581.0634
 04  9  3 15 21  0.0000000  0  7G11G14G15G 1G19G22G25
  -5177616.01949  -4032540.66846  22295764.5084   22295760.6374
      1909.1724
   3132582.47249   2432446.30947  20781158.1644   20781153.4774
     -1871.0624
   7938813.59148   6163383.05444  22782743.8674   22782741.4694
     -3874.1564
  -4657876.20948  -3614329.03143  23090419.6484   23090416.0944
      2570.7504
   4982322.30148   3874397.11943  23326518.8364   23326513.4694
     -2686.4374
   5102832.95349   3964040.46946  22469045.5084   22469039.6214
     -2417.5474
  -6354150.31249  -4947310.16845  22343780.0164   22343776.7774
      2576.8284
 04  9  3 15 21 15.0000000  0  7G11G14G15G 1G19G22G25
  -5206204.45349  -4054817.36545  22290324.1564   22290319.7664
      1902.9844
   3160690.14849   2454348.38247  20786507.0004   20786502.6134
     -1876.3594
   7996956.03848   6208688.82644  22793808.0234   22793805.6804
     -3877.9374
  -4696408.11448  -3644353.84944  23083086.8054   23083084.2384
      2567.1564
   5022655.32647   3905825.45244  23334193.8054   23334188.9454
     -2690.9374
   5139116.01649   3992312.96346  22475950.1884   22475944.6134
     -2419.8444
  -6392766.65049  -4977400.81745  22336431.2274   22336427.5984
      2572.2974
 04  9  3 15 21 30.0000000  0  7G11G14G15G 1G19G22G25
  -5234695.89949  -4077018.50345  22284902.8594   22284898.2194
      1896.1724
   3188881.14049   2476315.37747  20791871.4064   20791866.8054
     -1882.1874
   8055157.81848   6254040.81444  22804883.3364   22804881.4924
     -3882.2194
  -4734882.02448  -3674333.50444  23075765.5704   23075762.4734
      2563.0164
   5063060.42548   3937309.90044  23341882.3284   23341877.7544
     -2696.1414
   5175437.88749   4020615.69546  22482861.9384   22482856.1994
     -2422.7974
  -6431311.13048  -5007435.47245  22329096.7734   22329092.9774
      2567.1884
 04  9  3 15 21 45.0000000  0  7G11G14G15G 1G19G22G25
  -5263093.43649  -4099146.46145  22279498.7344   22279494.1564
      1889.9844
   3217151.82649   2498344.46647  20797251.4384   20797246.8404
     -1887.4534
   8113415.28248   6299436.21144  22815969.4064   22815967.4224
     -3885.8124
  -4773301.09848  -3704270.44843  23068454.5634   23068451.4804
      2559.3914
   5103533.84248   3968847.58944  23349584.4924   23349579.2234
     -2700.5784
   5211795.13349   4048945.99146  22489780.4384   22489774.9774
     -2425.0784
  -6469786.74949  -5037416.46045  22321774.9614   22321771.2854
      2562.6254
 04  9  3 15 22  0.0000000  0  7G11G14G15G 1G19G22G25
  -5291396.21749  -4121200.57445  22274112.7194   22274107.9414
      1883.6724
   3245502.79349   2520436.11347  20802646.1724   20802641.8874
     -1892.7194
   8171728.91348   6344875.36044  22827065.9224   22827064.0474
     -3889.4534
  -4811664.54548  -3734164.05044  23061153.9694   23061151.2424
      2555.7034
   5144075.94948   4000438.82144  23357299.5314   23357294.5554
     -2705.0624
   5248188.64749   4077304.55546  22496706.0084   22496700.1684
     -2427.4224
  -6508192.37649  -5067342.90345  22314466.7194   22314462.8954
      2558.0784
 04  9  3 15 22 15.0000000  0  7G11G14G15G 1G19G22G25
  -5319605.75649  -4143182.04145  22268744.6804   22268740.0124
      1877.4224
   3273931.90749   2542588.66347  20808056.1954   20808051.4614
     -1898.0164
   8230096.51748   6390356.57344  22838173.1024   22838170.7074
     -3893.1094
  -4849974.06948  -3764015.59444  23053863.8594   23053861.1804
      2552.0164
   5184684.51448   4032081.83044  23365026.7974   23365021.5744
     -2709.6414
   5284616.45249   4105689.82746  22503638.0314   22503632.2384
     -2429.7344
  -6546529.57749  -5097216.04345  22307171.4454   22307168.1644
      2553.4694
 04  9  3 15 22 30.0000000  0  7G11G14G15G 1G19G22G25
  -5347720.92249  -4165089.95545  22263394.2814   22263390.1764
      1871.2974
   3302439.70549   2564802.52347  20813481.2034   20813476.7304
     -1903.0474
   8288518.59048   6435880.21944  22849290.8284   22849288.0434
     -3896.5314
  -4888228.89048  -3793824.54744  23046584.7274   23046581.6134
      2548.5784
   5225359.93548   4063776.93843  23372766.6094   23372761.4884
     -2713.8754
   5321079.33248   4134102.45646  22510576.6094   22510571.0354
     -2431.9534
  -6584797.34248  -5127035.05545  22299888.9924   22299885.7544
      2548.9384
 04  9  3 15 22 45.0000000  0  7G11G14G15G 1G19G22G25
  -5375742.50849  -4186924.96445  22258062.0004   22258057.8244
      1864.7504
   3331024.98349   2587076.75547  20818920.7504   20818916.2664
     -1908.3914
   8346993.91448   6481445.37344  22860417.7584   22860415.7624
     -3900.3754
  -4926429.78648  -3823591.45844  23039314.9694   23039312.1024
      2544.7504
   5266100.86648   4095523.09944  23380519.7974   23380514.5084
     -2718.4224
   5357576.25348   4162541.59045  22517521.7114   22517516.5274
     -2434.4844
  -6622996.36948  -5156800.52945  22292619.8914   22292617.0354
      2544.1884
 04  9  3 15 23  0.0000000  0  7G11G14G15G 1G19G22G25
  -5403668.02949  -4208685.11645  22252748.2504   22252743.4844
      1858.7974
   3359689.81149   2609412.98147  20824375.4534   20824371.1764
     -1913.4064
   8405524.47048   6527053.56744  22871555.7114   22871553.9184
     -3903.6094
  -4964574.38548  -3853314.53344  23032056.6254   23032053.4574
      2541.3754
   5306909.29748   4127321.83543  23388285.1094   23388280.0234
     -2722.5474
   5394109.56548   4191009.09446  22524473.7664   22524468.4384
     -2436.5164
  -6661123.91848  -5186510.29045  22285365.1334   22285361.4454
      2539.6254
 04  9  3 15 23 15.0000000  0  7G11G14G15G 1G19G22G25
  -5431498.39249  -4230371.11345  22247451.9614   22247447.5944
      1851.9384
   3388432.70449   2631810.02647  20829845.2504   20829840.5004
     -1918.9694
   8464108.89248   6572703.73744  22882703.8594   22882702.1524
     -3907.6254
  -5002663.69048  -3882994.50344  23024808.0554   23024805.3054
      2537.2664
   5347783.67048   4159171.98243  23396063.1254   23396058.2974
     -2727.3914
   5430678.13749   4219504.06346  22531432.7344   22531427.2624
     -2439.2814
  -6699180.72748  -5216164.92945  22278122.9304   22278119.1484
      2534.5314
 04  9  3 15 23 30.0000000  0  7G11G14G15G 1G19G22G25
  -5459232.19749  -4251981.87145  22242174.6174   22242169.9304
      1845.7664
   3417254.38349   2654268.46547  20835329.7344   20835325.0084
     -1923.9694
   8522747.81547   6618396.38444  22893862.8054   22893860.7734
     -3911.0164
  -5040696.63548  -3912630.53544  23017570.8914   23017567.8874
      2533.6414
   5388724.59247   4191073.98944  23403854.3834   23403849.4144
     -2731.5784
   5467282.84048   4248027.21246  22538397.9454   22538393.4384
     -2441.4374
  -6737165.59648  -5245763.51845  22270894.4454   22270891.1484
      2529.9694
 04  9  3 15 23 45.0000000  0  7G11G14G15G 1G19G22G25
  -5486868.23549  -4273516.45345  22236915.5634   22236910.7974
      1838.8284
   3446155.78749   2676789.02747  20840829.6334   20840824.7274
     -1929.6564
   8581442.05847   6664132.10844  22905032.2274   22905030.0704
     -3915.0474
  -5078672.03248  -3942221.75444  23010343.9224   23010341.0704
      2529.5314
   5429732.75748   4223028.35843  23411658.0004   23411652.6214
     -2736.3754
   5503924.84848   4276579.37546  22545370.7114   22545365.9924
     -2444.3284
  -6775077.18248  -5275305.01545  22263680.0864   22263676.4384
      2524.7194
 04  9  3 15 24  0.0000000  0  7G11G14G15G 1G19G22G25
  -5514405.48249  -4294974.05345  22231675.6414   22231670.6724
      1832.7814
   3475137.58849   2699372.24047  20846344.5314   20846340.0084
     -1934.4694
   8640192.17948   6709911.38744  22916212.3914   22916210.0004
     -3918.2814
  -5116588.86248  -3971767.33044  23003128.6414   23003125.8954
      2526.0944
   5470808.65047   4255035.51043  23419474.4694   23419469.7504
     -2740.2974
   5540604.89148   4305161.22546  22552351.0394   22552345.5744
     -2446.3444
  -6812914.28548  -5304788.45945  22256480.0944   22256476.4304
      2520.2344
 04  9  3 15 24 15.0000000  0  7G11G14G15G 1G19G22G25
  -5541846.25149  -4316356.47845  22226453.8754   22226449.3594
      1825.9534
   3504196.59149   2722015.61047  20851874.0164   20851869.5004
     -1940.0314
   8698995.20948   6755731.89244  22927401.7504   22927400.3094
     -3922.1724
  -5154449.91247  -4001269.42444  22995923.8284   22995921.2154
      2522.0634
   5511949.02748   4287092.92143  23427303.3834   23427298.6094
     -2744.9844
   5577320.22548   4333770.54846  22559337.5004   22559332.1024
     -2449.0784
  -6850679.43848  -5334215.83945  22249293.2974   22249290.3794
      2515.1564
 04  9  3 15 24 30.0000000  0  7G11G14G15G 1G19G22G25
  -5569189.33649  -4337662.77045  22221250.8054   22221245.6884
      1819.4534
   3533333.67149   2744719.81847  20857418.8674   20857414.1254
     -1945.2504
   8757851.80147   6801594.13944  22938602.5704   22938600.1294
     -3925.6414
  -5192253.98148  -4030727.14244  22988730.1804   22988727.1134
      2518.1564
   5553154.59848   4319201.14743  23435144.2034   23435140.1564
     -2749.4224
   5614071.92848   4362408.22645  22566331.3364   22566325.8524
     -2451.5164
  -6888371.32248  -5363586.12145  22242121.2664   22242117.8094
      2510.1724
 04  9  3 15 24 45.0000000  0  7G11G14G15G 1G19G22G25
  -5596431.55349  -4358890.47645  22216066.5634   22216061.8834
      1812.9534
   3562551.51049   2767486.95247  20862978.7814   20862974.3164
     -1950.3754
   8816764.67747   6847500.23944  22949813.1254   22949810.1724
     -3929.2034
  -5229998.02548  -4060138.07944  22981547.5164   22981544.5984
      2514.4064
   5594427.98348   4351362.18043  23442998.7814   23442993.4694
     -2753.5314
   5650862.77448   4391076.38045  22573332.2734   22573326.9804
     -2453.8594
  -6925986.65448  -5392896.76045  22234962.5944   22234959.2504
      2505.3914
 04  9  3 15 25  0.0000000  0  7G11G14G15G 1G19G22G25
  -5623575.65149  -4380041.72045  22210901.5704   22210896.3634
      1806.0944
   3591846.89249   2790314.51247  20868553.3674   20868548.7074
     -1955.8444
   8875730.46848   6893447.57244  22961033.7194   22961031.2234
     -3933.0784
  -5267684.94348  -4089504.50344  22974375.8834   22974373.0354
      2510.2814
   5635765.69548   4383573.35743  23450864.8204   23450859.9104
     -2758.2344
   5687689.75848   4419772.71045  22580340.2734   22580334.8714
     -2456.6414
  -6963527.98348  -5422149.73645  22227819.2734   22227815.7034
      2500.0314
 04  9  3 15 25 15.0000000  0  7G11G14G15G 1G19G22G25
  -5650622.40249  -4401117.12445  22205754.5164   22205750.0084
      1799.7194
   3621218.61449   2813201.55547  20874142.8054   20874138.1764
     -1960.7344
   8934747.97847   6939435.19144  22972264.1644   22972261.7384
     -3936.3914
  -5305315.51548  -4118827.01444  22967215.7424   22967212.6954
      2506.6724
   5677166.35248   4415833.58843  23458743.5314   23458738.8834
     -2762.2344
   5724551.96348   4448496.49045  22587355.2734   22587349.5084
     -2458.7974
  -7000996.14248  -5451345.69945  22220689.1174   22220685.6804
      2495.3284
 04  9  3 15 25 30.0000000  0  7G11G14G15G 1G19G22G25
  -5677570.03449  -4422115.26945  22200626.5944   22200621.8244
      1793.1724
   3650667.92349   2836149.05247  20879747.0234   20879742.1724
     -1965.8754
   8993818.38747   6985464.05943  22983505.4224   22983503.1024
     -3939.7974
  -5342888.14948  -4148104.37644  22960065.7584   22960062.7344
      2502.8914
   5718631.18448   4448143.80943  23466634.0704   23466629.0634
     -2766.4694
   5761450.86248   4477248.85146  22594376.5704   22594370.8834
     -2461.1874
  -7038389.28448  -5480483.19445  22213573.2274   22213570.0474
      2490.3134
 04  9  3 15 25 45.0000000  0  7G11G14G15G 1G19G22G25
  -5704417.88949  -4443035.67745  22195517.4534   22195512.7814
      1786.5944
   3680195.03749   2859157.18547  20885365.5164   20885361.0704
     -1971.0624
   9052941.86647   7031534.25044  22994756.4384   22994753.6564
     -3943.2974
  -5380402.34547  -4177336.21844  22952926.2814   22952924.0394
      2499.0164
   5760160.16348   4480504.02643  23474536.2274   23474531.1684
     -2770.7504
   5798386.77048   4506030.06046  22601405.3204   22601399.5594
     -2463.6254
  -7075706.61648  -5509561.63445  22206471.5784   22206468.5474
      2485.3284
 04  9  3 15 26  0.0000000  0  7G11G14G15G 1G19G22G25
  -5731168.44249  -4463880.26445  22190426.8754   22190422.2664
      1779.8134
   3709796.78649   2882223.47047  20890998.7814   20890993.5004
     -1976.2034
   9112115.25948   7077643.35244  23006016.5864   23006014.4804
     -3946.7814
  -5417860.83447  -4206524.64044  22945798.6884   22945796.0004
      2495.0784
   5801750.09048   4512911.73644  23482451.2584   23482445.9024
     -2774.9694
   5835356.86748   4534837.91545  22608440.5314   22608434.6804
     -2466.1724
  -7112950.60248  -5538582.90945  22199384.3674   22199381.2934
      2480.2034
 04  9  3 15 26 15.0000000  0  7G11G14G15G 1G19G22G25
  -5757819.82249  -4484647.57045  22185355.3364   22185350.8444
      1773.3444
   3739474.66049   2905349.07447  20896646.4064   20896640.9774
     -1981.1414
   9171339.95647   7123792.42344  23017286.6644   23017284.0164
     -3950.1254
  -5455261.86448  -4235668.29544  22938681.4844   22938678.8014
      2491.3284
   5843402.22848   4545367.92943  23490376.8134   23490372.1524
     -2778.9694
   5872362.91848   4563673.77745  22615482.1724   22615477.2704
     -2468.3284
  -7150119.27848  -5567545.49745  22192311.7504   22192308.2074
      2475.3284
 04  9  3 15 26 30.0000000  0  7G11G14G15G 1G19G22G25
  -5784369.37649  -4505335.53845  22180303.0084   22180298.4224
      1766.4844
   3769230.65849   2928535.56147  20902308.5864   20902303.6954
     -1986.4224
   9230617.91447   7169983.00444  23028566.7734   23028564.4614
     -3953.7034
  -5492603.05448  -4264765.28944  22931575.4694   22931572.8324
      2487.3594
   5885118.57547   4577874.13543  23498315.6024   23498310.0044
     -2783.3914
   5909407.19648   4592539.42245  22622531.9774   22622526.2664
     -2470.9844
  -7187210.12648  -5596447.45145  22185253.6484   22185250.2854
      2470.0164
 04  9  3 15 26 45.0000000  0  7G11G14G15G 1G19G22G25
  -5810816.69249  -4525943.84746  22175270.2664   22175265.3404
      1759.8284
   3799064.93049   2951783.03147  20907985.8914   20907981.0044
     -1991.5314
   9289949.22147   7216215.13344  23039857.5394   23039854.5474
     -3957.1564
  -5529883.89348  -4293815.30344  22924481.4454   22924478.0984
      2483.4064
   5926898.95348   4610430.26243  23506266.4534   23506260.8794
     -2787.3754
   5946489.94448   4621435.05246  22629588.4774   22629582.7074
     -2473.4694
  -7224222.51048  -5625288.26845  22178210.6804   22178207.2074
      2464.9064
 04  9  3 15 27  0.0000000  0  7G11G14G15G 1G19G22G25
  -5837163.36749  -4546473.72346  22170256.8914   22170252.2344
      1752.7504
   3828975.30349   2975089.80547  20913677.6254   20913673.1254
     -1996.9224
   9349331.66048   7262487.14344  23051157.2274   23051154.8134
     -3960.7974
  -5567106.16248  -4322819.66444  22917398.3204   22917395.4144
      2479.2344
   5968741.17448   4643034.56443  23514228.5234   23514223.7774
     -2791.8124
   5983609.22848   4650359.16345  22636651.8754   22636646.7154
     -2476.0784
  -7261157.98049  -5654069.13246  22171182.0784   22171178.8714
      2459.5004
 04  9  3 15 27 15.0000000  0  7G11G14G15G 1G19G22G25
  -5863408.07649  -4566924.14446  22165262.7034   22165258.0704
      1746.2194
   3858962.60949   2998456.53247  20919384.1564   20919379.8094
     -2001.6874
   9408765.98548   7308799.55544  23062467.7734   23062465.2664
     -3963.9844
  -5604268.70648  -4351777.47944  22910326.4694   22910323.5594
      2475.5634
   6010645.89347   4675687.55343  23522201.7034   23522197.9414
     -2795.7344
   6020766.15948   4679312.58846  22643722.7114   22643717.6564
     -2478.4064
  -7298015.16148  -5682788.99545  22164168.6724   22164164.9654
      2454.6254
 04  9  3 15 27 30.0000000  0  7G11G14G15G 1G19G22G25
  -5889552.80949  -4587296.66446  22160287.4454   22160282.6564
      1739.4534
   3889024.33949   3021881.23547  20925104.6484   20925100.0204
     -2006.8284
   9468249.68948   7355150.45544  23073786.6414   23073784.7034
     -3967.4844
  -5641373.67848  -4380690.44144  22903265.0084   22903262.5164
      2471.6254
   6052610.48247   4708387.19743  23530187.8054   23530183.7234
     -2799.7974
   6057958.44349   4708293.56646  22650800.2034   22650795.3054
     -2480.8284
  -7334795.96449  -5711449.35245  22157168.7344   22157165.6454
      2449.2504
 04  9  3 15 27 45.0000000  0  7G11G14G15G 1G19G22G25
  -5915594.13449  -4607588.60746  22155331.6334   22155327.5084
      1732.5314
   3919163.40249   3045366.20647  20930840.1564   20930835.4534
     -2011.9534
   9527785.66948   7401542.09444  23085116.0704   23085113.6914
     -3970.9844
  -5678417.89548  -4409556.05244  22896216.1414   22896213.3984
      2467.4534
   6094637.79247   4741135.72043  23538185.4304   23538181.1454
     -2804.0624
   6095189.12049   4737304.46045  22657885.1174   22657879.8364
     -2483.4224
  -7371496.96149  -5740047.52045  22150184.7274   22150181.7034
      2444.0314
 04  9  3 15 28  0.0000000  0  7G11G14G15G 1G19G22G25
  -5941532.39149  -4627800.23445  22150396.1254   22150391.4654
      1726.0944
   3949379.11149   3068910.90747  20936589.8914   20936585.2154
     -2016.6094
   9587373.23548   7447973.93644  23096455.5554   23096453.5514
     -3973.9224
  -5715401.70848  -4438374.57344  22889178.6644   22889175.4964
      2463.8444
   6136726.86548   4773932.37243  23546195.7894   23546190.3834
     -2807.6564
   6132457.85049   4766345.00046  22664977.2974   22664972.2274
     -2485.5314
  -7408118.23149  -5768583.56046  22143216.1484   22143212.9534
      2439.0944
 04  9  3 15 28 15.0000000  0  7G11G14G15G 1G19G22G25
  -5967373.36049  -4647936.05646  22145478.5474   22145473.9454
      1719.3914
   3979665.24949   3092510.48247  20942353.0704   20942347.9414
     -2021.5164
   9647006.00547   7494440.99144  23107802.8914   23107800.8324
     -3977.1414
  -5752331.01648  -4467150.65344  22882151.2344   22882147.9534
      2460.1094
   6178871.28048   4806772.15243  23554214.7034   23554210.2774
     -2811.4844
   6169758.50248   4795410.43146  22672075.2194   22672070.0394
     -2487.8124
  -7444665.45249  -5797061.91145  22136261.6954   22136258.1604
      2433.9844
 04  9  3 15 28 30.0000000  0  7G11G14G15G 1G19G22G25
  -5993112.47349  -4667992.51846  22140580.8984   22140576.1884
      1712.6254
   4010025.62649   3116167.91547  20948130.3914   20948125.9654
     -2026.3444
   9706687.90648   7540946.32643  23119159.8594   23119157.8444
     -3980.2034
  -5789201.58848  -4495880.96444  22875134.6484   22875132.0204
      2456.2814
   6221074.95548   4839658.10243  23562245.8914   23562241.5124
     -2815.4374
   6207095.30149   4824504.00846  22679180.4534   22679175.0044
     -2490.1094
  -7481134.29949  -5825479.17446  22129321.9064   22129318.0904
      2428.7974
 04  9  3 15 28 45.0000000  0  7G11G14G15G 1G19G22G25
  -6018749.98049  -4687969.79346  22135702.2734   22135697.3524
      1705.7974
   4040459.67949   3139882.75247  20953921.6804   20953917.1884
     -2031.3124
   9766418.25548   7587489.40343  23130526.2344   23130524.5554
     -3983.6254
  -5826013.69648  -4524565.71844  22868129.5634   22868126.6524
      2452.1564
   6263336.95848   4872589.51143  23570288.4614   23570283.3984
     -2819.4064
   6244467.82649   4853625.43445  22686291.9384   22686286.8134
     -2492.6724
  -7517524.88149  -5853835.45546  22122396.3134   22122393.5124
      2423.4694
 04  9  3 15 29  0.0000000  0  7G11G14G15G 1G19G22G25
  -6044284.06549  -4707866.48346  22130843.2344   22130838.4264
      1698.8284
   4070968.81349   3163656.08847  20959727.5004   20959722.8524
     -2036.5314
   9826198.39647   7634071.29043  23141902.4534   23141900.4494
     -3987.0004
  -5862765.51647  -4553203.49044  22861136.1174   22861132.7624
      2448.1254
   6305658.54448   4905567.34543  23578341.6644   23578336.8244
     -2823.4534
   6281877.76049   4882776.01045  22693410.6564   22693405.5704
     -2495.2664
  -7553835.16848  -5882129.17846  22115486.9924   22115483.4774
      2418.0004
 04  9  3 15 29 15.0000000  0  7G11G14G15G 1G19G22G25
  -6069715.40149  -4727683.11546  22126003.5864   22125999.2114
      1692.0634
   4101551.70249   3187486.90447  20965547.1644   20965542.6564
     -2041.2974
   9886026.94647   7680690.89343  23153287.1564   23153285.3054
     -3990.1724
  -5899458.02747  -4581795.03544  22854153.4144   22854150.7974
      2444.3134
   6348038.43447   4938590.60943  23586406.4454   23586401.7894
     -2827.1724
   6319323.99849   4911954.88345  22700536.5634   22700531.0554
     -2497.6254
  -7590065.94648  -5910360.94646  22108592.1484   22108588.8754
      2412.8134
 04  9  3 15 29 30.0000000  0  7G11G14G15G 1G19G22G25
  -6095044.56249  -4747420.13446  22121183.9064   22121178.9924
      1685.0004
   4132207.27149   3211374.35047  20971381.0234   20971376.0354
     -2046.2194
   9945902.70448   7727347.30443  23164681.2814   23164679.1484
     -3993.3914
  -5936092.03547  -4610341.00344  22847182.8364   22847179.6254
      2440.2344
   6390475.26547   4971658.23643  23594482.3914   23594477.4804
     -2831.1094
   6356805.55449   4941161.26445  22707669.2584   22707663.9844
     -2500.1094
  -7626217.73048  -5938531.15745  22101713.1724   22101709.2274
      2407.3754
 04  9  3 15 29 45.0000000  0  7G11G14G15G 1G19G22G25
  -6120271.57949  -4767077.54346  22116382.9224   22116378.5004
      1678.5004
   4162935.11549   3235318.11947  20977228.2814   20977224.0004
     -2050.7974
  10005825.31548   7774040.19143  23176084.1644   23176081.8794
     -3996.2194
  -5972667.58447  -4638841.42444  22840221.9224   22840219.4144
      2436.6094
   6432968.47847   5004769.81243  23602568.4384   23602563.7074
     -2834.5944
   6394322.29549   4970395.07445  22714807.8674   22714802.9694
     -2502.0784
  -7662290.50248  -5966639.79846  22094848.8914   22094845.1454
      2402.2974
 04  9  3 15 30  0.0000000  0  7G11G14G15G 1G19G22G25
  -6145395.05149  -4786654.27946  22111602.1254   22111597.7154
      1671.5634
   4193736.16849   3259318.92147  20983089.5554   20983084.8634
     -2055.6724
  10065795.65147   7820770.28843  23187496.1414   23187494.2114
     -3999.4064
  -6009183.41647  -4667295.32244  22833273.8984   22833270.5864
      2432.4384
   6475518.86847   5037925.92643  23610664.9694   23610660.3204
     -2838.4374
   6431875.39649   4999657.18745  22721954.3054   22721949.1094
     -2504.6254
  -7698282.57848  -5994685.56846  22087999.2344   22087995.5744
      2396.9224
 04  9  3 15 30 15.0000000  0  7G11G14G15G 1G19G22G25
  -6170416.26749  -4806151.33446  22106841.1254   22106836.5474
      1664.6564
   4224608.54649   3283375.30947  20988964.4064   20988959.6374
     -2060.4694
  10125811.73548   7867536.02243  23198916.7814   23198914.4844
     -4002.5944
  -6045641.17547  -4695703.95044  22826336.1484   22826333.4064
      2428.6414
   6518124.44047   5071125.05543  23618773.0164   23618767.8164
     -2842.1094
   6469463.09949   5028946.29845  22729107.2664   22729102.1994
     -2506.9844
  -7734195.34048  -6022669.53146  22081165.7584   22081161.6604
      2391.5944
 04  9  3 15 30 30.0000000  0  7G11G14G15G 1G19G22G25
  -6195334.24349  -4825567.94446  22102099.5234   22102094.6024
      1657.7814
   4255552.73949   3307487.66347  20994852.6884   20994847.9654
     -2065.3754
  10185874.00548   7914337.76143  23210345.8754   23210344.5004
     -4005.7194
  -6082039.94548  -4724066.62044  22819409.4224   22819406.2624
      2424.5474
   6560785.48047   5104367.41443  23626890.9844   23626886.6484
     -2845.9534
   6507086.29449   5058263.04445  22736266.4694   22736261.3874
     -2509.3914
  -7770027.76548  -6050590.88746  22074346.9454   22074343.4064
      2386.1414
 04  9  3 15 30 45.0000000  0  7G11G14G15G 1G19G22G25
  -6220147.63549  -4844903.05846  22097377.5234   22097373.0234
      1650.6254
   4286569.69449   3331656.70347  21000754.8204   21000750.1374
     -2070.3284
  10245983.38547   7961176.17943  23221784.6254   23221782.6994
     -4008.9534
  -6118378.40248  -4752382.29644  22812494.3134   22812491.2274
      2420.4384
   6603502.92847   5137653.69142  23635020.3284   23635015.4654
     -2849.7814
   6544746.13349   5087608.34345  22743433.3754   22743428.2154
     -2512.0004
  -7805778.50049  -6078448.59046  22067544.0004   22067540.1174
      2380.6254
 04  9  3 15 31  0.0000000  0  7G11G14G15G 1G19G22G25
  -6244856.22749  -4864156.51446  22092675.5944   22092670.8094
      1643.2504
   4317659.15649   3355882.25247  21006671.1564   21006666.2464
     -2075.5784
  10306139.53547   8008051.05543  23233232.3284   23233230.1454
     -4012.5314
  -6154656.45448  -4780650.90444  22805591.5084   22805588.2384
      2415.9844
   6646276.28247   5170983.55743  23643159.2664   23643154.8134
     -2853.9064
   6582442.51849   5116982.12845  22750606.6334   22750601.5204
     -2514.8754
  -7841447.07849  -6106242.29146  22060756.4774   22060752.7504
      2374.6254
 04  9  3 15 31 15.0000000  0  7G11G14G15G 1G19G22G25
  -6269459.83949  -4883328.15146  22087993.5784   22087988.8244
      1636.7194
   4348820.81449   3380164.05147  21012600.9924   21012596.2154
     -2079.7034
  10366342.17048   8054962.16543  23244688.5864   23244686.4844
     -4014.9374
  -6190874.09248  -4808872.42544  22798699.1174   22798696.1764
      2412.5314
   6689105.04348   5204356.59542  23651309.6414   23651304.3984
     -2857.0314
   6620175.37949   5146384.34045  22757787.1484   22757781.8984
     -2516.6724
  -7877033.29549  -6133971.78846  22053984.7584   22053980.8754
      2369.7504
 04  9  3 15 31 30.0000000  0  7G11G14G15G 1G19G22G25
  -6293960.14249  -4902419.29946  22083331.5314   22083326.5864
      1629.8594
   4380052.47849   3404500.41347  21018544.3054   21018539.8754
     -2084.4374
  10426589.06148   8101907.75843  23256153.0474   23256151.4694
     -4017.9374
  -6227033.18248  -4837048.33044  22791818.1414   22791815.2034
      2408.5944
   6731986.98447   5237771.08942  23659469.7114   23659464.4224
     -2860.5784
   6657942.86449   5175813.52645  22764973.8754   22764968.6254
     -2518.9694
  -7912538.84749  -6161638.45146  22047228.1804   22047224.0514
      2364.2814
 04  9  3 15 31 45.0000000  0  7G11G14G15G 1G19G22G25
  -6318356.80849  -4921429.70346  22078689.0704   22078683.6294
      1622.9224
   4411353.88249   3428891.09947  21024500.5704   21024495.9384
     -2089.1564
  10486879.87648   8148887.57043  23267626.5084   23267624.8594
     -4020.9064
  -6263133.59948  -4865178.53644  22784948.4924   22784945.6374
      2404.6564
   6774921.70847   5271226.67642  23667639.4144   23667635.0124
     -2864.1094
   6695744.82649   5205269.57545  22772167.1484   22772161.9734
     -2521.3914
  -7947963.50548  -6189242.06246  22040487.0314   22040483.0124
      2358.8444
 04  9  3 15 32  0.0000000  0  7G11G14G15G 1G19G22G25
  -6342649.55549  -4940359.11946  22074065.8444   22074061.8284
      1616.0004
   4442724.96849   3453336.10347  21030470.5234   21030466.2504
     -2093.7504
  10547214.55947   8195901.55643  23279107.4064   23279106.0004
     -4023.8124
  -6299175.13747  -4893262.84145  22778089.9534   22778087.2704
      2400.7814
   6817908.96247   5304723.21542  23675820.3834   23675815.3134
     -2867.6414
   6733581.48849   5234752.66545  22779367.2114   22779362.6844
     -2523.6254
  -7983306.78148  -6216782.26546  22033761.8204   22033757.8284
      2353.4534
 04  9  3 15 32 15.0000000  0  7G11G14G15G 1G19G22G25
  -6366835.58749  -4959205.37446  22069463.5474   22069459.1294
      1608.9534
   4474167.98749   3477837.13947  21036453.9534   21036449.6954
     -2098.4844
  10607595.26148   8242951.41243  23290597.4774   23290595.8984
     -4026.7974
  -6335155.08848  -4921299.16544  22771243.1724   22771240.0204
      2396.7034
   6860950.80547   5338262.26042  23684010.7114   23684005.6484
     -2871.1564
   6771455.40549   5264264.77945  22786574.4064   22786569.4264
     -2526.0474
  -8018565.74748  -6244256.78046  22027052.1174   22027048.2304
      2347.9384
 04  9  3 15 32 30.0000000  0  7G11G14G15G 1G19G22G25
  -6390915.49349  -4977968.93546  22064881.2194   22064877.0864
      1602.0164
   4505681.94249   3502393.45247  21042450.9384   21042446.8444
     -2103.0784
  10668020.93048   8290036.31843  23302095.9534   23302093.9144
     -4029.6874
  -6371074.26649  -4949288.11844  22764407.9144   22764405.1954
      2392.7814
   6904046.18747   5371843.05042  23692211.1954   23692205.7854
     -2874.5784
   6809365.57149   5293805.15345  22793788.4844   22793783.9384
     -2528.3124
  -8053740.94749  -6271666.01946  22020358.4534   22020354.6334
      2342.4224
 04  9  3 15 32 45.0000000  0  7G11G14G15G 1G19G22G25
  -6414887.68249  -4996648.56646  22060320.3914   22060315.0434
      1594.7194
   4537267.97349   3527005.92947  21048461.3984   21048456.9804
     -2107.9224
  10728492.58347   8337157.04043  23313603.3284   23313601.9224
     -4032.8124
  -6406931.30848  -4977228.66144  22757584.8364   22757581.7854
      2388.5004
   6947196.00747   5405466.27242  23700422.3834   23700417.3954
     -2878.3754
   6847313.32549   5323374.80345  22801009.7894   22801004.8674
     -2530.9534
  -8088830.82649  -6299008.76746  22013681.4614   22013677.1564
      2336.5784
 04  9  3 15 33  0.0000000  0  7G11G14G15G 1G19G22G25
  -6438756.00849  -5015247.25646  22055777.7814   22055772.8404
      1587.6724
   4568921.69549   3551671.16347  21054485.0084   21054480.2974
     -2112.5944
  10789005.72047   8384310.07743  23325118.0554   23325116.4804
     -4035.7034
  -6442730.18749  -5005123.87445  22750772.3444   22750769.4694
      2384.5784
   6990395.72447   5439128.36042  23708643.0864   23708638.4694
     -2881.7034
   6885294.62549   5352970.60045  22808237.2344   22808232.4774
     -2533.2974
  -8123839.13049  -6326287.96446  22007019.1564   22007015.5984
      2331.0944
 04  9  3 15 33 15.0000000  0  7G11G14G15G 1G19G22G25
  -6462517.07449  -5033762.38546  22051255.6884   22051250.6414
      1580.4534
   4600646.12349   3576391.48247  21060521.9614   21060517.4264
     -2117.3284
  10849563.45747   8431497.88743  23336642.2584   23336640.7424
     -4038.6564
  -6478467.44848  -5032971.08744  22743971.6644   22743969.0634
      2380.4844
   7033648.32647   5472831.62042  23716873.7894   23716869.0904
     -2885.2504
   6923312.80849   5382595.13445  22815471.7734   22815466.9884
     -2535.8284
  -8158762.28049  -6353500.79546  22000373.5234   22000369.7854
      2325.3754
 04  9  3 15 33 30.0000000  0  7G11G14G15G 1G19G22G25
  -6486173.41249  -5052195.90246  22046754.5864   22046749.3134
      1573.3444
   4632438.12249   3601164.45847  21066571.6024   21066567.0744
     -2121.9534
  10910162.62948   8478717.95943  23348174.1334   23348172.1914
     -4041.4694
  -6514145.86048  -5060772.44745  22737182.4844   22737179.6524
      2376.3754
   7076950.43847   5506573.51842  23725114.0474   23725109.0944
     -2888.6874
   6961365.00149   5412246.17245  22822713.0944   22822708.6334
     -2538.1874
  -8193602.69449  -6380649.16446  21993743.9454   21993739.9964
      2319.7194
 04  9  3 15 33 45.0000000  0  7G11G14G15G 1G19G22G25
  -6509722.53849  -5070545.87546  22042273.1954   22042267.8754
      1566.4384
   4664299.73249   3625991.68247  21072634.8284   21072630.4144
     -2126.3754
  10970805.15148   8525971.83743  23359713.8204   23359712.5784
     -4044.1874
  -6549763.15648  -5088526.16144  22730404.6564   22730401.5554
      2372.5314
   7120303.92247   5540355.43742  23733363.9224   23733359.1334
     -2891.8754
   6999453.31149   5441925.34145  22829961.3054   22829956.5904
     -2540.3284
  -8228358.06749  -6407731.26046  21987129.4924   21987126.4184
      2314.2344
 04  9  3 15 34  0.0000000  0  7G11G14G15G 1G19G22G25
  -6533165.02349  -5088812.74646  22037811.7424   22037807.1294
      1559.5784
   4696229.90549   3650872.32447  21078711.0474   21078706.8794
     -2130.6564
  11031489.98848   8573258.70043  23371261.6644   23371260.6884
     -4046.8124
  -6585320.03748  -5116232.80845  22723638.3134   22723635.5394
      2368.7034
   7163707.65146   5574176.50742  23741623.2274   23741618.4774
     -2894.7974
   7037576.91449   5471632.02745  22837215.9534   22837211.1914
     -2542.4694
  -8263028.78949  -6434747.39546  21980532.3204   21980528.5204
      2308.8444
 04  9  3 15 34 15.0000000  0  7G11G14G15G 1G19G22G25
  -6556501.22049  -5106996.80446  22033371.4694   22033366.6724
      1552.2034
   4728227.99849   3675805.89347  21084799.7034   21084795.5984
     -2135.4064
  11092216.28048   8620577.83543  23382817.7814   23382816.2114
     -4049.8284
  -6620816.91149  -5143892.70145  22716883.0554   22716880.7074
      2364.4224
   7207160.73647   5608036.00142  23749892.4774   23749887.5394
     -2898.5474
   7075735.29649   5501365.80945  22844477.0474   22844472.1884
     -2545.0474
  -8297615.18449  -6461697.83146  21973950.2504   21973946.9964
      2302.9224
 04  9  3 15 34 30.0000000  0  7G11G14G15G 1G19G22G25
  -6579727.74449  -5125095.40446  22028951.5004   22028946.8524
      1545.0004
   4760296.68249   3700794.46547  21090902.4694   21090898.1484
     -2140.0314
  11152986.81948   8667931.44943  23394382.5944   23394380.5514
     -4052.5784
  -6656250.60449  -5171503.38045  22710140.6884   22710137.9144
      2360.4064
   7250665.82146   5641936.06542  23758170.5704   23758165.5984
     -2901.7664
   7113931.56249   5531129.11345  22851745.7894   22851740.6454
     -2547.4534
  -8332113.79549  -6488579.85746  21967385.9534   21967381.8484
      2297.2194
 04  9  3 15 34 45.0000000  0  7G11G14G15G 1G19G22G25
  -6602847.01549  -5143110.41846  22024551.8524   22024547.1374
      1537.6884
   4792433.05049   3725835.78247  21097018.1024   21097013.5704
     -2144.6564
  11213798.68648   8715317.27143  23405954.7274   23405953.4414
     -4055.5004
  -6691623.72649  -5199066.84445  22703409.4694   22703406.1994
      2356.2034
   7294219.87046   5675874.25842  23766459.2344   23766453.9694
     -2905.2664
   7152162.97149   5560919.80045  22859020.9224   22859015.8754
     -2549.8594
  -8366527.00649  -6515395.34646  21960837.0394   21960832.9734
      2291.4224
 04  9  3 15 35  0.0000000  0  7G11G14G15G 1G19G22G25
  -6625857.13749  -5161040.38645  22020173.3914   22020168.5084
      1530.1724
   4824638.65449   3750931.03547  21103146.7194   21103141.7734
     -2149.5624
  11274653.26948   8762736.36243  23417535.1094   23417533.1054
     -4058.6094
  -6726934.52249  -5226581.75045  22696689.6024   22696686.7194
      2351.7664
   7337824.18146   5709851.61542  23774756.7734   23774752.4734
     -2908.8124
   7190431.19549   5590739.16545  22866303.1804   22866298.7234
     -2552.6414
  -8400852.83349  -6542142.74046  21954305.0784   21954301.0704
      2285.2664
 04  9  3 15 35 15.0000000  0  7G11G14G15G 1G19G22G25
  -6648759.57249  -5178886.43646  22015815.3834   22015810.1684
      1523.2034
   4856911.47949   3776078.69447  21109287.5864   21109283.5944
     -2153.7504
  11335548.47847   8810187.12643  23429122.6724   23429121.3674
     -4061.0164
  -6762184.53148  -5254049.28144  22689982.2974   22689978.7194
      2347.9694
   7381476.66146   5743866.50342  23783063.7194   23783059.4534
     -2911.6564
   7228734.59048   5620585.95545  22873592.1174   22873587.6764
     -2554.7344
  -8435092.72849  -6568823.16246  21947789.5164   21947785.7624
      2279.7814
 04  9  3 15 35 30.0000000  0  7G11G14G15G 1G19G22G25
  -6671552.79249  -5196647.40946  22011477.8054   22011472.7344
      1515.6884
   4889252.67249   3801279.60347  21115441.9144   21115437.3244
     -2158.5474
  11396485.48848   8857670.46743  23440718.4534   23440716.9534
     -4064.0474
  -6797372.35248  -5281468.35945  22683286.1174   22683283.1484
      2343.5164
   7425178.22446   5777919.60942  23791379.2274   23791375.7304
     -2915.3284
   7267074.48349   5650461.16845  22880888.2344   22880883.2854
     -2557.3914
  -8469245.04148  -6595435.35546  21941290.4384   21941286.2734
      2273.7344
 04  9  3 15 35 45.0000000  0  7G11G14G15G 1G19G22G25
  -6694236.05049  -5214322.67246  22007161.6804   22007156.4964
      1508.7194
   4921662.56649   3826534.05147  21121609.3594   21121605.0474
     -2162.7664
  11457464.52148   8905186.55943  23452322.1954   23452320.8324
     -4066.4844
  -6832497.33248  -5308838.46144  22676601.8914   22676598.8364
      2339.7504
   7468929.19346   5812011.22742  23799704.4614   23799701.0434
     -2918.2344
   7305451.36448   5680365.21045  22888191.0474   22888186.5204
     -2559.5314
  -8503308.90949  -6621978.60746  21934808.2274   21934804.3874
      2268.1414
 04  9  3 15 36  0.0000000  0  7G11G14G15G 1G19G22G25
  -6716810.36649  -5231913.04846  22002865.7814   22002861.0904
      1501.1254
   4954139.46649   3851840.71847  21127789.5864   21127784.9694
     -2167.5474
  11518483.84047   8952734.04143  23463933.8524   23463932.5394
     -4069.4374
  -6867560.81149  -5336160.64345  22669929.5704   22669926.7234
      2335.2974
   7512727.63846   5846139.90742  23808039.1884   23808035.8754
     -2921.5944
   7343863.81548   5710296.96145  22895500.6564   22895495.8324
     -2562.1724
  -8537285.43249  -6648453.81146  21928342.7504   21928339.1884
      2262.0474
 04  9  3 15 36 15.0000000  0  7G11G14G15G 1G19G22G25
  -6739274.55949  -5249417.60946  21998591.2504   21998586.7034
      1494.1414
   4986684.20849   3877200.24847  21133982.5864   21133978.1214
     -2171.7504
  11579544.27747   9000313.58143  23475553.3204   23475552.3054
     -4071.7814
  -6902561.58049  -5363433.96845  22663269.4144   22663266.6134
      2331.4534
   7556574.28646   5880306.11342  23816383.5944   23816379.3014
     -2924.4844
   7382312.91348   5740257.27945  22902817.3284   22902812.1134
     -2564.2664
  -8571173.22749  -6674859.87846  21921894.0004   21921890.6174
      2256.4224
 04  9  3 15 36 30.0000000  0  7G11G14G15G 1G19G22G25
  -6761628.16849  -5266836.01246  21994337.2894   21994332.5944
      1486.2034
   5019296.79749   3902612.63947  21140188.6564   21140184.2274
     -2176.6724
  11640645.65647   9047924.99642  23487180.6644   23487179.4804
     -4075.0784
  -6937499.41548  -5390658.25545  22656621.1724   22656617.8874
      2326.8134
   7600468.81546   5914509.57042  23824737.1094   23824732.4844
     -2928.1874
   7420798.74048   5770246.20245  22910140.9774   22910136.1414
     -2567.2344
  -8604971.91349  -6701196.51446  21915462.3204   21915458.6564
      2249.9224
 04  9  3 15 36 45.0000000  0  7G11G14G15G 1G19G22G25
  -6783871.19649  -5284168.23646  21990104.7894   21990100.0394
      1479.1884
   5051976.74649   3928077.52147  21146407.3984   21146402.9924
     -2180.9374
  11701787.50848   9095567.92643  23498815.5554   23498814.6174
     -4077.4694
  -6972374.41148  -5417833.56644  22649984.2584   22649981.4574
      2322.9384
   7644410.74946   5948750.00442  23833098.3204   23833094.4304
     -2931.0004
   7459321.15948   5800263.64045  22917471.3284   22917466.1844
     -2569.4224
  -8638681.30649  -6727463.56846  21909047.5634   21909044.1374
      2244.3594
 04  9  3 15 37  0.0000000  0  7G11G14G15G 1G19G22G25
  -6806005.77649  -5301415.96646  21985892.9534   21985887.9144
      1471.7974
   5084721.41949   3953592.83547  21152638.5164   21152633.9534
     -2185.2814
  11762967.08748   9143240.28143  23510457.6174   23510456.4144
     -4080.0314
  -7007188.90249  -5444961.72944  22643359.3364   22643356.3324
      2318.7814
   7688397.27246   5983025.22142  23841469.0314   23841465.1094
     -2934.0164
   7497877.75548   5830307.71545  22924808.3594   22924803.7704
     -2571.7194
  -8672303.66249  -6753662.79546  21902649.7974   21902645.8594
      2238.4064
 04  9  3 15 37 15.0000000  0  7G11G14G15G 1G19G22G25
  -6828029.45549  -5318577.27446  21981701.6414   21981696.8714
      1464.7034
   5117532.88749   3979160.20247  21158882.5394   21158877.6724
     -2189.4844
  11824186.39948   9190943.62842  23522107.3054   23522106.4924
     -4082.4694
  -7041940.55448  -5472040.93045  22636746.4304   22636743.9104
      2314.8754
   7732430.25346   6017336.57342  23849848.2274   23849843.8134
     -2936.8594
   7536470.79348   5860380.18745  22932152.5864   22932147.4454
     -2573.8754
  -8705836.36349  -6779792.16946  21896268.3524   21896264.7344
      2232.7194
 04  9  3 15 37 30.0000000  0  7G11G14G15G 1G19G22G25
  -6849942.29049  -5335652.21146  21977531.6024   21977526.8874
      1457.1414
   5150410.62349   4004779.20147  21165138.5944   21165134.2304
     -2194.0944
  11885444.96748   9238677.52143  23533764.0474   23533763.2074
     -4085.2344
  -7076629.48848  -5499071.27245  22630144.8364   22630142.4304
      2310.5164
   7776509.10346   6051683.69742  23858236.0634   23858231.8554
     -2940.1874
   7575099.98148   5890480.82445  22939503.6024   22939498.5664
     -2576.4694
  -8739279.30949  -6805851.61046  21889904.3984   21889900.5864
      2226.5314
 04  9  3 15 37 45.0000000  0  7G11G14G15G 1G19G22G25
  -6871743.60349  -5352640.25846  21973383.0864   21973378.2344
      1449.9064
   5183354.83449   4030449.99847  21171407.8594   21171402.9884
     -2198.3284
  11946742.98248   9286442.15243  23545429.3054   23545427.9104
     -4087.7344
  -7111255.23048  -5526052.36345  22623556.1024   22623553.0784
      2306.4384
   7820633.85046   6086066.61542  23866632.7814   23866628.0984
     -2943.0164
   7613765.72748   5920609.96745  22946861.4454   22946856.2114
     -2578.7814
  -8772631.79749  -6831840.54946  21883557.5164   21883554.0944
      2220.6564
 04  9  3 15 38  0.0000000  0  7G11G14G15G 1G19G22G25
  -6893435.05449  -5369542.67746  21969254.8984   21969250.3094
      1442.3754
   5216363.27749   4056170.86047  21177689.0474   21177684.7624
     -2202.8124
  12008078.06048   9334235.68943  23557101.3914   23557100.3054
     -4090.3754
  -7145819.75449  -5552985.73644  22616978.3594   22616975.5704
      2302.1414
   7864802.03946   6120483.34442  23875037.7664   23875032.9414
     -2946.0164
   7652465.95148   5950765.95745  22954225.5314   22954220.8014
     -2581.2504
  -8805895.58449  -6857760.38146  21877227.5084   21877223.8404
      2214.5474
 04  9  3 15 38 15.0000000  0  7G11G14G15G 1G19G22G25
  -6915014.53549  -5386357.86346  21965148.6414   21965144.1174
      1434.9694
   5249437.71549   4081943.13647  21183983.0554   21183978.6174
     -2207.1724
  12069451.97148   9382059.47643  23568780.2664   23568778.8134
     -4092.7664
  -7180320.84048  -5579869.70344  22610413.2894   22610410.0664
      2297.9694
   7909015.43146   6154935.27142  23883452.0784   23883446.7274
     -2949.0474
   7691202.75649   5980950.45245  22961597.4224   22961592.5044
     -2583.6414
  -8839068.38049  -6883609.31046  21870914.9694   21870911.4614
      2208.5004
 04  9  3 15 38 30.0000000  0  7G11G14G15G 1G19G22G25
  -6936480.84749  -5403084.85646  21961063.9064   21961059.3444
      1427.5784
   5282578.95049   4107767.46847  21190289.7814   21190284.8874
     -2211.3594
  12130865.39648   9429914.04743  23580466.5784   23580466.3674
     -4095.3124
  -7214757.46648  -5606703.43145  22603860.0234   22603857.2974
      2293.8284
   7953274.51746   6189422.82742  23891874.4844   23891868.9924
     -2951.7814
   7729977.07448   6011164.19245  22968975.6094   22968970.9384
     -2585.9064
  -8872148.79549  -6909386.24346  21864620.0554   21864616.5944
      2202.5634
 04  9  3 15 38 45.0000000  0  7G11G14G15G 1G19G22G25
  -6957835.11749  -5419724.55246  21957000.0784   21956995.4774
      1419.8284
   5315785.39849   4133642.60747  21196608.5944   21196604.0864
     -2215.9534
  12192316.65147   9477798.12143  23592160.3914   23592160.3754
     -4098.0164
  -7249130.89549  -5633487.92445  22597319.5164   22597316.3134
      2289.3754
   7997577.67247   6223944.73142  23900303.9224   23900299.3984
     -2955.0474
   7768787.55949   6041406.10445  22976361.2734   22976355.7894
     -2588.5624
  -8905137.92749  -6935092.06246  21858342.5634   21858338.6684
      2196.2504
 04  9  3 15 39  0.0000000  0  7G11G14G15G 1G19G22G25
  -6979077.97149  -5436277.43146  21952957.7814   21952953.0044
      1412.6414
   5349055.97349   4159567.71847  21202939.6414   21202934.8714
     -2219.9694
  12253804.58048   9525710.71643  23603861.4304   23603860.8794
     -4100.2814
  -7283441.89848  -5660223.74445  22590789.7504   22590787.2074
      2285.4534
   8041923.54947   6258499.92142  23908742.6024   23908738.1764
     -2957.5944
   7807633.31848   6071675.48745  22983753.1954   22983747.6294
     -2590.6414
  -8938036.47649  -6960727.28446  21852082.0944   21852078.4304
      2190.3754
 04  9  3 15 39 15.0000000  0  7G11G14G15G 1G19G22G25
  -7000210.54749  -5452744.38146  21948936.3834   21948931.5864
      1405.2034
   5382388.99049   4185541.48147  21209282.7664   21209278.4494
     -2224.2344
  12315327.43148   9573650.56543  23615569.2814   23615567.9064
     -4102.6254
  -7317691.78548  -5686911.96545  22584272.5944   22584269.7034
      2281.3594
   8086310.31946   6293087.02942  23917189.5944   23917184.6054
     -2960.4224
   7846512.91149   6101971.25145  22991151.8754   22991146.8984
     -2593.0624
  -8970845.46949  -6986292.74046  21845838.7974   21845835.1564
      2184.3134
 04  9  3 15 39 30.0000000  0  7G11G14G15G 1G19G22G25
  -7021231.64149  -5469124.45646  21944936.4224   21944931.2894
      1397.6724
   5415785.36649   4211564.61947  21215638.1724   21215633.2034
     -2228.5784
  12376886.13147   9621618.32743  23627283.6254   23627282.6024
     -4105.1724
  -7351879.32549  -5713551.59845  22577766.9384   22577764.2154
      2277.0004
   8130738.83746   6327706.61242  23925643.0634   23925639.3754
     -2963.3914
   7885427.49948   6132294.28445  22998556.8134   22998551.2774
     -2595.5004
  -9003563.35749  -7011787.18846  21839612.8204   21839609.0824
      2178.0634
 04  9  3 15 39 45.0000000  0  7G11G14G15G 1G19G22G25
  -7042139.36649  -5485416.20846  21940958.1884   21940953.4964
      1390.0164
   5449246.39349   4237638.13447  21222005.4694   21222001.2074
     -2232.9694
  12438481.93448   9669615.03043  23639005.0234   23639003.3754
     -4107.6414
  -7386002.94449  -5740141.43645  22571273.5084   22571270.4694
      2272.7504
   8175210.12446   6362359.52042  23934107.0164   23934102.5004
     -2966.2344
   7924378.56248   6162645.73644  23005969.1174   23005963.4804
     -2598.0314
  -9036188.47949  -7037209.36546  21833404.3364   21833400.5004
      2171.8284
 04  9  3 15 40  0.0000000  0  7G11G14G15G 1G19G22G25
  -7062933.73549  -5501619.60346  21937000.4064   21936995.9224
      1382.5784
   5482771.51149   4263761.58647  21228384.8594   21228380.6254
     -2237.0624
  12500114.29047   9717640.18043  23650733.0474   23650731.3984
     -4109.9064
  -7420062.85649  -5766681.61044  22564791.9694   22564788.9104
      2268.7034
   8219723.61546   6397045.34642  23942576.9384   23942573.5744
     -2968.8594
   7963365.83048   6193025.39345  23013387.7734   23013382.2854
     -2600.2194
  -9068720.85449  -7062559.26346  21827213.6884   21827209.9734
      2165.8134
 04  9  3 15 40 15.0000000  0  7G11G14G15G 1G19G22G25
  -7083617.81349  -5517737.07646  21933064.5474   21933059.9304
      1375.0944
   5516357.48149   4289932.45247  21234776.0554   21234771.5274
     -2241.2034
  12561779.77247   9765691.16742  23662468.3134   23662465.8984
     -4112.1724
  -7454061.96149  -5793174.41845  22558321.9454   22558318.8794
      2264.5004
   8264275.79646   6431761.26042  23951055.2424   23951051.3444
     -2971.5164
   8002386.28348   6223430.92845  23020813.6564   23020807.8834
     -2602.5474
  -9101163.17049  -7087838.98646  21821040.2424   21821036.4104
      2159.7034
 04  9  3 15 40 30.0000000  0  7G11G14G15G 1G19G22G25
  -7104187.20649  -5533765.16846  21929150.3834   21929145.3444
      1367.2034
   5550007.99249   4316153.62247  21241179.6644   21241175.1804
     -2245.8124
  12623482.03547   9813770.80743  23674209.2734   23674207.0704
     -4115.0314
  -7487996.32749  -5819616.76445  22551864.3524   22551861.4964
      2259.8284
   8308870.35047   6466510.26742  23959541.4694   23959536.6484
     -2974.7034
   8041443.75048   6253865.28645  23028246.1564   23028240.3554
     -2605.3444
  -9133511.33349  -7113045.33946  21814884.4614   21814880.5864
      2153.0784
 04  9  3 15 40 45.0000000  0  7G11G14G15G 1G19G22G25
  -7124641.18649  -5549703.33846  21925258.4534   21925253.1524
      1359.7814
   5583723.48449   4342425.41747  21247595.6644   21247590.7974
     -2249.8754
  12685221.42448   9861879.37743  23685958.5004   23685955.8524
     -4117.2034
  -7521865.26749  -5846008.14445  22545419.4694   22545416.4734
      2255.7814
   8353507.43147   6501292.37542  23968035.6024   23968030.3634
     -2977.1724
   8080538.90248   6284329.01745  23035685.6174   23035680.2424
     -2607.5314
  -9165764.41549  -7138177.60546  21808746.8444   21808743.3444
      2147.0314
 04  9  3 15 41  0.0000000  0  7G11G14G15G 1G19G22G25
  -7144983.19549  -5565554.25546  21921387.3364   21921382.3244
      1352.4694
   5617499.82349   4368744.62747  21254022.9694   21254018.4574
     -2253.6724
  12746993.89447   9910013.71342  23697712.8524   23697710.3754
     -4119.2194
  -7555672.42249  -5872351.37445  22538986.4924   22538983.3484
      2251.8594
   8398182.72447   6536104.21842  23976537.2424   23976532.3404
     -2979.5004
   8119667.87448   6314819.11045  23043131.5394   23043126.5984
     -2609.6724
  -9197925.98449  -7163238.56146  21802626.6414   21802623.2424
      2141.1564
 04  9  3 15 41 15.0000000  0  7G11G14G15G 1G19G22G25
  -7165211.56149  -5581316.62446  21917537.7814   21917532.9224
      1344.6414
   5651338.25149   4395112.23147  21260462.1724   21260457.7774
     -2258.0624
  12808800.45948   9958174.63343  23709474.3984   23709472.7274
     -4121.6094
  -7589416.31548  -5898645.30145  22532565.0864   22532561.5944
      2247.4384
   8442897.43246   6570946.84242  23985045.3444   23985041.2774
     -2982.2664
   8158832.06648   6345336.63945  23050584.3594   23050579.5944
     -2612.1724
  -9229994.21449  -7188226.78446  21796524.5864   21796520.6174
      2134.7194
 04  9  3 15 41 30.0000000  0  7G11G14G15G 1G19G22G25
  -7185327.18549  -5596991.14446  21913710.2114   21913705.5314
      1337.0944
   5685237.72449   4421527.37947  21266913.0164   21266908.8284
     -2262.1414
  12870640.08448  10006361.31142  23721242.5084   23721239.8094
     -4123.9374
  -7623097.65349  -5924890.50045  22526155.4924   22526152.5824
      2243.2194
   8487650.29547   6605819.15742  23993561.3674   23993557.0204
     -2984.9534
   8198030.70148   6375881.00345  23058043.2734   23058038.2934
     -2614.5624
  -9261969.66149  -7213142.73046  21790439.8364   21790435.9264
      2128.4224
 04  9  3 15 41 45.0000000  0  7G11G14G15G 1G19G22G25
  -7205327.92349  -5612576.13346  21909903.9774   21909899.7384
      1329.4534
   5719199.67449   4447991.22847  21273375.6644   21273371.4344
     -2266.3914
  12932514.13048  10054574.82443  23733016.7504   23733014.0044
     -4126.1254
  -7656714.77149  -5951085.65345  22519758.7814   22519755.6484
      2238.8914
   8532442.56547   6640722.21042  24002084.7814   24002081.5944
     -2987.6254
   8237265.41948   6406453.48045  23065509.8204   23065504.1454
     -2616.9844
  -9293850.39449  -7237984.84546  21784373.2274   21784369.2114
      2122.1094
 04  9  3 15 42  0.0000000  0  7G11G14G15G 1G19G22G25
  -7225212.05749  -5628070.25846  21906119.9534   21906115.3284
      1322.0314
   5753225.57849   4474504.90247  21279850.4144   21279846.3634
     -2270.2034
  12994424.01447  10102816.23143  23744797.5474   23744795.6294
     -4128.2194
  -7690265.87349  -5977229.35845  22513374.3674   22513371.3244
      2234.8444
   8577275.54146   6675656.98042  24010617.4064   24010612.8794
     -2989.9374
   8276537.86848   6437055.36745  23072983.1254   23072978.1764
     -2619.0164
  -9325634.56349  -7262751.73446  21778324.7584   21778320.7584
      2116.0474
 04  9  3 15 42 15.0000000  0  7G11G14G15G 1G19G22G25
  -7244982.02149  -5643475.42846  21902358.1644   21902353.7974
      1314.0004
   5787312.57149   4501066.18847  21286337.2814   21286333.0044
     -2274.6874
  13056366.82147  10151083.30742  23756584.4614   23756582.3874
     -4130.8284
  -7723753.54349  -6003323.64345  22507001.5394   22506998.9804
      2230.2194
   8622146.21147   6710621.06842  24019156.2584   24019152.0554
     -2992.7344
   8315845.42248   6467684.61045  23080462.8524   23080457.8794
     -2621.7974
  -9357324.50649  -7287445.19346  21772294.1804   21772290.7464
      2109.3284
 04  9  3 15 42 30.0000000  0  7G11G14G15G 1G19G22G25
  -7264635.97349  -5658790.18746  21898618.0634   21898613.3444
      1306.3594
   5821461.86049   4527676.01547  21292835.9694   21292831.2624
     -2278.7034
  13118343.68747  10199376.89443  23768378.8204   23768377.3554
     -4132.8444
  -7757176.14949  -6029367.21545  22500641.3054   22500638.8484
      2226.0004
   8667055.74347   6745615.48542  24027701.9144   24027697.9024
     -2995.2344
   8355189.54048   6498342.35345  23087949.5634   23087944.6644
     -2624.2034
  -9388918.41749  -7312063.81446  21766281.7664   21766278.3834
      2103.0164
 04  9  3 15 42 45.0000000  0  7G11G14G15G 1G19G22G25
  -7284175.41049  -5674015.73046  21894899.8834   21894895.2344
      1298.8754
   5855671.59049   4554332.93047  21299345.4924   21299341.4144
     -2282.6414
  13180352.74447  10247695.60243  23780178.3134   23780177.1684
     -4134.8754
  -7790535.35148  -6055361.39245  22494293.4454   22494290.6334
      2221.8914
   8712002.07747   6780638.57442  24036254.4064   24036250.7974
     -2997.5474
   8394568.58948   6529027.29344  23095443.2814   23095437.8094
     -2626.4224
  -9420417.57549  -7336608.60746  21760288.0164   21760284.6484
      2096.8134
 04  9  3 15 43  0.0000000  0  7G11G14G15G 1G19G22G25
  -7303598.98149  -5689150.98146  21891203.7114   21891199.2424
      1291.0314
   5889942.62249   4581037.61947  21305866.9454   21305862.6094
     -2286.7664
  13242394.89047  10296040.07543  23791985.2194   23791983.4964
     -4137.2344
  -7823829.91348  -6081305.20545  22487957.5944   22487954.0664
      2217.5004
   8756985.92847   6815690.87042  24044815.2274   24044811.4494
     -3000.1414
   8433983.58248   6559740.25345  23102944.0784   23102938.7734
     -2628.7974
  -9451820.57349  -7361078.48346  21754312.4384   21754308.5824
      2090.3284
 04  9  3 15 43 15.0000000  0  7G11G14G15G 1G19G22G25
  -7322906.84149  -5704196.07946  21887529.5554   21887524.4614
      1283.1564
   5924274.45549   4607789.68547  21312400.4454   21312396.0044
     -2291.0004
  13304469.41248  10344409.77042  23803797.3594   23803796.1094
     -4139.5004
  -7857060.06449  -6107198.81745  22481634.3134   22481631.0274
      2213.0474
   8802006.55447   6850771.85843  24053382.3204   24053377.7114
     -3002.6564
   8473434.24448   6590480.98244  23110451.4064   23110446.3874
     -2631.4374
  -9483127.56349  -7385473.53146  21748354.3364   21748351.2934
      2083.7664
 04  9  3 15 43 30.0000000  0  7G11G14G15G 1G19G22G25
  -7342098.41749  -5719150.56246  21883877.5314   21883872.7194
      1275.7034
   5958667.25849   4634589.25147  21318944.9844   21318940.7274
     -2294.7664
  13366576.38747  10392804.78142  23815615.4694   23815614.7034
     -4141.3754
  -7890225.30848  -6133041.85345  22475322.6484   22475319.9774
      2208.9534
   8847064.07047   6885881.60242  24061957.1724   24061951.6294
     -3004.9224
   8512920.98648   6621249.85745  23117964.8674   23117960.1884
     -2633.5164
  -9514337.78449  -7409793.18246  21742415.7034   21742412.3554
      2077.5474
 04  9  3 15 43 45.0000000  0  7G11G14G15G 1G19G22G25
  -7361175.55049  -5734015.85846  21880247.3134   21880242.4384
      1267.8444
   5993118.57249   4661434.41947  21325501.1414   21325496.3554
     -2298.8594
  13428713.47147  10441223.22342  23827440.0004   23827438.7504
     -4143.5624
  -7923327.75049  -6158835.95945  22469023.5634   22469020.5124
      2204.5634
   8892155.87047   6921018.02843  24070536.7734   24070532.6604
     -3007.4224
   8552441.69648   6652045.17545  23125486.0944   23125480.7664
     -2636.0474
  -9545453.03949  -7434038.82846  21736494.5704   21736491.1914
      2071.0634
 04  9  3 15 44  0.0000000  0  7G11G14G15G 1G19G22G25
  -7380134.89249  -5748789.37446  21876639.1094   21876634.5744
      1260.0784
   6027631.37249   4688327.50247  21332068.5314   21332064.1764
     -2302.8284
  13490883.45247  10489667.32743  23839269.9614   23839269.1294
     -4145.6254
  -7956364.13549  -6184578.58745  22462737.0704   22462733.8524
      2200.2814
   8937284.77447   6956183.38743  24079125.6254   24079120.9104
     -3009.7814
   8591999.47148   6682869.39344  23133013.6414   23133008.2584
     -2638.3124
  -9576469.97249  -7458207.86546  21730592.6174   21730588.5784
      2064.5944
 04  9  3 15 44 15.0000000  0  7G11G14G15G 1G19G22G25
  -7398974.70449  -5763469.74246  21873054.0314   21873049.5944
      1252.2814
   6062207.00049   4715269.54847  21338647.9534   21338644.0434
     -2306.8284
  13553087.57547  10538138.02042  23851107.0864   23851106.0784
     -4147.8594
  -7989332.86448  -6210268.49545  22456463.5234   22456460.3164
      2195.8754
   8982451.84747   6991378.46643  24087720.0634   24087715.7194
     -3012.0944
   8631595.83148   6713723.68645  23140548.3594   23140543.2424
     -2640.7344
  -9607386.87749  -7482298.95547  21724708.9384   21724705.6454
      2058.0784
 04  9  3 15 44 30.0000000  0  7G11G14G15G 1G19G22G25
  -7417699.81149  -5778060.74546  21869490.5004   21869486.2464
      1244.4534
   6096840.27349   4742256.49447  21345238.6724   21345234.4454
     -2310.9224
  13615320.54247  10586631.21942  23862950.6024   23862949.0664
     -4149.9374
  -8022238.87548  -6235909.53145  22450201.5784   22450198.5394
      2191.4844
   9027651.77347   7026599.16243  24096320.9304   24096316.9264
     -3014.4064
   8671225.69948   6744604.05345  23148089.4384   23148084.4344
     -2643.1724
  -9638208.41849  -7506315.74346  21718843.8984   21718840.2504
      2051.5004
 04  9  3 15 44 45.0000000  0  7G11G14G15G 1G19G22G25
  -7436305.58149  -5792558.74546  21865950.0554   21865945.7854
      1236.5164
   6131535.34349   4769291.59347  21351841.0704   21351836.7034
     -2314.9374
  13677586.43847  10635150.05242  23874798.5394   23874797.1374
     -4152.0784
  -8055077.75448  -6261498.26245  22443952.7504   22443950.1024
      2187.1564
   9072888.60647   7061848.60042  24104929.6094   24104924.9224
     -3016.9224
   8710893.52648   6775514.02744  23155638.3444   23155633.4184
     -2645.6564
  -9668929.94549  -7530254.58947  21712997.8754   21712994.3714
      2044.9384
 04  9  3 15 45  0.0000000  0  7G11G14G15G 1G19G22G25
  -7454793.62548  -5806965.02546  21862431.9694   21862427.6914
      1228.4064
   6166290.23749   4796373.31447  21358454.6334   21358450.1334
     -2319.2034
  13739883.23447  10683692.95342  23886653.7344   23886652.7584
     -4154.3444
  -8087851.06847  -6287035.91045  22437715.7114   22437713.2424
      2182.5474
   9118160.14747   7097125.09843  24113544.4304   24113539.4694
     -3019.4694
   8750597.46948   6806452.14744  23163193.9694   23163188.9574
     -2648.3284
  -9699552.93049  -7554116.64847  21707170.0004   21707166.9494
      2038.0784
 04  9  3 15 45 15.0000000  0  7G11G14G15G 1G19G22G25
  -7473163.23649  -5821279.01746  21858936.5864   21858931.9104
      1220.5634
   6201105.22349   4823501.87547  21365079.5634   21365075.1764
     -2323.0784
  13802211.17647  10732260.12242  23898514.5634   23898512.9734
     -4156.4224
  -8120558.29648  -6312522.04545  22431492.1094   22431489.2424
      2178.1724
   9163466.44747   7132428.71443  24122166.3984   24122161.4224
     -3021.6874
   8790338.04548   6837418.79844  23170755.8834   23170751.3444
     -2650.7034
  -9730076.64949  -7577901.35646  21701361.9384   21701358.4414
      2031.4534
 04  9  3 15 45 30.0000000  0  7G11G14G15G 1G19G22G25
  -7491415.09248  -5835501.23946  21855463.4844   21855458.7934
      1212.5474
   6235979.01949   4850676.24547  21371715.7664   21371711.0084
     -2327.2344
  13864568.94647  10780850.56742  23910380.5474   23910379.3204
     -4158.4694
  -8153200.29447  -6337957.37345  22425280.4064   22425277.3404
      2173.6254
   9208806.29946   7167758.40243  24130794.0394   24130789.1724
     -3024.1094
   8830114.31648   6868413.27144  23178325.6484   23178320.3484
     -2653.2974
  -9760501.72449  -7601609.20547  21695572.0944   21695568.8404
      2024.7194
 04  9  3 15 45 45.0000000  0  7G11G14G15G 1G19G22G25
  -7509545.87849  -5849629.13746  21852013.3524   21852008.6564
      1204.7034
   6270914.66849   4877898.81347  21378363.9774   21378359.5594
     -2331.0944
  13926959.66747  10829466.61842  23922254.0554   23922251.7464
     -4160.4694
  -8185773.74248  -6363339.27445  22419081.7974   22419078.6884
      2169.2974
   9254182.45646   7203116.43942  24139428.5554   24139423.3914
     -3026.2664
   8869929.53048   6899438.08445  23185901.9844   23185897.2934
     -2655.6254
  -9790824.70949  -7625237.50447  21689802.0394   21689798.6054
      2018.1414
 04  9  3 15 46  0.0000000  0  7G11G14G15G 1G19G22G25
  -7527557.23649  -5863663.96846  21848585.6414   21848580.8984
      1197.0164
   6305910.03049   4905167.91647  21385023.3284   21385018.8164
     -2334.6724
  13989380.87147  10878106.50242  23934131.1564   23934130.3444
     -4162.1254
  -8218280.64948  -6388669.31345  22412895.3914   22412892.8204
      2165.1884
   9299592.54046   7238500.86743  24148070.4144   24148065.9844
     -3028.1254
   8909781.64148   6930491.64845  23193485.7894   23193480.7734
     -2657.7344
  -9821047.34049  -7648787.59147  21684050.3914   21684047.4844
      2011.7664
 04  9  3 15 46 15.0000000  0  7G11G14G15G 1G19G22G25
  -7545452.79049  -5877608.54646  21845180.3594   21845175.8674
      1188.7504
   6340961.15449   4932480.46647  21391693.5314   21391689.2194
     -2338.9694
  14051828.65947  10926767.09242  23946015.0554   23946013.6414
     -4164.4224
  -8250724.56648  -6413950.28445  22406722.0004   22406719.4414
      2160.4534
   9345032.56146   7273908.64443  24156716.8984   24156712.7464
     -3030.7344
   8949666.93848   6961571.07045  23201075.8834   23201070.4414
     -2660.5474
  -9851173.00949  -7672262.13846  21678317.7974   21678314.2974
      2004.6884
 04  9  3 15 46 30.0000000  0  7G11G14G15G 1G19G22G25
  -7563227.84549  -5891459.24946  21841797.8834   21841792.8984
      1180.7034
   6376072.45249   4959839.90747  21398375.0394   21398370.7114
     -2343.0164
  14114307.32547  10975451.67642  23957904.3444   23957902.8674
     -4166.4694
  -8283100.81348  -6439178.53245  22400560.6884   22400558.0514
      2155.8914
   9390506.68146   7309343.00143  24165370.5394   24165365.6764
     -3033.0164
   8989590.03549   6992679.94144  23208672.4924   23208667.5434
     -2663.1254
  -9881196.81649  -7695657.31046  21672604.4844   21672600.8874
      1997.9064
 04  9  3 15 46 45.0000000  0  7G11G14G15G 1G19G22G25
  -7580881.44249  -5905215.29146  21838438.7664   21838434.2424
      1172.8594
   6411244.03349   4987246.32447  21405067.8444   21405063.3634
     -2346.7504
  14176817.17647  11024160.63042  23969798.4774   23969798.1174
     -4168.3284
  -8315408.82948  -6464353.59345  22394412.8524   22394410.0164
      2151.5944
   9436015.04347   7344804.03243  24174030.7974   24174026.1484
     -3035.0474
   9029551.35348   7023818.61944  23216277.3284   23216272.2384
     -2665.3754
  -9911117.98749  -7718972.49247  21666910.8984   21666906.7344
      1991.3284
 04  9  3 15 47  0.0000000  0  7G11G14G15G 1G19G22G25
  -7598416.16149  -5918878.72246  21835101.5634   21835096.8714
      1164.9224
   6446473.06749   5014697.50647  21411771.5164   21411766.9184
     -2350.5314
  14239355.01047  11072891.34242  23981700.8134   23981699.3594
     -4170.2034
  -8347651.29848  -6489477.58345  22388277.1414   22388274.3054
      2147.2974
   9481554.51446   7380289.28143  24182696.3914   24182691.7464
     -3037.0944
   9069548.15849   7054984.93144  23223887.9924   23223883.5864
     -2667.7034
  -9940939.05349  -7742209.68147  21661236.3524   21661232.3634
      1984.6724
 04  9  3 15 47 15.0000000  0  7G11G14G15G 1G19G22G25
  -7615830.82249  -5932448.59546  21831787.9304   21831783.2704
      1156.8754
   6481760.28649   5042194.02547  21418486.6884   21418481.5704
     -2354.5314
  14301921.61347  11121644.51042  23993606.5864   23993605.6484
     -4172.2194
  -8379827.11548  -6514549.64845  22382154.7034   22382151.7074
      2142.7344
   9527125.67346   7415799.25443  24191367.8754   24191363.7274
     -3039.2974
   9109581.46449   7086179.68744  23231505.9304   23231501.4774
     -2670.2344
  -9970658.77349  -7765367.89647  21655580.4924   21655576.7274
      1977.8284
 04  9  3 15 47 30.0000000  0  7G11G14G15G 1G19G22G25
  -7633124.50449  -5945924.18546  21828496.8444   21828492.5394
      1148.7974
   6517106.23349   5069736.31647  21425212.9844   21425207.8204
     -2358.4374
  14364517.43347  11170420.41142  24005517.9454   24005517.2854
     -4174.0474
  -8411935.52948  -6539569.18645  22376044.3984   22376041.9384
      2138.2034
   9572728.89146   7451334.19743  24200045.7034   24200041.8874
     -3041.3284
   9149651.97648   7117403.44044  23239131.5084   23239126.8284
     -2672.6874
 -10000276.14949  -7788446.36947  21649945.0554   21649940.3954
      1971.0164
 04  9  3 15 47 45.0000000  0  7G11G14G15G 1G19G22G25
  -7650297.92949  -5959306.08146  21825229.0634   21825224.9774
      1140.7344
   6552509.97049   5097323.62847  21431949.8754   21431945.2504
     -2362.3124
  14427141.49247  11219218.32242  24017433.8444   24017434.3714
     -4175.9844
  -8443977.21849  -6564536.73545  22369947.9144   22369944.3404
      2133.7194
   9618363.13046   7486893.29443  24208729.3754   24208726.5124
     -3043.4224
   9189759.02649   7148655.66444  23246764.0704   23246758.8634
     -2675.1414
 -10029791.66049  -7811445.46146  21644328.2814   21644324.2774
      1964.1414
 04  9  3 15 48  0.0000000  0  7G11G14G15G 1G19G22G25
  -7667351.40249  -5972594.50346  21821983.7194   21821979.5864
      1133.0314
   6587970.56649   5124955.24447  21438697.9384   21438693.6254
     -2365.7974
  14489792.66647  11268037.36042  24029356.8204   24029356.4064
     -4177.4224
  -8475952.84549  -6589452.79845  22363862.5234   22363859.5784
      2129.6724
   9664027.16346   7522475.63243  24217419.9224   24217415.2664
     -3044.9844
   9229901.76349   7179935.69345  23254402.4924   23254397.6294
     -2677.1874
 -10059205.72149  -7834365.51347  21638730.9844   21638726.9534
      1957.7504
 04  9  3 15 48 15.0000000  0  7G11G14G15G 1G19G22G25
  -7684285.82449  -5985790.15646  21818760.9694   21818756.8524
      1124.9064
   6623486.60249   5152630.07447  21445456.2734   21445452.3554
     -2369.6564
  14552469.59547  11316876.47042  24041284.0394   24041283.9264
     -4179.4224
  -8507863.37949  -6614318.14345  22357790.0084   22357787.0474
      2125.0164
   9709719.68146   7558080.13742  24226114.6954   24226110.6294
     -3047.1724
   9270079.09649   7211242.68145  23262048.1724   23262042.7774
     -2679.7504
 -10088519.13949  -7857207.12847  21633152.3134   21633148.9304
      1950.7504
 04  9  3 15 48 30.0000000  0  7G11G14G15G 1G19G22G25
  -7701099.03549  -5998891.37146  21815561.4454   21815557.2274
      1116.7814
   6659059.99149   5180349.58247  21452225.6644   21452220.9924
     -2373.5314
  14615173.99947  11365736.99942  24053215.5004   24053216.1724
     -4181.3124
  -8539706.75049  -6639131.14745  22351730.4224   22351727.2114
      2120.6414
   9755442.25446   7593708.08442  24234815.1484   24234811.4304
     -3049.1564
   9310293.12049   7242578.25745  23269700.9844   23269695.4494
     -2682.2344
 -10117729.59149  -7879968.51047  21627593.7814   21627590.4574
      1943.8444
 04  9  3 15 48 45.0000000  0  7G11G14G15G 1G19G22G25
  -7717791.17249  -6011898.23346  21812385.5394   21812380.9384
      1108.6094
   6694690.24449   5208113.40747  21459005.8674   21459001.3094
     -2377.3594
  14677905.39247  11414618.53542  24065154.3134   24065154.1564
     -4183.2504
  -8571483.08949  -6663891.92445  22345683.5554   22345681.0944
      2116.0314
   9801194.15846   7629358.88143  24243521.9774   24243518.0394
     -3051.2814
   9350543.61749   7273942.26045  23277360.4304   23277354.8914
     -2684.7504
 -10146837.12949  -7902649.69847  21622054.8524   21622051.5784
      1936.8284
 04  9  3 15 49  0.0000000  0  7G11G14G15G 1G19G22G25
  -7734362.07049  -6024810.62646  21809232.1414   21809226.9844
      1100.5634
   6730377.07549   5235921.32047  21465797.0084   21465792.2034
     -2381.0624
  14740663.43147  11463520.87842  24077096.8284   24077096.1174
     -4184.8124
  -8603192.46048  -6688600.50945  22339650.0164   22339646.9614
      2111.6564
   9846974.94046   7665032.18143  24252233.4224   24252229.8364
     -3053.0474
   9390830.31049   7305334.46745  23285026.3364   23285021.1914
     -2687.0784
 -10175841.60849  -7925250.58447  21616535.7034   21616532.0084
      1930.1564
 04  9  3 15 49 15.0000000  0  7G11G14G15G 1G19G22G25
  -7750811.20949  -6037628.14046  21806102.1954   21806097.2584
      1092.4384
   6766120.46649   5263773.29447  21472598.3524   21472594.2234
     -2384.8444
  14803448.10247  11512443.92642  24089043.9694   24089043.8874
     -4186.5474
  -8634834.43649  -6713256.59345  22333628.5634   22333625.5554
      2107.1414
   9892784.58446   7700727.96343  24260950.8674   24260947.7034
     -3054.9694
   9431153.62749   7336755.19744  23292699.7424   23292694.5354
     -2689.4534
 -10204742.46749  -7947770.72847  21611035.8444   21611031.9844
      1923.1884
 04  9  3 15 49 30.0000000  0  7G11G14G15G 1G19G22G25
  -7767137.62449  -6050350.02846  21802994.8984   21802989.8674
      1084.2664
   6801921.05749   5291669.85247  21479411.4614   21479406.7424
     -2388.6414
  14866259.81447  11561388.08042  24100996.4924   24100995.7894
     -4188.3284
  -8666408.29249  -6737859.59045  22327619.9384   22327617.0164
      2102.6414
   9938623.41346   7736446.50543  24269673.0164   24269669.8524
     -3056.8444
   9471514.15149   7368204.92444  23300380.1954   23300375.0634
     -2692.0004
 -10233538.76749  -7970209.39547  21605556.2664   21605552.3094
      1916.1564
 04  9  3 15 49 45.0000000  0  6G11G14G15G 1G22G25
  -7783340.40249  -6062975.57746  21799911.8284   21799906.5554
      1076.1884
   6837779.23249   5319611.27147  21486234.8834   21486230.3834
     -2392.3124
  14929099.05047  11610353.65842  24112955.2664   24112954.0554
     -4190.0784
  -8697913.20848  -6762408.86245  22321624.4614   22321621.5984
      2098.2034
   9511912.67349   7399684.27144  23308067.5474   23308062.5004
     -2694.3914
 -10262229.42549  -7992565.75247  21600096.3914   21600092.6764
      1909.3134
 04  9  3 15 50  0.0000000  0  6G11G14G15G 1G22G25
  -7799421.73249  -6075506.48346  21796851.4304   21796846.6214
      1068.0474
   6873692.55949   5347595.66047  21493068.5234   21493064.4924
     -2396.0944
  14991963.08647  11659338.55542  24124917.0084   24124916.8834
     -4191.7664
  -8729351.42648  -6786906.17445  22315642.4224   22315639.3134
      2093.6724
   9552346.81549   7431191.36444  23315762.1954   23315756.8834
     -2696.7974
 -10290816.55649  -8014841.44147  21594656.6724   21594653.0744
      1902.3754
 04  9  3 15 50 15.0000000  0  5G11G14G 1G22G25
  -7815382.18048  -6087943.20246  21793814.6564   21793809.4774
      1059.9224
   6909660.02549   5375622.24347  21499913.3594   21499908.8244
     -2399.7194
  -8760723.58548  -6811351.99146  22309672.7814   22309670.1254
      2089.2664
   9592815.98248   7462725.77444  23323463.0704   23323458.3554
     -2699.1874
 -10319300.63649  -8037036.81647  21589236.1094   21589232.6134
      1895.4064
 04  9  3 15 50 30.0000000  0  5G11G14G 1G22G25
  -7831217.69748  -6100282.55846  21790800.9694   21790796.2774
      1051.5314
   6945685.33449   5403693.90947  21506768.7894   21506764.0164
     -2403.7034
  -8792025.78648  -6835743.30645  22303715.5314   22303713.1644
      2084.4844
   9633323.90149   7494290.34945  23331171.6024   23331166.1564
     -2701.8284
 -10347677.55749  -8059148.70247  21583836.5084   21583832.5744
      1888.1564
 04  9  3 15 50 45.0000000  0  5G11G14G 1G22G25
  -7846926.93649  -6112523.52746  21787811.2814   21787806.7344
      1043.0164
   6981769.33949   5431811.30047  21513635.3134   21513630.7774
     -2407.6874
  -8823256.80248  -6860079.16445  22297772.7664   22297769.8054
      2079.6094
   9673871.75148   7525886.04844  23338887.6414   23338882.5314
     -2704.5624
 -10375945.89849  -8081175.97147  21578457.0634   21578453.3204
      1880.8754
 04  9  3 15 51  0.0000000  0  5G11G14G 1G22G25
  -7862512.58949  -6124668.20146  21784846.0704   21784841.2464
      1034.9224
   7017909.06449   5459972.11547  21520512.3914   21520507.7894
     -2411.1414
  -8854419.52648  -6884361.79145  22291842.5634   22291839.5004
      2075.2504
   9714456.56448   7557510.55944  23346610.1094   23346605.3714
     -2706.8754
 -10404108.25149  -8103120.65847  21573098.0234   21573094.5474
      1874.0164
 04  9  3 15 51 15.0000000  0  5G11G14G 1G22G25
  -7877976.52449  -6136718.01546  21781903.0474   21781898.3164
      1026.7344
   7054102.14049   5488174.49547  21527399.7974   21527395.5314
     -2414.7814
  -8885515.82848  -6908592.66745  22285925.2424   22285922.1644
      2070.7034
   9755076.43049   7589162.37844  23354339.9774   23354335.6884
     -2709.2664
 -10432166.41049  -8124984.14847  21567758.7344   21567755.2234
      1866.9534
 04  9  3 15 51 30.0000000  0  5G11G14G 1G22G25
  -7893315.47749  -6148670.45446  21778984.4534   21778979.6524
      1018.4694
   7090351.45449   5516420.70247  21534297.8204   21534293.7234
     -2418.5314
  -8916542.67448  -6932769.40945  22280020.4534   22280018.2734
      2066.0944
   9795734.29448   7620843.79544  23362077.1954   23362072.1484
     -2711.8444
 -10460117.14149  -8146763.93747  21562439.4384   21562436.1684
      1859.7814
 04  9  3 15 51 45.0000000  0  5G11G14G 1G22G25
  -7908529.58449  -6160525.60647  21776089.1954   21776084.8094
      1010.2034
   7126656.45049   5544710.29747  21541206.3204   21541202.1724
     -2422.1094
  -8947500.35048  -6956892.25545  22274129.5634   22274127.0704
      2061.6564
   9836429.82848   7652554.58944  23369821.2344   23369816.3634
     -2714.2034
 -10487960.46649  -8168460.02347  21557141.2814   21557137.4884
      1852.7504
 04  9  3 15 52  0.0000000  0  6G20G11G14G 1G22G25
   -126395.86457    -84372.59252  24297647.5164   24297644.8524
      2726.7194
  -7923622.13849  -6172286.03847  21773217.2274   21773212.8244
      1002.1094
   7163013.43749   5573040.40247  21548124.9844   21548120.9734
     -2425.5314
  -8978392.14348  -6980963.78445  22268251.0474   22268248.1414
      2057.2344
   9877159.54348   7684291.99744  23377571.7734   23377566.7704
     -2716.4534
 -10515699.56849  -8190074.90647  21551862.5314   21551859.2274
      1845.7974
 04  9  3 15 52 15.0000000  0  6G20G11G14G 1G22G25
   -167293.40647   -116240.78442  24289865.1094   24289862.4574
      2726.5634
  -7938590.07649  -6183949.36846  21770369.0234   21770364.1094
       993.7974
   7199425.07049   5601413.08747  21555054.1254   21555049.2154
     -2429.1254
  -9009215.06548  -7004981.64645  22262385.8204   22262382.9774
      2052.7034
   9917926.41848   7716058.37144  23385329.3364   23385325.0164
     -2718.9224
 -10543331.32849  -8211606.14247  21546604.3284   21546601.1254
      1838.6724
 04  9  3 15 52 30.0000000  0  6G20G11G14G 1G22G25
   -208190.76347   -148108.84242  24282083.0474   24282079.9224
      2726.1884
  -7953433.54749  -6195515.72246  21767544.0554   21767539.0944
       985.1094
   7235890.77449   5629827.91047  21561993.2114   21561988.9304
     -2433.1564
  -9039969.57148  -7028946.18245  22256533.0784   22256530.3834
      2047.6884
   9958729.98348   7747853.32744  23393094.4304   23393089.5904
     -2721.8284
 -10570855.92649  -8233053.87047  21541366.6414   21541362.9774
      1831.0474
 04  9  3 15 52 45.0000000  0  6G20G11G14G 1G22G25
   -249086.48847   -179975.62542  24274300.4144   24274297.2074
      2726.2344
  -7968151.14449  -6206983.97746  21764743.4534   21764738.5394
       976.8754
   7272411.77549   5658285.82447  21568942.6644   21568938.1724
     -2436.7194
  -9070654.19149  -7052856.26446  22250694.5394   22250691.5594
      2043.1884
   9999571.51848   7779677.86344  23400865.7114   23400861.4064
     -2724.1724
 -10598271.92249  -8254416.97847  21536149.7584   21536146.0634
      1824.0314
 04  9  3 15 53  0.0000000  0  6G20G11G14G 1G22G25
   -289980.99347   -211841.42243  24266519.2734   24266516.1054
      2726.4694
  -7982743.34249  -6218354.53046  21761967.0084   21761961.9964
       968.7814
   7308987.06949   5686786.04547  21575902.9614   21575898.8134
     -2439.9694
  -9101269.60148  -7076712.42846  22244868.7344   22244865.4104
      2038.9064
  10040450.28648   7811531.43544  23408645.6414   23408640.6294
     -2726.2814
 -10625579.69449  -8275695.75547  21530953.4694   21530949.7384
      1817.1414
 04  9  3 15 53 15.0000000  0  6G20G11G14G 1G22G25
   -330877.94547   -243709.18543  24258736.2894   24258732.6804
      2726.4694
  -7997213.71949  -6229630.16247  21759213.0704   21759208.0164
       960.5164
   7345612.71649   5715325.49247  21582872.5554   21582868.2154
     -2443.5314
  -9131819.42049  -7100517.47645  22239055.2894   22239052.0984
      2034.3284
  10081362.68348   7843411.18444  23416430.3364   23416425.8834
     -2728.7034
 -10652782.50149  -8296892.74747  21525776.5944   21525772.7034
      1809.9064
 04  9  3 15 53 30.0000000  0  6G20G11G14G 1G22G25
   -371774.70747   -275576.75743  24250954.4064   24250950.8674
      2726.3914
  -8011559.52149  -6240808.70546  21756483.1254   21756478.0554
       952.2344
   7382291.03449   5743905.99547  21589852.2274   21589848.0594
     -2447.0164
  -9162301.14249  -7124269.46045  22233254.0704   22233251.4454
      2029.8134
  10122311.11648   7875319.02544  23424222.9844   23424218.1294
     -2731.0944
 -10679877.60349  -8318005.80747  21520620.9384   21520616.7974
      1802.7974
 04  9  3 15 53 45.0000000  0  6G20G11G14G 1G22G25
   -412668.60047   -307442.12342  24243172.6254   24243169.2854
      2726.4064
  -8025778.03049  -6251888.06046  21753777.6174   21753772.1844
       943.8754
   7419024.40749   5772529.39147  21596842.3054   21596838.0984
     -2450.5004
  -9192712.02549  -7147966.24345  22227467.7734   22227465.3754
      2025.2194
  10163298.23648   7907257.02144  23432022.4454   23432017.8284
     -2733.5624
 -10706862.14549  -8339032.71147  21515485.9844   21515482.1604
      1795.4844
 04  9  3 15 54  0.0000000  0  6G20G11G14G 1G22G25
   -453559.39046   -339305.06142  24235391.6804   24235387.6804
      2725.7814
  -8039868.78249  -6262867.87646  21751096.4534   21751091.3244
       934.9694
   7455812.75549   5801195.62047  21603842.8134   21603838.8164
     -2454.5784
  -9223051.87749  -7171607.68545  22221693.9224   22221691.3404
      2020.0944
  10204324.13948   7939225.22244  23439829.1954   23439824.6764
     -2736.5474
 -10733735.89749  -8359973.29547  21510371.8364   21510368.0904
      1787.7034
 04  9  3 15 54 15.0000000  0  6G20G11G14G 1G22G25
   -494446.36646   -371165.05242  24227610.8134   24227607.2504
      2725.7034
  -8053831.13249  -6273747.63546  21748439.6174   21748434.7584
       926.6254
   7492656.45049   5829904.97447  21610854.2814   21610849.8634
     -2458.0164
  -9253320.05949  -7195193.27745  22215933.9224   22215931.2704
      2015.5944
  10245389.38548   7971224.08144  23447644.0784   23447639.0944
     -2738.8754
 -10760498.13749  -8380826.97847  21505279.2114   21505275.4884
      1780.5474
 04  9  3 15 54 30.0000000  0  6G20G11G14G 1G22G25
   -535334.39847   -403025.86342  24219830.4304   24219826.3594
      2725.8914
  -8067669.89949  -6284531.09546  21745805.9844   21745801.2814
       918.3914
   7529550.22349   5858653.36747  21617874.8524   21617870.8134
     -2461.3124
  -9283521.59849  -7218726.93445  22210187.1724   22210184.1844
      2011.1724
  10286488.88848   8003249.62544  23455464.8134   23455459.8634
     -2741.0944
 -10787153.47449  -8401597.36547  21500206.4774   21500203.0434
      1773.4384
 04  9  3 15 54 45.0000000  0  6G20G11G14G 1G22G25
   -576221.93447   -434886.27143  24212049.9454   24212045.8954
      2725.8284
  -8081383.53549  -6295217.05347  21743196.3364   21743191.3284
       910.0164
   7566495.25849   5887441.68847  21624904.8834   21624900.6604
     -2464.7504
  -9313654.90149  -7242207.42246  22204453.0634   22204450.1954
      2006.5314
  10327624.09348   8035303.00544  23463292.4304   23463287.9184
     -2743.5314
 -10813700.27049  -8422283.17747  21495155.0234   21495151.2274
      1766.1254
 04  9  3 15 55  0.0010000  0  6G20G11G14G 1G22G25
   -617112.77647   -466749.27243  24204268.5674   24204264.6854
      2725.7814
  -8094973.87549  -6305806.92147  21740609.8024   21740605.2864
       901.7814
   7603492.95549   5916271.05047  21631945.5364   21631940.5524
     -2468.0004
  -9343723.03249  -7265637.13545  22198731.4664   22198728.2864
      2002.1414
  10368796.64248   8067385.47644  23471127.7634   23471123.3684
     -2745.8124
 -10840141.18149  -8442886.47547  21490123.2864   21490119.1574
      1759.0164
 04  9  3 15 55 15.0010000  0  6G20G11G14G 1G22G25
   -657997.14847   -498607.18143  24196488.1854   24196484.3254
      2725.4384
  -8108434.58449  -6316295.78746  21738048.2714   21738043.1574
       893.0944
   7640542.32749   5945140.69147  21638995.8174   21638991.1224
     -2471.8124
  -9373717.73749  -7289009.62445  22193023.5054   22193020.0324
      1997.2344
  10410005.25948   8099496.05944  23478969.3724   23478965.0284
     -2748.5314
 -10866468.09049  -8463400.93747  21485113.3804   21485109.8644
      1751.3594
 04  9  3 15 55 30.0010000  0  6G20G11G14G 1G22G25
   -698877.10947   -530461.70842  24188709.4114   24188704.9544
      2725.1094
  -8121766.09749  -6326683.99246  21735511.7004   21735506.6694
       884.3594
   7677646.00049   5974052.62646  21646056.4744   21646051.8924
     -2475.3914
  -9403640.51749  -7312326.07646  22187328.9114   22187325.9784
      1992.3754
  10451253.10448   8131637.20244  23486818.5604   23486813.7514
     -2751.1874
 -10892682.11149  -8483827.44647  21480125.1534   21480121.6384
      1743.8134
 04  9  3 15 55 45.0010000  0  6G20G11G14G 1G22G25
   -739756.41447   -562315.69542  24180930.8104   24180925.9424
      2725.2344
  -8134971.89449  -6336974.23346  21732998.5754   21732993.4854
       876.0784
   7714799.97649   6003003.76947  21653126.5524   21653122.1184
     -2478.6564
  -9433495.07449  -7335589.35746  22181648.0604   22181645.0874
      1987.9534
  10492536.45048   8163806.01844  23494674.5834   23494669.7474
     -2753.4694
 -10918786.85449  -8504168.80047  21475157.3414   21475154.0834
      1736.5784
 04  9  3 15 56  0.0010000  0  6G20G11G14G 1G22G25
   -780634.46746   -594168.71942  24173150.9814   24173147.4464
      2725.2194
  -8148051.39749  -6347166.06046  21730509.8644   21730505.0284
       867.7814
   7752004.54349   6031994.32147  21660206.4894   21660202.4114
     -2482.0474
  -9463280.87749  -7358799.07346  22175979.5604   22175976.9974
      1983.4224
  10533855.77748   8196002.85944  23502537.2314   23502532.3764
     -2755.7974
 -10944781.61349  -8524424.44947  21470210.8644   21470207.3494
      1729.3284
 04  9  3 15 56 15.0010000  0  6G20G11G14G 1G22G25
   -821509.37846   -626019.27942  24165372.8174   24165368.6924
      2724.9224
  -8161002.75949  -6357258.03047  21728045.4504   21728040.4314
       859.1094
   7789261.15249   6061025.44347  21667296.4584   21667291.9114
     -2485.5474
  -9492996.12549  -7381953.80446  22170325.2084   22170322.4784
      1978.6254
  10575212.87248   8228229.12544  23510407.2164   23510402.7314
     -2758.3914
 -10970664.57149  -8544592.97547  21465285.4274   21465281.7434
      1721.7664
 04  9  3 15 56 30.0010000  0  6G20G11G14G 1G22G25
   -862380.47146   -657866.86142  24157595.3724   24157591.4194
      2724.9064
  -8173825.28849  -6367249.62446  21725605.3254   21725600.0564
       850.7194
   7826570.24549   6090097.44947  21674395.7634   21674391.3844
     -2488.8284
  -9522640.25149  -7405053.10946  22164684.4584   22164681.0634
      1974.1724
  10616608.07148   8260485.08744  23518284.5994   23518279.9854
     -2760.7344
 -10996434.67449  -8564673.57047  21460381.6144   21460378.0754
      1714.4534
 04  9  3 15 56 45.0010000  0  6G20G11G14G 1G22G25
   -903251.04446   -689714.07242  24149818.1144   24149814.1064
      2724.6724
  -8186522.27249  -6377143.38146  21723188.8254   21723184.3724
       842.2034
   7863928.04349   6119207.41047  21681504.8804   21681500.5954
     -2492.1724
  -9552216.64649  -7428099.64246  22159055.8804   22159052.8494
      1969.4694
  10658037.93548   8292768.05244  23526168.7634   23526163.8104
     -2763.2034
 -11022095.11849  -8584668.72147  21455498.6064   21455495.2044
      1706.9844
 04  9  3 15 57  0.0010000  0  6G20G11G14G 1G22G25
   -944118.00846   -721558.47242  24142041.0284   24142036.8374
      2724.7504
  -8199090.36049  -6386936.69746  21720797.4194   21720792.4894
       833.9064
   7901337.54749   6148357.65747  21688623.3644   21688619.2284
     -2495.4374
  -9581722.15349  -7451090.93846  22153441.1384   22153437.6964
      1964.9844
  10699505.66948   8325080.53844  23534060.0444   23534055.3604
     -2765.4374
 -11047642.79049  -8604575.98647  21450636.9584   21450633.0244
      1699.7344
 04  9  3 15 57 15.0010000  0  6G20G11G14G 1G22G25
   -984986.03745   -753403.68342  24134264.0834   24134260.1424
      2724.6564
  -8211534.18149  -6396633.18746  21718429.5524   21718424.4384
       825.5004
   7938793.57349   6177544.15646  21695751.0444   21695746.9544
     -2498.5004
  -9611161.65549  -7474030.80846  22147839.2784   22147835.8374
      1960.5314
  10741006.34648   8357418.70144  23541956.7004   23541952.8534
     -2767.7344
 -11073082.31849  -8624398.99247  21445796.1464   21445792.3804
      1692.4534
 04  9  3 15 57 30.0010000  0  6G20G11G14G 1G22G25
  -1025853.66247   -785248.56042  24126487.4354   24126483.1814
      2724.2814
  -8223852.48749  -6406231.86847  21716085.3804   21716080.5754
       816.8444
   7976297.44449   6206767.93746  21702887.9814   21702883.7354
     -2502.0474
  -9640533.63749  -7496918.05045  22142249.9744   22142246.8764
      1955.6884
  10782541.28548   8389783.54844  23549861.1384   23549856.3804
     -2770.3594
 -11098412.01849  -8644136.41347  21440976.0134   21440972.2634
      1684.7194
 04  9  3 15 57 45.0010000  0  6G20G11G14G 1G22G25
  -1066716.87947   -817089.99542  24118710.8104   24118707.3254
      2723.9844
  -8236041.25049  -6415729.61346  21713765.9894   21713761.8494
       808.1094
   8013852.74549   6236031.80147  21710034.3964   21710030.4584
     -2505.5784
  -9669834.17549  -7519749.64546  22136674.1464   22136671.2164
      1950.8754
  10824114.32948   8422178.10744  23557772.5054   23557766.8064
     -2773.0004
 -11123627.80549  -8663785.06847  21436177.6534   21436174.0564
      1677.1254
 04  9  3 15 58  0.0010000  0  6G20G11G14G 1G22G25
  -1107578.69046   -848930.35442  24110935.0054   24110931.0524
      2724.1094
  -8248103.13949  -6425128.49046  21711470.4114   21711465.7984
       799.9064
   8051456.20249   6265333.18146  21717189.9974   21717185.8104
     -2508.5164
  -9699066.28749  -7542527.91746  22131111.5604   22131108.0244
      1946.5784
  10865722.43448   8454599.96044  23565689.9354   23565684.7784
     -2775.0474
 -11148732.46949  -8683347.13647  21431400.2084   21431396.5094
      1669.9534
 04  9  3 15 58 15.0010000  0  6G20G11G14G 1G22G25
  -1148438.25446   -880768.96042  24103160.0214   24103156.2944
      2723.7664
  -8260037.32249  -6434427.84646  21709199.4424   21709194.5054
       791.1414
   8089108.30249   6294672.46046  21724355.3644   21724351.1184
     -2511.9064
  -9728229.23749  -7565252.27146  22125561.6304   22125559.0874
      1941.6724
  10907366.26048   8487049.66444  23573614.8334   23573609.4784
     -2777.6724
 -11173725.14249  -8702821.93747  21426644.0994   21426640.5444
      1662.2814
 04  9  3 15 58 30.0010000  0  6G20G11G14G 1G22G25
  -1189293.39146   -912604.10143  24095385.6064   24095381.6884
      2723.6094
  -8271841.65049  -6443626.03446  21706953.4354   21706948.5994
       782.6254
   8126810.91049   6324051.11246  21731529.7944   21731525.2124
     -2515.1874
  -9757320.88249  -7587921.07946  22120026.2084   22120023.0364
      1937.0784
  10949047.94148   8519528.84944  23581546.1384   23581540.9704
     -2780.0004
 -11198603.34549  -8722207.55847  21421910.5134   21421906.3024
      1654.7344
 04  9  3 15 58 45.0010000  0  6G20G11G14G 1G22G25
  -1230145.44946   -944436.89242  24087611.8644   24087607.6884
      2723.3594
  -8283517.43249  -6452724.06246  21704731.4194   21704726.6734
       774.1254
   8164562.33749   6353467.79946  21738713.3254   21738709.1104
     -2518.3594
  -9786342.69949  -7610535.47046  22114503.8884   22114500.9814
      1932.4844
  10990765.84648   8552036.29644  23589485.0054   23589479.5834
     -2782.3754
 -11223368.53549  -8741505.08947  21417197.5524   21417193.8214
      1647.2664
 04  9  3 15 59  0.0010000  0  6G20G11G14G 1G22G25
  -1270993.86947   -976266.79143  24079838.9814   24079834.8414
      2722.9384
  -8295064.22849  -6461721.56846  21702534.1694   21702529.6384
       765.2664
   8202362.77549   6382922.66146  21745906.8174   21745902.4234
     -2521.8914
  -9815294.21349  -7633095.09046  22108993.9814   22108990.9194
      1927.5784
  11032520.42448   8584572.28644  23597430.2554   23597425.1494
     -2785.1094
 -11248020.21649  -8760714.19647  21412506.3884   21412502.4704
      1639.4694
 04  9  3 15 59 15.0010000  0  6G20G11G14G 1G22G25
  -1311839.38547  -1008094.45643  24072066.4744   24072062.2714
      2723.0004
  -8306482.75949  -6470619.11947  21700360.8964   21700356.7984
       757.0474
   8240211.15549   6412414.89946  21753109.0444   21753104.5674
     -2524.7504
  -9844176.28349  -7655600.58646  22103497.8414   22103494.4424
      1923.2814
  11074310.77948   8617136.16544  23605382.6384   23605378.2594
     -2787.1254
 -11272558.95249  -8779835.27347  21407836.9814   21407833.1064
      1632.2664
 04  9  3 15 59 30.0010000  0  6G20G11G14G 1G22G25
  -1352680.84447  -1039918.96843  24064293.4814   24064290.6884
      2722.7344
  -8317771.60949  -6479415.63647  21698213.2244   21698208.3064
       748.3594
   8278108.42449   6441945.22146  21760320.6304   21760316.2824
     -2528.0944
  -9872987.67549  -7678051.00846  22098015.2474   22098012.4424
      1918.4844
  11116138.02248   8649728.77344  23613342.6464   23613337.0634
     -2789.6724
 -11296983.38349  -8798867.29447  21403189.1534   21403185.1534
      1624.5634
 04  9  3 15 59 45.0010000  0  6G20G11G14G 1G22G25
  -1393520.85947  -1071742.34243  24056522.5444   24056518.7244
      2722.6414
  -8328933.45649  -6488113.19247  21696089.1854   21696084.6574
       739.8284
   8316051.52849   6471511.25846  21767540.9034   21767536.0754
     -2531.0314
  -9901731.14849  -7700448.51446  22092545.1854   22092542.6924
      1913.9224
  11157999.28548   8682347.91444  23621308.4814   23621303.7204
     -2791.8444
 -11321296.08449  -8817812.24947  21398562.5444   21398558.8564
      1617.1254
 04  9  3 16  0  0.0010000  0  6G20G11G14G 1G22G25
  -1434357.20047  -1103562.86843  24048751.4814   24048746.9384
      2722.3444
  -8339966.11749  -6496710.07247  21693989.8964   21693985.1814
       731.1564
   8354042.36749   6501114.50546  21774770.4814   21774765.7244
     -2534.3444
  -9930404.59549  -7722791.45346  22087089.0284   22087086.3924
      1909.2814
  11199896.67648   8714995.19344  23629281.2004   23629276.8724
     -2794.3594
 -11345494.71949  -8836668.31847  21393957.7944   21393953.6344
      1609.4224
 04  9  3 16  0 15.0010000  0  6G20G11G14G 1G22G25
  -1475191.16847  -1135381.54943  24040981.3564   24040977.0324
      2722.3754
  -8350870.97949  -6505207.37347  21691914.3334   21691910.0444
       722.9534
   8392079.20149   6530753.58346  21782008.4424   21782004.2314
     -2537.0944
  -9959009.54349  -7745081.01146  22081645.5444   22081642.6854
      1904.9534
  11241828.63448   8747669.40744  23637260.8024   23637256.1104
     -2796.3914
 -11369580.67449  -8855436.58847  21389374.4424   21389370.8684
      1602.2034
 04  9  3 16  0 30.0010000  0  6G20G11G14G 1G22G25
  -1516023.06247  -1167198.58942  24033211.3564   24033207.0634
      2721.8594
  -8361648.05449  -6513605.10047  21689863.8414   21689858.9974
       713.9224
   8430161.65049   6560428.20746  21789255.4814   21789251.6494
     -2540.5474
  -9987546.15749  -7767317.32946  22076215.1534   22076212.5914
      1899.9694
  11283794.94448   8780370.39444  23645246.9814   23645242.3064
     -2799.1254
 -11393553.84149  -8874116.97847  21384812.4424   21384808.7084
      1594.2504
 04  9  3 16  0 45.0010000  0  6G20G11G14G 1G22G25
  -1556849.71846  -1199011.59642  24025441.8334   24025437.9384
      2721.4064
  -8372294.24049  -6521900.83747  21687838.1464   21687833.5404
       705.1884
   8468292.38349   6590140.44946  21796511.5214   21796507.6774
     -2543.8914
 -10016011.37849  -7789498.01146  22070798.9114   22070795.7634
      1895.1094
  11325798.56948   8813100.46644  23653239.5674   23653235.4664
     -2801.7664
 -11417410.97449  -8892706.95147  21380272.6854   21380268.7354
      1586.3444
 04  9  3 16  1  0.0010000  0  6G20G11G14G 1G22G25
  -1597670.29446  -1230819.81442  24017674.3884   24017669.8294
      2721.1254
  -8382808.67549  -6530093.90647  21685837.0674   21685832.6264
       696.5474
   8506471.94849   6619890.74146  21803776.8414   21803773.0244
     -2546.9224
 -10044404.48149  -7811622.49046  22065395.5834   22065392.6494
      1890.4064
  11367840.16748   8845860.09644  23661239.7244   23661235.4974
     -2804.1254
 -11441151.26449  -8911205.87147  21375754.6614   21375751.1424
      1578.7194
 04  9  3 16  1 15.0010000  0  6G20G11G14G 1G22G25
  -1638486.33247  -1262624.51542  24009907.0444   24009902.3414
      2720.7974
  -8393192.99949  -6538185.59947  21683860.9504   21683856.1464
       687.7974
   8544698.51749   6649677.66646  21811051.2864   21811047.1734
     -2550.0944
 -10072727.02649  -7833691.99546  22060005.7784   22060002.6534
      1885.7664
  11409918.08448   8878648.04744  23669247.1144   23669242.9074
     -2806.5784
 -11464776.19149  -8929614.90047  21371259.2944   21371255.6064
      1571.0634
 04  9  3 16  1 30.0010000  0  6G20G11G14G 1G22G25
  -1679294.35646  -1294422.99542  24002141.6534   24002137.3604
      2720.3594
  -8403443.64849  -6546173.11847  21681910.4664   21681905.7124
       679.0164
   8582975.29849   6679503.71446  21818334.9974   21818330.8254
     -2553.3594
 -10100975.62249  -7855703.88346  22054630.6144   22054627.3174
      1880.8914
  11452035.69948   8911466.94144  23677261.8024   23677257.1654
     -2809.0314
 -11488282.22449  -8947931.28247  21366786.2554   21366782.6884
      1563.1884
 04  9  3 16  1 45.0010000  0  6G20G11G14G 1G22G25
  -1720098.68746  -1326218.53542  23994376.4814   23994372.8174
      2719.9844
  -8413564.86349  -6554059.79347  21679984.2634   21679979.5444
       670.1724
   8621297.62349   6709365.24746  21825627.4034   21825623.2474
     -2556.5944
 -10129154.66849  -7877661.57746  22049268.6224   22049265.1424
      1876.0784
  11494188.50048   8944313.24944  23685283.4034   23685278.5714
     -2811.5944
 -11511673.52549  -8966158.27847  21362335.3804   21362331.5444
      1555.4064
 04  9  3 16  2  0.0010000  0  6G20G11G14G 1G22G25
  -1760898.10246  -1358010.26442  23986612.5364   23986608.2634
      2719.9534
  -8423555.43449  -6561844.65147  21678083.2314   21678078.4384
       661.7974
   8659666.38749   6739262.97346  21832928.7944   21832924.6064
     -2559.2974
 -10157263.05749  -7899564.20746  22043919.4354   22043916.5754
      1871.5944
  11536377.57048   8977187.82243  23693311.5604   23693306.7744
     -2813.7344
 -11534948.67149  -8984294.73447  21357905.8644   21357902.0364
      1547.9534
 04  9  3 16  2 15.0010000  0  6G20G11G14G 1G22G25
  -1801693.25147  -1389798.70642  23978849.1304   23978845.3104
      2719.3134
  -8433416.05049  -6569528.26347  21676206.4194   21676202.3174
       652.8134
   8698080.61049   6769196.12246  21840238.6924   21840234.4424
     -2562.7344
 -10185301.52449  -7921412.35546  22038584.1304   22038580.6574
      1866.7034
  11578602.10548   9010090.00644  23701346.3024   23701341.7354
     -2816.3594
 -11558108.24749  -9002341.16147  21353498.8494   21353495.0324
      1539.8754
 04  9  3 16  2 30.0010000  0  6G20G11G14G 1G22G25
  -1842483.47247  -1421583.27042  23971087.7474   23971082.9544
      2719.2344
  -8443146.00549  -6577110.04647  21674355.2944   21674350.3994
       644.3444
   8736540.66549   6799164.98546  21847557.8104   21847553.3964
     -2565.4844
 -10213269.32749  -7943205.44846  22033262.0754   22033259.0134
      1862.2504
  11620862.75448   9043020.37044  23709388.8174   23709383.6384
     -2818.5004
 -11581151.56549  -9020296.98247  21349113.6774   21349109.5284
      1532.4064
 04  9  3 16  2 45.0010000  0  6G20G11G14G 1G22G25
  -1883267.20147  -1453362.76542  23963326.7554   23963322.5994
      2718.6094
  -8452743.69549  -6584588.77746  21672528.6614   21672524.1814
       635.3444
   8775047.69149   6829170.45246  21854885.2474   21854881.0994
     -2568.7974
 -10241165.12149  -7964942.42446  22027953.4114   22027950.6064
      1857.2344
  11663160.76348   9075979.82344  23717437.7314   23717433.2044
     -2821.2344
 -11604076.98249  -9038160.94347  21344751.5134   21344747.2514
      1524.3444
 04  9  3 16  3  0.0010000  0  6G20G11G14G 1G22G25
  -1924045.91947  -1485138.34243  23955566.2244   23955563.1034
      2718.3134
  -8462210.63749  -6591965.61847  21670727.3414   21670722.5604
       626.6884
   8813599.88749   6859211.11146  21862221.6924   21862216.6814
     -2571.7344
 -10268990.52149  -7986624.53646  22022658.1774   22022655.5054
      1852.6254
  11705494.46848   9108967.09644  23725493.4584   23725488.9424
     -2823.5314
 -11626885.86349  -9055934.09147  21340410.7864   21340406.8604
      1516.6564
 04  9  3 16  3 15.0010000  0  6G20G11G14G 1G22G25
  -1964817.21148  -1516908.19443  23947807.8804   23947804.4854
      2717.9534
  -8471544.43749  -6599238.71647  21668951.0054   21668946.4354
       617.9844
   8852199.34249   6889288.59646  21869566.7314   21869562.1224
     -2574.6874
 -10296743.19149  -8008249.99246  22017377.5524   22017373.8064
      1847.9064
  11747866.26248   9141984.03844  23733557.1534   23733551.9934
     -2825.9064
 -11649575.83549  -9073614.57747  21336093.0214   21336088.8254
      1508.8914
 04  9  3 16  3 30.0010000  0  6G20G11G14G 1G22G25
  -2005587.11348  -1548676.93843  23940049.6924   23940046.0834
      2718.0164
  -8480751.07549  -6606412.71847  21667199.2394   21667194.7554
       609.6254
   8890839.77649   6919398.00746  21876919.5754   21876915.4384
     -2577.2814
 -10324429.13549  -8029823.44946  22012108.8174   22012105.6144
      1843.5314
  11790270.03648   9175025.92144  23741625.8644   23741621.0284
     -2827.9224
 -11672152.81949  -9091207.03447  21331796.7164   21331792.8804
      1501.4384
 04  9  3 16  3 45.0010000  0  6G20G11G14G 1G22G25
  -2046351.92048  -1580441.72643  23932292.4424   23932288.5524
      2717.4844
  -8489826.75349  -6613484.68547  21665472.0914   21665467.5054
       600.6884
   8929524.56649   6949541.98846  21884281.2714   21884277.3254
     -2580.4374
 -10352044.80349  -8051342.14146  22006853.9744   22006850.6924
      1838.7344
  11832709.19648   9208095.36344  23749701.7244   23749696.8804
     -2830.4534
 -11694612.97049  -9108708.44947  21327522.8564   21327519.0444
      1493.4534
 04  9  3 16  4  0.0010000  0  6G20G11G14G 1G22G25
  -2087108.94047  -1612200.42743  23924535.8564   23924532.7984
      2716.9694
  -8498768.98649  -6620452.66547  21663770.5754   21663765.8724
       591.7814
   8968255.99249   6979722.30546  21891651.8104   21891647.4154
     -2583.5474
 -10379587.63249  -8072804.08546  22001612.4584   22001609.1064
      1833.8754
  11875186.21448   9241194.31044  23757785.1614   23757779.8884
     -2832.8914
 -11716953.57949  -9126116.70847  21323271.6924   21323267.5404
      1485.5164
 04  9  3 16  4 15.0010000  0  6G20G11G14G 1G22G25
  -2127862.39147  -1643956.36143  23916781.8964   23916778.5214
      2716.5634
  -8507582.04349  -6627319.98847  21662093.5214   21662088.7634
       583.0634
   9007029.44649   7009935.36746  21899030.1774   21899026.1654
     -2586.4224
 -10407061.99449  -8094212.66946  21996384.5524   21996381.1304
      1829.1724
  11917696.78648   9274319.40143  23765874.7314   23765869.5954
     -2835.2974
 -11739178.96149  -9143435.18347  21319042.1064   21319038.3764
      1477.6884
 04  9  3 16  4 30.0010000  0  6G20G11G14G 1G22G25
  -2168609.62447  -1675707.41143  23909027.6144   23909024.5134
      2716.1414
  -8516263.13449  -6634084.48747  21660441.7714   21660437.1304
       574.1564
   9045847.35849   7040183.08146  21906416.8104   21906412.4894
     -2589.4844
 -10434465.21649  -8115565.81646  21991169.6694   21991166.5794
      1824.3914
  11960243.44148   9307472.61843  23773970.5674   23773966.1774
     -2837.8754
 -11761286.33149  -9160661.69447  21314835.2634   21314831.3174
      1469.7194
 04  9  3 16  4 45.0010000  0  6G20G11G14G 1G22G25
  -2209348.84447  -1707452.25743  23901274.4664   23901271.7044
      2715.7034
  -8524810.43449  -6640744.72247  21658815.1304   21658810.5914
       565.2814
   9084711.23948   7070466.61546  21913812.4114   21913808.6144
     -2592.5164
 -10461795.61349  -8136862.23246  21985969.0524   21985965.7514
      1819.6094
  12002827.80448   9340655.18244  23782074.3334   23782069.3844
     -2840.2034
 -11783273.70749  -9177794.70547  21310651.1304   21310647.3064
      1461.7664
 04  9  3 16  5  0.0010000  0  6G20G11G14G 1G22G25
  -2250081.56847  -1739192.03943  23893523.7634   23893520.1774
      2715.3134
  -8533225.46249  -6647301.88847  21657213.8564   21657209.0524
       556.6724
   9123619.22349   7100784.51046  21921216.6924   21921212.3374
     -2595.3594
 -10489054.78949  -8158103.13446  21980781.6304   21980778.8174
      1814.9064
  12045448.28048   9373865.93643  23790184.7554   23790179.9074
     -2842.5314
 -11805142.51449  -9194835.33447  21306489.7714   21306485.8924
      1453.9224
 04  9  3 16  5 15.0010000  0  6G20G11G14G 1G22G25
  -2290810.79447  -1770929.08643  23885773.7164   23885770.0284
      2715.0634
  -8541511.34849  -6653758.43146  21655636.9504   21655631.9074
       548.0004
   9162567.86248   7131134.08346  21928628.0054   21928623.6774
     -2598.0624
 -10516245.83049  -8179290.95046  21975606.7864   21975603.8104
      1810.2814
  12088101.80648   9407102.39643  23798301.5674   23798296.3564
     -2844.7974
 -11826895.74049  -9211785.89247  21302350.0444   21302346.0324
      1446.2344
 04  9  3 16  5 30.0010000  0  6G20G11G14G 1G22G25
  -2331530.08047  -1802658.37943  23878025.3494   23878021.4624
      2714.2194
  -8549661.69649  -6660109.36347  21654085.9974   21654081.0214
       538.7194
   9201563.42649   7161520.22346  21936048.9974   21936044.1304
     -2601.2664
 -10543362.46449  -8200420.78946  21970446.9664   21970444.2004
      1805.2344
  12130794.46648   9440369.38243  23806426.0284   23806420.8104
     -2847.5624
 -11848526.90649  -9228641.33747  21298233.9894   21298229.7204
      1437.9224
 04  9  3 16  5 45.0010000  0  6G20G11G14G 1G22G25
  -2372239.13548  -1834379.70143  23870278.4274   23870274.9114
      2713.5784
  -8557676.11049  -6666354.36247  21652561.0604   21652556.2784
       529.7504
   9240605.78848   7191942.84146  21943478.0674   21943474.1574
     -2604.3124
 -10570404.37149  -8221492.39746  21965301.2784   21965298.3294
      1800.3914
  12173526.47648   9473667.02243  23814557.5994   23814552.6224
     -2850.1564
 -11870035.66749  -9245401.39947  21294140.8254   21294136.9504
      1429.8444
 04  9  3 16  6  0.0010000  0  6G20G11G14G 1G22G25
  -2412943.06647  -1866097.04843  23862532.8644   23862529.4384
      2713.4384
  -8565559.88749  -6672497.57647  21651060.6854   21651055.8724
       521.2504
   9279689.35148   7222397.54746  21950915.5524   21950911.1854
     -2606.8754
 -10597376.85749  -8242509.91746  21960168.6224   21960165.5244
      1795.8914
  12216292.37648   9506991.07544  23822695.3964   23822691.4504
     -2852.1564
 -11891427.14649  -9262070.08947  21290070.1534   21290066.8644
      1422.2194
 04  9  3 16  6 15.0010000  0  6G20G11G14G 1G22G25
  -2453637.74948  -1897807.17143  23854788.9584   23854785.0674
      2712.7664
  -8573308.89149  -6678535.76247  21649586.0214   21649581.5404
       512.1254
   9318818.02649   7252887.42246  21958361.5444   21958357.3494
     -2610.0624
 -10624275.99349  -8263470.26846  21955050.0914   21955046.7244
      1790.8444
  12259096.27548   9540344.71643  23830840.9274   23830836.9114
     -2854.7974
 -11912697.16449  -9278644.11847  21286022.7554   21286019.0564
      1414.0164
 04  9  3 16  6 30.0010000  0  6G20G11G14G 1G22G25
  -2494325.48348  -1929511.92243  23847046.5214   23847042.2674
      2712.5314
  -8580925.18049  -6684470.53947  21648136.8564   21648132.1924
       503.5634
   9357989.37248   7283410.53046  21965815.3564   21965811.4274
     -2612.6254
 -10651103.99349  -8284375.20746  21949944.5134   21949941.6424
      1786.3914
  12301935.86348   9573726.17943  23838992.8174   23838988.2944
     -2856.9064
 -11933847.80049  -9295125.13047  21281997.8174   21281993.9034
      1406.2504
 04  9  3 16  6 45.0010000  0  6G20G11G14G 1G22G25
  -2535006.19347  -1961211.14243  23839304.8024   23839300.7004
      2711.8594
  -8588408.87149  -6690301.99547  21646712.5134   21646707.9424
       494.6414
   9397203.10749   7313966.68046  21973277.4424   21973273.4464
     -2615.5624
 -10677860.97349  -8305224.79146  21944852.6694   21944849.9504
      1781.5004
  12344810.93448   9607135.30943  23847151.8724   23847147.2314
     -2859.4064
 -11954878.97749  -9311513.05247  21277995.6614   21277991.8884
      1398.2194
 04  9  3 16  7  0.0010000  0  6G20G11G14G 1G22G25
  -2575677.21647  -1992902.86543  23831565.1144   23831561.4504
      2711.0944
  -8595757.41249  -6696028.14147  21645314.6854   21645309.8024
       485.3754
   9436461.40449   7344557.53946  21980748.2004   21980743.9624
     -2618.7664
 -10704544.42349  -8326017.07846  21939775.0054   21939772.0054
      1776.4534
  12387723.92848   9640573.98043  23855318.5364   23855313.4154
     -2862.0314
 -11975788.02549  -9327805.81047  21274016.9194   21274013.5214
      1389.8914
 04  9  3 16  7 15.0010000  0  6G20G11G14G 1G22G25
  -2616339.69247  -2024587.87743  23823827.2394   23823823.1654
      2710.4224
  -8602971.90649  -6701649.83047  21643941.5754   21643936.5714
       476.4384
   9475762.83249   7375182.02246  21988227.2394   21988222.7594
     -2621.6724
 -10731155.52849  -8346753.00846  21934710.9584   21934708.3414
      1771.5474
  12430673.67148   9674041.28243  23863490.8254   23863486.3104
     -2864.5944
 -11996576.13649  -9344004.33547  21270060.8564   21270057.1774
      1381.7814
 04  9  3 16  7 30.0010000  0  6G20G11G14G 1G22G25
  -2656993.64946  -2056266.29843  23816090.8104   23816087.3104
      2710.0784
  -8610052.36749  -6707167.07947  21642594.0914   21642589.2824
       467.5634
   9515107.10249   7405839.88846  21995714.2004   21995709.7244
     -2624.3444
 -10757694.32249  -8367432.57346  21929661.0914   21929658.1064
      1766.8914
  12473659.93448   9707537.03043  23871670.9584   23871666.8214
     -2866.9064
 -12017243.19449  -9360108.52147  21266128.3024   21266123.9504
      1373.8444
 04  9  3 16  7 45.0010000  0  6G20G11G14G 1G22G25
  -2697640.12147  -2087938.81542  23808355.9504   23808352.1884
      2709.2664
  -8616999.82249  -6712580.68947  21641271.7864   21641267.2044
       458.5474
   9554492.80749   7436530.03046  22003209.0754   22003204.2204
     -2627.3124
 -10784161.98449  -8388056.72546  21924624.0604   21924620.8804
      1761.8914
  12516681.48948   9741060.28943  23879858.1464   23879853.3604
     -2869.4694
 -12037790.19149  -9376119.16847  21262218.1924   21262214.5364
      1365.6094
 04  9  3 16  8  0.0010000  0  6G20G11G14G 1G22G25
  -2738276.52847  -2119603.55143  23800623.0604   23800619.1494
      2708.7194
  -8623811.70449  -6717888.65447  21639975.8494   21639971.3294
       449.5004
   9593922.25649   7467254.27346  22010712.1774   22010707.7044
     -2630.1874
 -10810556.09449  -8408623.55446  21919601.7164   21919598.3764
      1757.0944
  12559740.73048   9774612.93843  23888052.0214   23888047.4114
     -2871.9534
 -12058214.47049  -9392034.17547  21258331.4114   21258327.9034
      1357.5004
 04  9  3 16  8 15.0010000  0  6G20G11G14G 1G22G25
  -2778903.31047  -2151260.77342  23792892.5994   23792888.6884
      2708.3914
  -8630488.67349  -6723091.49346  21638705.2004   21638700.5604
       440.8134
   9633394.46948   7498011.81946  22018223.2004   22018218.9664
     -2632.7344
 -10836877.36049  -8429133.62146  21914592.9584   21914589.8964
      1752.5004
  12602836.97348   9808194.36743  23896252.4194   23896248.0714
     -2874.1874
 -12078516.44449  -9407853.89647  21254468.6534   21254464.5014
      1349.5314
 04  9  3 16  8 30.0010000  0  6G20G11G14G 1G22G25
  -2819520.83347  -2182910.76043  23785163.1854   23785159.0174
      2707.4694
  -8637031.16849  -6728189.55747  21637460.0214   21637455.4974
       431.6254
   9672908.85848   7528802.24346  22025742.9974   22025738.7164
     -2635.7814
 -10863126.08249  -8449587.16846  21909598.3104   21909594.9934
      1747.3754
  12645969.76748   9841804.30243  23904460.2634   23904456.0994
     -2876.8594
 -12098696.39049  -9423578.52747  21250628.2554   21250624.4934
      1341.1724
 04  9  3 16  8 45.0010000  0  6G20G11G14G 1G22G25
  -2860130.73647  -2214554.83443  23777435.7244   23777431.2904
      2707.4064
  -8643440.66549  -6733183.96847  21636240.5364   21636236.1614
       423.2034
   9712463.50948   7559624.03746  22033269.6144   22033265.3684
     -2637.9844
 -10889304.00949  -8469985.53846  21904616.5604   21904613.7314
      1743.1724
  12689137.41348   9875441.39043  23912674.5834   23912670.5634
     -2878.6874
 -12118756.02749  -9439209.40147  21246811.0604   21246806.9234
      1333.6254
 04  9  3 16  9  0.0010000  0  6G20G11G14G 1G22G25
  -2900731.92447  -2246192.11543  23769709.7554   23769705.0134
      2706.2974
  -8649716.14049  -6738073.96047  21635046.4114   21635041.6344
       413.6724
   9752059.23148   7590477.83346  22040804.5444   22040800.2474
     -2641.3284
 -10915410.14749  -8490327.97646  21899648.6774   21899645.9314
      1737.7814
  12732340.83648   9909106.35343  23920896.2784   23920891.7784
     -2881.6414
 -12138694.10549  -9454745.57047  21243017.1614   21243012.7124
      1324.9224
 04  9  3 16  9 15.0010000  0  6G20G11G14G 1G22G25
  -2941321.71648  -2277820.52843  23761985.6534   23761981.5094
      2705.7814
  -8655854.95649  -6742857.45847  21633878.2944   21633873.4744
       404.9384
   9791698.34848   7621365.44646  22048347.6614   22048343.0484
     -2643.9534
 -10941441.95849  -8510612.50746  21894694.7634   21894692.1384
      1733.1254
  12775582.59248   9942801.19043  23929125.0834   23929121.0214
     -2883.8914
 -12158508.01849  -9470184.98247  21239246.5994   21239242.1854
      1316.9534
 04  9  3 16  9 30.0010000  0  6G20G11G14G 1G22G25
  -2981902.34047  -2309441.76743  23754263.3104   23754258.8844
      2704.8594
  -8661859.33149  -6747536.19647  21632735.4504   21632730.5404
       395.6724
   9831378.38748   7652284.95146  22055898.6224   22055893.9934
     -2646.8914
 -10967401.68749  -8530840.84846  21889755.0754   21889751.7084
      1727.9844
  12818860.31348   9976524.06743  23937360.5284   23937356.3994
     -2886.6254
 -12178199.90049  -9485529.29947  21235499.2164   21235494.7944
      1308.5004
 04  9  3 16  9 45.0010000  0  6G20G11G14G 1G22G25
  -3022473.76248  -2341055.83843  23746542.8884   23746538.9034
      2704.6414
  -8667729.34849  -6752110.24147  21631618.5054   21631613.7594
       387.0634
   9871098.81948   7683235.91846  22063456.7784   22063452.3174
     -2649.1254
 -10993289.52649  -8551013.18246  21884828.4894   21884824.8214
      1723.6884
  12862173.56648  10010274.59843  23945603.0444   23945598.7554
     -2888.5164
 -12197769.75949  -9500778.52647  21231774.9974   21231770.9464
      1300.8284
 04  9  3 16 10  0.0010000  0  6G20G11G14G 1G22G25
  -3063036.08747  -2372662.87043  23738824.0444   23738820.1144
      2703.7664
  -8673465.20148  -6756579.74447  21630527.1614   21630522.1574
       377.8284
   9910859.34348   7714218.13646  22071023.0214   22071018.8564
     -2652.0944
 -11019105.66449  -8571129.64046  21879915.9114   21879912.6534
      1718.6564
  12905522.12248  10044052.65643  23953852.1614   23953847.7164
     -2891.1414
 -12217217.56149  -9515932.65947  21228074.0444   21228070.4584
      1292.3594
 04  9  3 16 10 15.0010000  0  6G20G11G14G 1G22G25
  -3103586.05348  -2404260.22243  23731107.4194   23731103.4274
      2703.1414
  -8679063.52349  -6760942.08047  21629461.9034   21629456.7944
       368.8134
   9950662.82648   7745233.82445  22078597.7314   22078592.7244
     -2654.7194
 -11044846.95449  -8591187.78346  21875017.9974   21875014.7634
      1713.7814
  12948909.26748  10077860.79643  23962108.4814   23962104.4664
     -2893.5474
 -12236540.13749  -9530989.20547  21224397.2474   21224393.4464
      1284.1724
 04  9  3 16 10 30.0010000  0  6G20G11G14G 1G22G25
  -3144127.59047  -2435851.00343  23723392.5364   23723388.5444
      2702.5314
  -8684528.35349  -6765200.40147  21628421.8804   21628417.0284
       359.8754
   9990505.08248   7776279.72346  22086179.2164   22086174.3924
     -2657.4064
 -11070517.43249  -8611190.74246  21870132.8174   21870129.5324
      1709.0474
  12992330.84748  10111695.74543  23970371.2394   23970367.1224
     -2895.9064
 -12255741.33749  -9545951.16947  21220743.3964   21220739.6494
      1276.1094
 04  9  3 16 10 45.0010000  0  6G20G11G14G 1G22G25
  -3184658.90847  -2467433.82843  23715679.4424   23715676.1104
      2702.1414
  -8689858.02449  -6769353.39447  21627407.9194   21627402.4934
       351.0944
  10030387.59848   7807357.00546  22093768.3964   22093764.2394
     -2659.9534
 -11096115.41149  -8631137.20346  21865261.2474   21865258.3454
      1704.3594
  13035788.50448  10145558.83743  23978642.0834   23978636.8334
     -2898.0944
 -12274819.28049  -9560817.08547  21217113.0284   21217109.1854
      1268.0164
 04  9  3 16 11  0.0010000  0  6G20G11G14G 1G22G25
  -3225181.63848  -2499009.99643  23707968.7084   23707964.7204
      2701.3594
  -8695054.28449  -6773402.42647  21626418.8494   21626413.9854
       342.1884
  10070308.34549   7838464.06346  22101365.4974   22101360.7084
     -2662.4844
 -11121642.69449  -8651028.58846  21860403.4114   21860400.6884
      1699.6414
  13079280.33048  10179448.53643  23986917.5914   23986913.1814
     -2900.4374
 -12293775.58849  -9575588.23247  21213505.7474   21213502.2594
      1259.9064
 04  9  3 16 11 15.0010000  0  6G20G11G14G 1G22G25
  -3265693.56047  -2530577.69643  23700259.7084   23700255.8174
      2700.5944
  -8700114.82249  -6777345.71647  21625456.1924   21625451.4624
       333.0944
  10110269.24649   7869602.41645  22108969.4894   22108965.3534
     -2665.2664
 -11147097.12849  -8670863.20546  21855560.5674   21855557.2824
      1694.7974
  13122808.51548  10213366.54943  23995200.9504   23995196.2044
     -2902.8124
 -12312608.02149  -9590262.85047  21209922.1614   21209918.2004
      1251.6414
 04  9  3 16 11 30.0010000  0  6G20G11G14G 1G22G25
  -3306197.41948  -2562139.13143  23692552.0134   23692548.3414
      2699.7664
  -8705042.38049  -6781185.38047  21624518.4584   21624513.6814
       323.9534
  10150267.24349   7900769.67345  22116581.0134   22116576.8174
     -2667.8754
 -11172481.51649  -8690643.24246  21850729.6534   21850726.3374
      1689.8754
  13166370.15748  10247310.65743  24003490.1854   24003485.1064
     -2905.3444
 -12331319.22449  -9604843.00747  21206361.4504   21206357.6964
      1243.3134
 04  9  3 16 11 45.0010000  0  6G20G11G14G 1G22G25
  -3346688.05347  -2593690.27043  23684846.7164   23684843.3214
      2699.0784
  -8709831.89549  -6784917.47947  21623606.9504   21623602.1304
       314.7814
  10190307.14449   7931969.58446  22124200.8334   22124196.3604
     -2670.6564
 -11197790.83649  -8710364.78746  21845913.5284   21845910.7044
      1684.9224
  13209970.20648  10281284.69943  24011786.7474   24011782.0714
     -2907.7504
 -12349904.05049  -9619324.68247  21202824.6854   21202821.2634
      1234.9064
 04  9  3 16 12  0.0010000  0  6G20G11G14G 1G22G25
  -3387169.59147  -2625234.31743  23677142.9034   23677139.1774
      2698.3594
  -8714487.68849  -6788545.37747  21622720.8724   21622715.9274
       305.7504
  10230384.44648   7963198.64346  22131826.7004   22131822.4704
     -2673.2194
 -11223029.47349  -8730031.24846  21841110.6854   21841107.5484
      1680.0944
  13253604.30548  10315285.22443  24020090.4194   24020085.8104
     -2910.1874
 -12368366.70349  -9633711.16647  21199311.4274   21199307.5914
      1226.6414
 04  9  3 16 12 15.0010000  0  6G20G11G14G 1G22G25
  -3427636.98847  -2656767.36443  23669442.2084   23669438.6034
      2697.2974
  -8719004.81049  -6792065.22247  21621861.3564   21621856.5134
       296.4534
  10270503.78348   7994460.45046  22139461.1144   22139457.1774
     -2676.0624
 -11248192.49149  -8749638.80046  21836322.1854   21836319.3534
      1675.0004
  13297277.19847  10349316.00743  24028400.8644   24028396.3374
     -2912.9064
 -12386702.17049  -9647998.53247  21195822.3644   21195818.6774
      1218.1564
 04  9  3 16 12 30.0010000  0  6G20G11G14G 1G22G25
  -3468091.11447  -2688290.02243  23661744.3724   23661740.4504
      2696.3914
  -8723383.97349  -6795477.56747  21621027.8024   21621023.0874
       287.1884
  10310664.26248   8025754.32146  22147103.8964   22147099.5564
     -2678.7974
 -11273280.75849  -8769188.08246  21831547.9504   21831544.6854
      1669.9694
  13340988.04948  10383376.39243  24036718.4744   24036713.9704
     -2915.4064
 -12404911.18949  -9662187.37547  21192357.3724   21192353.1224
      1209.5944
 04  9  3 16 12 45.0010000  0  6G20G11G14G 1G22G25
  -3508535.50447  -2719805.11743  23654047.9894   23654043.9814
      2696.0314
  -8727628.89949  -6798785.31347  21620220.2944   21620215.4814
       278.5474
  10350861.85948   8057077.10046  22154752.9274   22154748.4784
     -2681.0314
 -11298297.91949  -8788681.97646  21826787.2944   21826784.1104
      1665.4534
  13384733.16348  10417463.43543  24045042.5134   24045038.3294
     -2917.5164
 -12422997.33849  -9676280.47547  21188915.6064   21188911.9114
      1201.6094
 04  9  3 16 13  0.0010000  0  6G20G11G14G 1G22G25
  -3548968.74647  -2751311.52643  23646353.9114   23646350.4664
      2695.0944
  -8731738.31249  -6801987.45647  21619438.1924   21619433.4154
       269.3444
  10391097.55548   8088429.58446  22162409.8024   22162405.2554
     -2683.7194
 -11323242.84949  -8808119.56947  21822040.7474   21822037.7434
      1660.5164
  13428513.65848  10451578.07743  24053374.7394   24053370.3374
     -2919.8754
 -12440959.19549  -9690276.71147  21185497.8494   21185493.9624
      1193.2344
 04  9  3 16 13 15.0010000  0  6G20G11G14G 1G22G25
  -3589389.42547  -2782808.13943  23638661.2714   23638658.0834
      2694.2814
  -8735710.62149  -6805082.77147  21618682.5604   21618677.4274
       260.3134
  10431372.59148   8119812.71346  22170073.6464   22170069.4074
     -2686.2974
 -11348114.05649  -8827499.72447  21817308.1924   21817304.8064
      1655.6094
  13472330.93748  10485721.36643  24061712.4194   24061708.6534
     -2922.4224
 -12458795.19549  -9704174.88547  21182103.6774   21182099.2084
      1184.8914
 04  9  3 16 13 30.0010000  0  6G20G11G14G 1G22G25
  -3629797.27947  -2814294.78043  23630972.7394   23630968.8294
      2693.2814
  -8739545.91249  -6808071.31847  21617952.7394   21617947.7474
       251.0004
  10471686.88548   8151226.42746  22177745.5604   22177740.8214
     -2689.0474
 -11372911.53549  -8846822.43446  21812589.4274   21812586.0014
      1650.5944
  13516184.86048  10519893.21543  24070058.1144   24070053.8214
     -2924.9374
 -12476505.22949  -9717974.91147  21178733.7394   21178729.3884
      1176.3754
 04  9  3 16 13 45.0010000  0  6G20G11G14G 1G22G25
  -3670191.74748  -2845770.98243  23623285.7164   23623282.0094
      2692.7034
  -8743243.63349  -6810952.66847  21617248.8804   21617243.5604
       242.0634
  10512040.56849   8182670.84346  22185424.2244   22185419.4784
     -2691.4224
 -11397634.84749  -8866087.33647  21807884.4584   21807881.5714
      1645.9224
  13560075.83648  10554093.95843  24078410.1854   24078406.5564
     -2927.1414
 -12494088.80049  -9731676.38947  21175387.4504   21175383.2124
      1168.1564
 04  9  3 16 14  0.0010000  0  6G20G11G14G 1G22G25
  -3710574.41347  -2877237.99543  23615601.4584   23615597.7674
      2691.5004
  -8746805.31949  -6813728.01247  21616570.8414   21616566.0954
       232.6884
  10552431.82049   8214144.54146  22193111.0754   22193106.3804
     -2694.2504
 -11422285.60049  -8885295.71647  21803193.2944   21803190.3724
      1640.7664
  13604002.23948  10588322.27843  24086768.9194   24086765.0604
     -2929.8284
 -12511547.26749  -9745280.38447  21172065.6534   21172061.4424
      1159.5784
 04  9  3 16 14 15.0010000  0  6G20G11G14G 1G22G25
  -3750943.96247  -2908694.78943  23607919.2084   23607915.1464
      2690.8754
  -8750229.80649  -6816396.44247  21615919.2474   21615914.0014
       223.8134
  10592861.53549   8245648.19646  22200804.3804   22200799.7864
     -2696.5944
 -11446862.67249  -8904446.67447  21798516.8414   21798513.5014
      1636.0474
  13647965.17248  10622579.06843  24095134.6224   24095130.9624
     -2932.0314
 -12528879.32249  -9758785.87947  21168766.8724   21168763.1854
      1151.2974
 04  9  3 16 14 30.0010000  0  6G20G11G14G 1G22G25
  -3791301.73947  -2940142.37943  23600239.3964   23600234.8564
      2689.9844
  -8753518.61149  -6818959.15247  21615293.5674   21615289.1304
       214.6254
  10633327.95449   8277180.46346  22208504.7004   22208500.9424
     -2699.0624
 -11471367.69149  -8923541.47846  21793853.3724   21793850.1694
      1631.1724
  13691962.94848  10656863.01843  24103507.5214   24103503.5524
     -2934.4374
 -12546086.59749  -9772194.13047  21165492.4274   21165488.5284
      1142.8754
 04  9  3 16 14 45.0010000  0  6G20G11G14G 1G22G25
  -3831647.50248  -2971580.65643  23592562.4034   23592557.8494
      2689.4694
  -8756671.46249  -6821415.92247  21614693.6224   21614688.8994
       205.8444
  10673831.11649   8308741.35545  22216212.1384   22216208.5324
     -2701.2504
 -11495800.44749  -8942579.98746  21789203.8804   21789200.3884
      1626.6564
  13735995.73848  10691174.23343  24111887.0054   24111882.4504
     -2936.5164
 -12563168.67549  -9785504.83047  21162241.9194   21162237.8214
      1134.8284
 04  9  3 16 15  0.0010000  0  6G20G11G14G 1G22G25
  -3871979.73548  -3003008.36343  23584887.1304   23584882.5834
      2687.9224
  -8759686.83049  -6823765.57747  21614119.8024   21614114.7124
       196.0784
  10714372.22749   8340331.81445  22223926.7164   22223922.7164
     -2704.3284
 -11520159.51149  -8961561.07246  21784568.5134   21784565.0404
      1621.0784
  13780064.89948  10725513.80743  24120272.8334   24120269.0914
     -2939.5474
 -12580124.12549  -9798716.86647  21159015.3104   21159011.1424
      1125.7974
 04  9  3 16 15 15.0010000  0  6G20G11G14G 1G22G25
  -3912297.01848  -3034424.38443  23577214.3334   23577210.7204
      2687.3754
  -8762563.50349  -6826007.14547  21613572.2714   21613567.3884
       187.1724
  10754952.42749   8371952.72646  22231649.3644   22231645.1884
     -2706.6254
 -11544443.57649  -8980483.70846  21779947.5604   21779943.9894
      1616.5314
  13824171.77348  10759882.74743  24128665.6614   24128661.6884
     -2941.6414
 -12596951.45749  -9811829.07147  21155813.4974   21155809.5834
      1117.5634
 04  9  3 16 15 30.0010000  0  6G20G11G14G 1G22G25
  -3952601.37547  -3065830.37943  23569545.0134   23569541.0134
      2686.3914
  -8765303.57349  -6828142.26547  21613050.9354   21613046.5324
       178.0314
  10795569.28449   8403602.22346  22239378.4974   22239373.9504
     -2709.0624
 -11568654.70949  -8999349.50847  21775340.2164   21775337.1224
      1611.5474
  13868314.03548  10794279.30143  24137065.8024   24137061.2824
     -2944.0474
 -12613652.62349  -9824842.95847  21152635.3724   21152631.2434
      1109.1564
 04  9  3 16 15 45.0010000  0  6G20G11G14G 1G22G25
  -3992888.54748  -3097222.96643  23561878.7864   23561874.8994
      2685.3754
  -8767902.83749  -6830167.67847  21612556.4424   21612551.5444
       168.7194
  10836226.74449   8435283.33046  22247115.1924   22247111.0754
     -2711.7344
 -11592788.84149  -9018155.33047  21770747.8334   21770744.7044
      1606.4844
  13912495.78747  10828706.60143  24145472.8494   24145468.9934
     -2946.5944
 -12630223.35749  -9837755.21147  21149481.6774   21149477.8644
      1100.5164
 04  9  3 16 16  0.0010000  0  6G20G11G14G 1G22G25
  -4033160.84347  -3128603.96743  23554214.6224   23554210.9194
      2684.5474
  -8770363.72249  -6832085.25547  21612087.8884   21612083.1814
       159.6724
  10876922.09949   8466993.98546  22254859.3334   22254855.0324
     -2714.0784
 -11616848.51749  -9036903.11347  21766169.3414   21766166.4154
      1601.6724
  13956714.54448  10863162.73643  24153888.3334   24153883.9314
     -2948.9064
 -12646666.09149  -9850567.71547  21146352.9974   21146348.8294
      1092.1094
 04  9  3 16 16 15.0010000  0  6G20G11G14G 1G22G25
  -4073420.23647  -3159974.91743  23546553.2784   23546549.9464
      2683.5784
  -8772688.34149  -6833896.67247  21611645.8254   21611640.7204
       150.4534
  10917653.04249   8498732.36846  22262609.9114   22262606.0484
     -2716.5624
 -11640835.90949  -9055594.58347  21761604.3804   21761601.8684
      1596.7504
  14000968.07547  10897645.93043  24162309.4584   24162305.0954
     -2951.4224
 -12662982.92049  -9863282.14047  21143247.9974   21143244.1924
      1083.5634
 04  9  3 16 16 30.0010000  0  6G20G11G14G 1G22G25
  -4113666.00248  -3191335.24243  23538895.6144   23538891.5674
      2682.5314
  -8774876.07749  -6835601.41447  21611229.5444   21611225.0754
       141.1724
  10958419.96849   8530498.77846  22270367.7244   22270363.5444
     -2719.0784
 -11664750.43549  -9074229.27547  21757053.9034   21757050.7474
      1591.7034
  14045256.82846  10932156.63543  24170737.0994   24170733.7164
     -2953.7504
 -12679173.13049  -9875897.87447  21140167.2084   21140163.3174
      1075.0634
 04  9  3 16 16 45.0010000  0  6G20G11G14G 1G22G25
  -4153896.44148  -3222683.62443  23531239.6384   23531235.9784
      2681.3914
  -8776925.17449  -6837198.12047  21610839.6774   21610834.9854
       131.9064
  10999224.31449   8562294.36145  22278132.5914   22278128.2984
     -2721.6254
 -11688590.41049  -9092805.87247  21752516.9974   21752513.6424
      1586.7664
  14089582.51547  10966696.06543  24179172.2084   24179167.9784
     -2956.4374
 -12695234.96849  -9888413.58447  21137110.6464   21137106.5834
      1066.4224
 04  9  3 16 17  0.0010000  0  6G20G11G14G 1G22G25
  -4194111.43848  -3254019.97243  23523587.2714   23523583.3334
      2680.7504
  -8778835.80349  -6838686.91947  21610476.0604   21610470.9854
       123.0004
  11040065.88449   8594118.95546  22285904.5054   22285900.1964
     -2723.7974
 -11712356.01149  -9111324.49347  21747994.6464   21747991.8064
      1582.1254
  14133944.86447  11001264.11543  24187614.2784   24187610.1184
     -2958.5624
 -12711168.24949  -9900829.12047  21134078.4974   21134074.5174
      1058.1414
 04  9  3 16 17 15.0010000  0  6G20G11G14G 1G22G25
  -4234312.97248  -3285345.81143  23515936.8804   23515932.6384
      2679.2814
  -8780610.02749  -6840069.44947  21610138.4584   21610133.4034
       113.3444
  11080942.29449   8625970.67946  22293683.2714   22293678.6924
     -2726.6254
 -11736049.29849  -9129786.79947  21743486.2084   21743482.9424
      1576.7504
  14178341.85347  11035859.11843  24196062.2784   24196058.2004
     -2961.1874
 -12726975.04449  -9913146.09347  21131070.5994   21131066.3884
      1049.2504
 04  9  3 16 17 30.0010000  0  6G20G11G14G 1G22G25
  -4274500.25548  -3316660.57943  23508289.2714   23508285.5754
      2678.5784
  -8782247.08349  -6841345.07547  21609826.6064   21609822.1064
       104.4064
  11121854.10149   8657849.98545  22301468.3724   22301463.6104
     -2728.8594
 -11759669.43949  -9148192.09846  21738991.5364   21738988.1574
      1572.0944
  14222774.23046  11070481.72643  24204517.0754   24204513.8884
     -2963.5474
 -12742654.42049  -9925363.77447  21128086.9354   21128083.0214
      1040.8914
 04  9  3 16 17 45.0010000  0  6G20G11G14G 1G22G25
  -4314673.69648  -3347964.53143  23500644.4814   23500641.1814
      2677.5784
  -8783747.52349  -6842514.26147  21609541.4194   21609536.6184
        95.2814
  11162800.35049   8689756.14645  22309260.1614   22309255.8174
     -2731.1414
 -11783217.20749  -9166540.99446  21734510.4034   21734506.5284
      1567.2344
  14267241.06747  11105131.15043  24212979.6854   24212975.4074
     -2965.7504
 -12758206.97349  -9937482.63647  21125126.9814   21125123.0524
      1032.3754
 04  9  3 16 18  0.0010000  0  6G20G11G14G 1G22G25
  -4354831.19848  -3379256.09743  23493003.2784   23492999.3104
      2676.9064
  -8785109.26749  -6843575.37147  21609281.9424   21609277.5604
        86.3594
  11203782.90849   8721690.58446  22317058.7004   22317054.4814
     -2733.1414
 -11806690.52749  -9184831.88847  21730043.7004   21730040.2594
      1562.6414
  14311744.43446  11139809.06643  24221448.6064   24221443.8494
     -2967.8754
 -12773630.61449  -9949501.05047  21122192.2314   21122188.1064
      1024.2344
 04  9  3 16 18 15.0010000  0  6G20G11G14G 1G22G25
  -4394974.86248  -3410536.88243  23485364.6464   23485360.1694
      2675.7814
  -8786334.59049  -6844530.17947  21609049.0214   21609044.8764
        77.1884
  11244799.41749   8753651.48445  22324864.1854   22324859.4314
     -2735.5164
 -11830091.61049  -9203066.50147  21725590.3644   21725587.1494
      1557.6884
  14356282.07246  11174513.68343  24229923.1064   24229919.0914
     -2970.2344
 -12788927.39849  -9961420.62347  21119281.3564   21119277.2044
      1015.6254
 04  9  3 16 18 30.0010000  0  6G20G11G14G 1G22G25
  -4435100.63648  -3441803.69443  23477728.2864   23477724.6924
      2674.3444
  -8787419.47348  -6845375.54447  21608842.3254   21608837.7164
        67.5944
  11285853.57549   8785641.72545  22332676.1614   22332672.2674
     -2738.2974
 -11853416.56249  -9221241.77847  21721151.8334   21721148.9384
      1552.3914
  14400857.88846  11209248.02542  24238405.1694   24238401.8214
     -2973.1564
 -12804093.23749  -9973238.14347  21116395.2634   21116391.4314
      1006.6094
 04  9  3 16 18 45.0010000  0  6G20G11G14G 1G22G25
  -4475207.78148  -3473056.00843  23470096.1304   23470092.3494
      2673.1564
  -8788363.37049  -6846111.06647  21608662.9424   21608657.9934
        58.1724
  11326945.80349   8817661.61045  22340495.9114   22340491.8564
     -2740.8594
 -11876664.88449  -9239357.36147  21716727.7314   21716724.7124
      1547.2664
  14445472.28846  11244012.44942  24246895.4114   24246891.2984
     -2975.7344
 -12819127.60949  -9984953.24747  21113534.3334   21113530.4074
       997.8284
 04  9  3 16 19  0.0010000  0  6G20G11G14G 1G22G25
  -4515299.38348  -3504296.23843  23462467.2474   23462463.3214
      2672.3284
  -8789169.41849  -6846739.16847  21608509.3564   21608504.6654
        49.2664
  11368072.65949   8849708.50645  22348322.5754   22348318.1854
     -2742.8284
 -11899839.72849  -9257415.67247  21712317.8254   21712314.3334
      1542.7814
  14490122.03546  11278804.45242  24255392.3884   24255387.6304
     -2977.7034
 -12834033.58249  -9996568.28447  21110697.7634   21110694.3994
       989.6414
 04  9  3 16 19 15.0010000  0  6G20G11G14G 1G22G25
  -4555376.98148  -3535525.48643  23454840.6384   23454836.8494
      2671.4534
  -8789839.37749  -6847261.21247  21608382.1464   21608377.5564
        40.1564
  11409232.33849   8881780.96645  22356154.7784   22356150.6184
     -2744.9374
 -11922942.80749  -9275418.05647  21707921.1774   21707918.1034
      1537.8914
  14534805.33746  11313622.53742  24263895.1614   24263890.6494
     -2979.9534
 -12848812.59749 -10008084.39047  21107885.5214   21107881.6614
       981.0784
 04  9  3 16 19 30.0010000  0  6G20G11G14G 1G22G25
  -4595439.15148  -3566742.75743  23447216.2864   23447213.0914
      2670.2194
  -8790371.81049  -6847676.10147  21608280.4504   21608276.0834
        30.7814
  11450425.93049   8913879.85045  22363993.3414   22363989.2784
     -2747.5474
 -11945972.88249  -9293363.56747  21703538.8254   21703535.5524
      1532.8284
  14579523.56546  11348467.86442  24272404.8724   24272400.4034
     -2982.4844
 -12863463.53149 -10019500.68747  21105097.4274   21105093.7824
       972.3134
 04  9  3 16 19 45.0010000  0  6G20G11G14G 1G22G25
  -4635482.97648  -3597945.74543  23439596.7004   23439592.5524
      2668.8134
  -8790763.94348  -6847981.67347  21608206.3024   21608201.4274
        21.2664
  11491655.88949   8946007.08645  22371839.5214   22371834.9784
     -2750.0004
 -11968927.25049  -9311250.07847  21699170.6144   21699167.4704
      1527.5944
  14624279.32446  11383342.44143  24280922.2084   24280917.4354
     -2985.0944
 -12877983.40249 -10030814.86547  21102334.5214   21102330.9424
       963.4224
 04  9  3 16 20  0.0010000  0  6G20G11G14G 1G22G25
  -4675510.48848  -3629136.00243  23431979.2864   23431975.7244
      2668.1884
  -8791017.92649  -6848179.59647  21608157.9194   21608153.3374
        12.4384
  11532919.91249   8978160.83945  22379691.9744   22379687.4154
     -2751.9224
 -11991808.09449  -9329079.29947  21694816.7714   21694813.8844
      1523.0634
  14669070.47746  11418244.58243  24289445.7244   24289441.3724
     -2987.1094
 -12892374.25649 -10042028.51047  21099596.2314   21099592.3024
       955.2344
 04  9  3 16 20 15.0010000  0  6G20G11G14G 1G22G25
  -4715521.17248  -3660313.11343  23424365.8564   23424361.6884
      2666.8284
  -8791133.32349  -6848269.51247  21608135.8104   21608131.0444
         3.0784
  11574218.21049   9010341.33145  22387550.4194   22387546.4384
     -2754.3444
 -12014614.88749  -9346850.82447  21690476.4194   21690473.5564
      1517.9694
  14713897.34046  11453174.59543  24297975.3804   24297971.7744
     -2989.5944
 -12906635.59449 -10053141.23247  21096882.3804   21096877.8534
       946.4064
 04  9  3 16 20 30.0010000  0  6G20G11G14G 1G22G25
  -4755514.07048  -3691476.41043  23416754.8334   23416750.5994
      2665.6254
  -8791109.45749  -6848250.93047  21608140.2714   21608135.5954
        -6.1564
  11615551.28449   9042548.90445  22395415.5284   22395411.6264
     -2756.6564
 -12037346.95649  -9364564.11847  21686151.0994   21686148.1854
      1513.0944
  14758760.49746  11488132.83043  24306512.7164   24306508.4854
     -2992.0784
 -12920766.57049 -10064152.37047  21094193.0054   21094189.0914
       937.7664
 04  9  3 16 20 45.0010000  0  6G20G11G14G 1G22G25
  -4795491.40448  -3722627.59443  23409148.5284   23409143.4974
      2664.6094
  -8790948.65649  -6848125.63647  21608171.2164   21608166.4544
       -15.4064
  11656916.61249   9074781.60445  22403287.3964   22403283.8804
     -2758.8444
 -12060006.68549  -9382221.05647  21681838.8104   21681836.1964
      1508.1414
  14803657.66547  11523117.59743  24315056.2944   24315052.7634
     -2994.4064
 -12934769.40849 -10075063.66547  21091528.6304   21091524.9464
       929.1254
 04  9  3 16 21  0.0010000  0  6G20G11G14G 1G22G25
  -4835451.96848  -3753765.68243  23401543.8804   23401539.3534
      2663.4064
  -8790649.80149  -6847892.77447  21608228.1464   21608223.4974
       -24.5944
  11698315.07949   9107040.13545  22411165.3884   22411161.5954
     -2761.1094
 -12082592.99049  -9399820.75547  21677540.8254   21677537.6774
      1503.2034
  14848589.78947  11558129.58843  24323606.7554   24323603.0054
     -2996.7034
 -12948642.92449 -10085874.20647  21088889.0524   21088884.3764
       920.5164
 04  9  3 16 21 15.0010000  0  6G20G11G14G 1G22G25
  -4875395.68048  -3784890.64343  23393942.6694   23393938.7354
      2662.5474
  -8790212.85249  -6847552.29147  21608311.0214   21608306.2474
       -33.5624
  11739746.62449   9139324.43845  22419049.4424   22419045.5794
     -2763.0004
 -12105105.83949  -9417363.23347  21673256.7004   21673253.7864
      1498.6414
  14893556.81946  11593168.77943  24332163.8254   24332159.7984
     -2998.7504
 -12962387.00049 -10096583.85847  21086273.0834   21086268.6494
       912.2194
 04  9  3 16 21 30.0010000  0  6G20G11G14G 1G22G25
  -4915323.46048  -3816003.21243  23386344.4354   23386340.8414
      2661.5164
  -8789638.82549  -6847105.01347  21608420.7084   21608416.1614
       -42.6414
  11781209.86049   9171633.43945  22426939.8724   22426935.3564
     -2765.0474
 -12127546.38749  -9434849.37547  21668986.5754   21668983.2714
      1493.7814
  14938557.59547  11628234.29543  24340727.6854   24340723.0484
     -3001.0164
 -12976002.60249 -10107193.41547  21083682.1854   21083678.1184
       903.5944
 04  9  3 16 21 45.0010000  0  6G20G11G14G 1G22G25
  -4955235.02548  -3847103.11644  23378749.8644   23378745.8294
      2660.0944
  -8788927.75449  -6846550.93947  21608555.1774   21608550.9314
       -52.1254
  11822704.67549   9203967.04945  22434835.7314   22434831.7984
     -2767.4374
 -12149914.53249  -9452279.09847  21664730.0444   21664726.6494
      1488.6414
  14983592.20347  11663326.11943  24349297.2474   24349293.1424
     -3003.5164
 -12989489.65949 -10117702.80247  21081115.8964   21081111.7164
       894.7344
 04  9  3 16 22  0.0010000  0  6G20G11G14G 1G22G25
  -4995128.60948  -3878189.02344  23371158.0444   23371154.2824
      2658.9534
  -8788077.82748  -6845888.65847  21608717.2394   21608712.8494
       -61.3444
  11864232.63849   9236326.49145  22442738.5524   22442733.9814
     -2769.6254
 -12172208.65949  -9469651.13247  21660487.8334   21660484.3764
      1483.7194
  15028662.26347  11698445.61943  24357874.2244   24357869.7244
     -3005.9694
 -13002846.41949 -10128110.66147  21078573.8174   21078568.9504
       886.0944
 04  9  3 16 22 15.0010000  0  6G20G11G14G 1G22G25
  -5035006.72248  -3909262.87844  23363570.2314   23363566.0284
      2657.9384
  -8787091.93949  -6845120.43847  21608904.7714   21608900.0754
       -70.3914
  11905790.83849   9268709.47745  22450646.5364   22450642.4354
     -2771.6564
 -12194431.45049  -9486967.59147  21656258.5754   21656255.3604
      1479.0164
  15073764.89447  11733590.50443  24366456.4034   24366452.7944
     -3008.0164
 -13016075.40849 -10138418.95847  21076056.4354   21076052.1424
       877.5314
 04  9  3 16 22 30.0010000  0  6G20G11G14G 1G22G25
  -5074866.85948  -3940322.69544  23355985.1384   23355980.3174
      2656.4844
  -8785967.50849  -6844244.27847  21609118.7474   21609114.1964
       -79.7974
  11947381.44749   9301117.74145  22458561.2944   22458557.0014
     -2774.0314
 -12216580.48449  -9504226.57847  21652044.1144   21652040.8564
      1473.9224
  15118902.52048  11768762.59943  24375046.0994   24375042.3454
     -3010.5784
 -13029174.15249 -10148625.75847  21073564.2084   21073559.8684
       868.7194
 04  9  3 16 22 45.0010000  0  6G20G11G14G 1G22G25
  -5114709.55348  -3971368.94844  23348402.9274   23348399.2554
      2655.5634
  -8784705.23749  -6843260.69047  21609359.0524   21609354.2594
       -88.8124
  11989003.60649   9333550.56245  22466481.6304   22466477.5524
     -2775.9374
 -12238656.52949  -9521428.68647  21647842.7554   21647840.4274
      1469.2194
  15164074.44448  11803961.43243  24383641.8254   24383637.7904
     -3012.7034
 -13042143.27549 -10158731.56347  21071095.7084   21071092.0014
       860.2194
 04  9  3 16 23  0.0010000  0  6G20G11G14G 1G22G25
  -5154534.58248  -4002401.41044  23340824.7314   23340820.3494
      2654.5314
  -8783305.09948  -6842169.69747  21609625.6924   21609620.7984
       -97.8444
  12030657.21749   9366007.90345  22474408.2084   22474403.8254
     -2777.8914
 -12260659.49149  -9538573.83747  21643655.6064   21643652.7634
      1464.5474
  15209280.60648  11839186.98643  24392244.3494   24392241.1384
     -3014.7034
 -13054982.71248 -10168736.31447  21068652.8254   21068648.5634
       851.7814
 04  9  3 16 23 15.0010000  0  6G20G11G14G 1G22G25
  -5194344.92848  -4033422.46044  23333249.0834   23333245.2084
      2653.5944
  -8781770.27449  -6840973.72347  21609917.0364   21609912.9384
      -106.7344
  12072338.94149   9398487.16145  22482339.7394   22482335.3174
     -2779.6564
 -12282592.58749  -9555664.55646  21639481.9814   21639479.3104
      1459.8914
  15254517.80548  11874436.69243  24400853.0604   24400849.1464
     -3016.8594
 -13067695.52749 -10178642.39747  21066233.5914   21066229.6224
       843.3754
 04  9  3 16 23 30.0010000  0  6G20G11G14G 1G22G25
  -5234136.44848  -4064428.82944  23325676.6534   23325673.4034
      2652.0314
  -8780096.54949  -6839669.53047  21610235.9894   21610231.7314
      -116.3594
  12114052.63649   9430991.32645  22490277.8174   22490273.5094
     -2782.0944
 -12304451.77849  -9572697.67947  21635322.1694   21635319.5524
      1454.6564
  15299789.99748  11909713.69143  24409467.5054   24409463.8414
     -3019.4374
 -13080277.49349 -10188446.51547  21063839.0214   21063835.0874
       834.3284
 04  9  3 16 23 45.0010000  0  6G20G11G14G 1G22G25
  -5273908.73648  -4095420.20844  23318108.5604   23318104.5444
      2650.5944
  -8778283.76049  -6838256.98247  21610581.2314   21610576.6184
      -125.6564
  12155798.29749   9463520.40345  22498221.7474   22498217.9464
     -2784.3594
 -12326236.82949  -9589673.03947  21631176.8884   21631174.1264
      1449.6724
  15345097.39848  11945018.13743  24418089.7004   24418085.7634
     -3021.8914
 -13092728.30249 -10198148.44647  21061469.9034   21061465.8644
       825.3754
 04  9  3 16 24  0.0010000  0  6G20G11G14G 1G22G25
  -5313663.05048  -4126397.58544  23310543.4194   23310539.8844
      2649.6094
  -8776333.38349  -6836737.20747  21610952.2784   21610947.6614
      -134.6254
  12197574.31449   9496073.14345  22506171.4114   22506167.2904
     -2786.0944
 -12347949.14449  -9606591.71047  21627045.2784   21627042.1064
      1445.0164
  15390438.55548  11980348.86143  24426717.7944   24426713.7284
     -3023.9064
 -13105049.34649 -10207749.23847  21059125.2244   21059120.8174
       817.0314
 04  9  3 16 24 15.0010000  0  6G20G11G14G 1G22G25
  -5353396.81048  -4157358.95644  23302982.2244   23302978.4274
      2648.2344
  -8774242.90149  -6835108.27247  21611350.1064   21611345.1854
      -143.9844
  12239383.19049   9528651.46545  22514127.2084   22514122.7124
     -2788.2814
 -12369586.21749  -9623451.76547  21622927.8964   21622924.3454
      1440.0474
  15435815.87747  12015707.76343  24435352.7394   24435349.2864
     -3026.3594
 -13117237.98148 -10217246.87647  21056805.5754   21056801.6264
       808.1724
 04  9  3 16 24 30.0010000  0  6G20G11G14G 1G22G25
  -5393111.57048  -4188305.53444  23295425.1384   23295420.9814
      2646.9534
  -8772014.28448  -6833371.68947  21611774.1064   21611769.5214
      -153.2504
  12281222.69549   9561253.65145  22522089.1224   22522085.2004
     -2790.3594
 -12391149.98349  -9640254.69647  21618824.3494   21618821.2514
      1435.0784
  15481227.41547  12051093.36943  24443994.3644   24443990.3924
     -3028.6564
 -13129296.10748 -10226642.81447  21054511.4194   21054507.3214
       799.4064
 04  9  3 16 24 45.0010000  0  6G20G11G14G 1G22G25
  -5432808.86448  -4219238.45944  23287870.4894   23287866.5754
      2645.7664
  -8769648.98749  -6831528.61247  21612224.3564   21612219.8764
      -162.3914
  12323091.11349   9593878.38445  22530056.5214   22530052.1654
     -2792.2974
 -12412642.00349  -9657001.71647  21614734.6064   21614731.1494
      1430.2814
  15526671.67547  12086504.43743  24452641.9744   24452637.9704
     -3030.8444
 -13141225.04048 -10235938.08547  21052241.2634   21052237.0094
       790.8444
 04  9  3 16 25  0.0010000  0  5G20G11G14G 1G25
  -5472486.27948  -4250155.91144  23280319.3334   23280315.8994
      2644.6254
  -8767144.76348  -6829577.26647  21612700.5994   21612696.1184
      -171.5784
  12364990.56349   9626527.29645  22538029.5284   22538025.3494
     -2794.2034
 -12434060.09349  -9673691.12347  21610658.6384   21610655.7714
      1425.4694
 -13153022.50748 -10245130.90147  21049996.0674   21049992.3494
       782.2194
 04  9  3 16 25 15.0010000  0  5G20G11G14G 1G25
  -5512143.65848  -4281057.76144  23272773.8254   23272769.6574
      2642.9844
  -8764501.76349  -6827517.79647  21613203.7554   21613198.9894
      -180.9064
  12406920.77049   9659200.15645  22546008.7864   22546004.3334
     -2796.4374
 -12455404.33649  -9690322.99947  21606597.4894   21606593.7714
      1420.3914
 -13164688.48149 -10254221.27147  21047776.5134   21047772.0914
       773.2814
 04  9  3 16 25 30.0010000  0  5G20G11G14G 1G25
  -5551781.06948  -4311944.03644  23265230.4114   23265226.8884
      2642.0634
  -8761719.95949  -6825350.16047  21613733.3414   21613728.1574
      -189.9064
  12448881.47549   9691896.81645  22553993.5134   22553989.2594
     -2798.1564
 -12476674.86149  -9706897.42347  21602549.4194   21602546.4624
      1415.8134
 -13176223.10649 -10263209.26847  21045581.0054   21045577.1614
       764.7814
 04  9  3 16 25 45.0010000  0  5G20G11G14G 1G25
  -5591397.96148  -4342814.34444  23257691.6694   23257688.3134
      2640.3594
  -8758799.01949  -6823074.11647  21614288.8964   21614284.3684
      -199.4694
  12490872.76749   9724617.27645  22561984.5524   22561979.7714
     -2800.5314
 -12497871.42249  -9723414.23047  21598515.8254   21598512.7314
      1410.5474
 -13187625.99549 -10272094.64647  21043411.6854   21043407.2554
       755.7344
 04  9  3 16 26  0.0010000  0  5G20G11G14G 1G25
  -5630994.66248  -4373668.89444  23250156.4584   23250153.1384
      2638.8444
  -8755739.63949  -6820690.19247  21614871.3494   21614866.1494
      -208.7504
  12532894.02149   9757361.09045  22569980.7714   22569976.4784
     -2802.6724
 -12518994.45749  -9739873.72547  21594496.2714   21594493.2594
      1405.5164
 -13198897.53049 -10280877.66347  21041266.6534   21041262.2434
       746.7504
 04  9  3 16 26 15.0010000  0  5G20G11G14G 1G25
  -5670568.08248  -4404505.31844  23242625.8254   23242622.4744
      2637.7034
  -8752538.78849  -6818196.01747  21615480.2864   21615475.2434
      -217.8594
  12574948.05749   9790130.47245  22577983.5754   22577979.2084
     -2804.4534
 -12540040.99549  -9756273.62047  21590491.2164   21590487.7744
      1400.7504
 -13210034.51749 -10289555.82447  21039147.4664   21039142.7674
       738.2344
 04  9  3 16 26 30.0010000  0  5G20G11G14G 1G25
  -5710121.29848  -4435325.99644  23235099.8414   23235095.5874
      2636.0314
  -8749199.77749  -6815594.20046  21616115.6534   21616110.9504
      -227.3594
  12617031.34049   9822922.62045  22585991.7314   22585987.5364
     -2806.6874
 -12561014.35349  -9772616.48847  21586499.8724   21586497.0634
      1395.6094
 -13221040.29649 -10298131.75047  21037052.7004   21037048.8454
       729.1724
 04  9  3 16 26 45.0010000  0  5G20G11G14G 1G25
  -5749650.35648  -4466127.86844  23227577.7244   23227573.4934
      2634.1724
  -8745718.87948  -6812881.83447  21616777.9424   21616772.8294
      -237.2194
  12659147.43249   9855740.33145  22594005.7004   22594002.1574
     -2809.0944
 -12581910.76249  -9788899.40947  21582523.3884   21582520.4784
      1390.2344
 -13231910.99648 -10306602.42947  21034984.3334   21034979.8064
       719.9224
 04  9  3 16 27  0.0010000  0  5G20G11G14G 1G25
  -5789155.94548  -4496911.43044  23220060.2944   23220056.4744
      2632.9534
  -8742096.75249  -6810059.39647  21617467.3334   21617462.5874
      -246.1564
  12701295.52149   9888582.98145  22602026.1854   22602022.1734
     -2810.9224
 -12602731.04449  -9805122.99547  21578561.8724   21578558.8024
      1385.4694
 -13242647.41149 -10314968.45447  21032941.1694   21032936.8844
       711.2974
 04  9  3 16 27 15.0010000  0  5G20G11G14G 1G25
  -5828641.33448  -4527679.25344  23212546.0364   23212542.1654
      2631.5944
  -8738336.90548  -6807129.64647  21618182.7554   21618177.9934
      -255.3594
  12743471.93549   9921447.71945  22610052.4354   22610048.5214
     -2812.7814
 -12623478.67149  -9821289.96347  21574613.7944   21574610.6464
      1380.6564
 -13253252.87048 -10323232.44147  21030922.7864   21030919.0794
       702.5314
 04  9  3 16 27 30.0010000  0  5G20G11G14G 1G25
  -5868104.22948  -4558429.53444  23205036.4584   23205032.5324
      2630.0944
  -8734437.20848  -6804090.93247  21618924.3804   21618919.7824
      -264.6564
  12785678.73049   9954336.11545  22618084.0284   22618080.5874
     -2814.8284
 -12644151.44049  -9837398.60847  21570679.7164   21570676.4314
      1375.7034
 -13263725.13848 -10331392.64647  21028929.7394   21028926.1494
       693.6884
 04  9  3 16 27 45.0010000  0  5G20G11G14G 1G25
  -5907541.11148  -4589159.57744  23197532.2864   23197528.0364
      2628.4384
  -8730394.35549  -6800940.66447  21619694.1854   21619689.2864
      -274.1094
  12827918.95549   9987250.55845  22626122.1924   22626118.0524
     -2816.9844
 -12664746.03149  -9853446.33547  21566760.5994   21566757.6694
      1370.5944
 -13274060.59149 -10339446.23947  21026963.1924   21026959.3494
       684.6254
 04  9  3 16 28  0.0010000  0  5G20G11G14G 1G25
  -5946958.58648  -4619874.47944  23190031.2084   23190027.2554
      2627.1884
  -8726215.00448  -6797684.03447  21620489.3724   21620484.7904
      -283.1254
  12870185.64649  10020185.62745  22634165.4274   22634161.6814
     -2818.6564
 -12685269.18949  -9869438.39947  21562855.5284   21562852.0954
      1365.8444
 -13284266.17548 -10347398.64147  21025021.1924   21025016.7394
       676.0004
 04  9  3 16 28 15.0010000  0  5G20G11G14G 1G25
  -5986355.93448  -4650573.71144  23182534.2554   23182529.9354
      2625.6724
  -8721898.75549  -6794320.73047  21621310.7714   21621306.2244
      -292.4694
  12912479.18349  10053141.62145  22642213.5994   22642210.0214
     -2820.6254
 -12705720.48849  -9885374.46947  21558963.4894   21558960.5054
      1360.9224
 -13294341.25349 -10355249.34547  21023104.2314   21023099.5914
       667.2344
 04  9  3 16 28 30.0010000  0  5G20G11G14G 1G25
  -6025731.24948  -4681255.76744  23175041.1304   23175036.8134
      2624.5004
  -8717443.88949  -6790849.41047  21622158.5994   21622154.2674
      -301.3754
  12954801.25349  10086119.83045  22650266.8564   22650263.1064
     -2822.1874
 -12726098.14149  -9901253.16047  21555085.5444   21555082.2514
      1356.1884
 -13304283.99549 -10362996.94447  21021212.0834   21021208.0604
       658.6724
 04  9  3 16 28 45.0010000  0  5G20G11G14G 1G25
  -6065084.14347  -4711920.34444  23167552.4744   23167548.5794
      2622.6884
  -8712850.16148  -6787269.89547  21623032.7314   21623027.6494
      -310.9844
  12997151.88449  10119120.30345  22658325.9894   22658321.7824
     -2824.4224
 -12746401.93249  -9917074.29947  21551221.9504   21551219.0444
      1351.0164
 -13314094.13049 -10370641.20447  21019345.2864   21019340.4154
       649.4844
 04  9  3 16 29  0.0010000  0  6G20G11G14G23G 1G25
  -6104413.29347  -4742566.42944  23160068.2944   23160064.1814
      2621.1564
  -8708116.55348  -6783581.38047  21623933.2864   21623928.9354
      -320.2664
  13039531.94449  10152143.70445  22666390.7634   22666386.7744
     -2826.2814
    -94232.27356    -59300.06652  24403907.2004   24403901.2124
      2698.3754
 -12766630.84949  -9932837.07747  21547372.4814   21547368.9234
      1346.1254
 -13323770.55748 -10378181.26847  21017504.0214   21017499.0564
       640.6414
 04  9  3 16 29 15.0010000  0  6G20G11G14G23G 1G25
  -6143719.02047  -4773194.25844  23152588.7474   23152584.5634
      2619.7194
  -8703243.54148  -6779784.23447  21624860.9194   21624856.3604
      -329.3914
  13081940.84749  10185189.59345  22674460.7244   22674456.7164
     -2828.0314
   -134689.33245    -90825.02042  24396206.6464   24396202.2864
      2696.1884
 -12786785.31849  -9948541.85347  21543537.0604   21543533.9624
      1341.2664
 -13333313.62548 -10385617.41947  21015687.5364   21015683.3534
       632.0004
 04  9  3 16 29 30.0010000  0  6G20G11G14G23G 1G25
  -6183006.07048  -4803807.53644  23145112.6774   23145108.5524
      2618.5004
  -8698235.98449  -6775882.24847  21625813.3644   21625809.1964
      -338.3284
  13124373.52249  10218253.98445  22682535.6614   22682531.4544
     -2829.6414
   -175117.52646   -122327.48842  24388514.3334   24388509.0174
      2694.1884
 -12806870.30649  -9964192.47447  21539715.5054   21539711.8564
      1336.6414
 -13342728.22949 -10392953.47147  21013896.1064   21013891.6034
       623.3594
 04  9  3 16 29 45.0010000  0  6G20G11G14G23G 1G25
  -6222270.81648  -4834403.42944  23137640.3174   23137636.4154
      2616.7344
  -8693090.41349  -6771872.72047  21626793.0994   21626788.2554
      -347.7814
  13166833.37749  10251339.57445  22690615.1304   22690611.1734
     -2831.6874
   -215513.37145   -153804.79242  24380826.9894   24380822.3174
      2691.7974
 -12826882.25649  -9979786.20847  21535907.1144   21535903.7124
      1331.5164
 -13352010.77448 -10400186.62347  21012129.7714   21012126.1694
       614.2504
 04  9  3 16 30  0.0010000  0  6G20G11G14G23G 1G25
  -6261513.15647  -4864981.87444  23130173.6924   23130168.9584
      2615.4224
  -8687807.04848  -6767755.82547  21627798.3644   21627793.3924
      -356.8284
  13209320.15549  10284446.14445  22698700.8104   22698696.3254
     -2833.3124
   -255876.93345   -185256.89142  24373147.4274   24373141.2354
      2689.7034
 -12846821.39949  -9995323.19247  21532113.2314   21532109.9624
      1326.8444
 -13361161.23749 -10407316.84147  21010388.5754   21010384.8104
       605.6724
 04  9  3 16 30 15.0010000  0  6G20G11G14G23G 1G25
  -6300732.24647  -4895542.19744  23122710.1064   23122705.7864
      2613.7814
  -8682385.15548  -6763530.97847  21628830.1614   21628825.5874
      -366.0944
  13251834.12449  10317573.89245  22706790.2944   22706786.3174
     -2835.2034
   -296207.46645   -216683.25142  24365471.5834   24365466.2314
      2687.7034
 -12866687.06049 -10010802.91847  21528332.3964   21528329.4584
      1321.8754
 -13370179.05149 -10414343.71547  21008672.6694   21008668.5444
       596.7034
 04  9  3 16 30 30.0010000  0  6G20G11G14G23G 1G25
  -6339926.91548  -4926083.48244  23115251.5524   23115247.2314
      2612.0944
  -8676823.76548  -6759197.43347  21629888.1774   21629883.3964
      -375.4694
  13294376.31349  10350723.61645  22714886.3254   22714882.2244
     -2837.1724
   -336503.64146   -248082.82942  24357802.5994   24357797.2824
      2685.1724
 -12886478.15949 -10026224.55247  21524566.5674   21524563.6264
      1316.9224
 -13379063.00248 -10421266.25647  21006981.9504   21006977.9584
       587.7504
 04  9  3 16 30 45.0010000  0  6G20G11G14G23G 1G25
  -6379097.68248  -4956606.15544  23107797.1144   23107792.9854
      2610.4224
  -8671123.64848  -6754755.78547  21630972.9504   21630968.3134
      -384.7034
  13336945.87049  10383894.68345  22722987.1064   22722983.1064
     -2838.9694
   -376766.29846   -279456.35842  24350141.2784   24350136.0134
      2683.0164
 -12906195.44049 -10041588.65247  21520814.8494   21520811.4114
      1311.8914
 -13387813.78648 -10428085.05547  21005316.7004   21005313.0174
       578.8444
 04  9  3 16 31  0.0010000  0  6G20G11G14G23G 1G25
  -6418243.06347  -4987109.03944  23100347.9194   23100343.7474
      2608.7344
  -8665283.68949  -6750205.17747  21632084.4744   21632079.7744
      -394.2034
  13379544.04349  10417088.04245  22731092.8724   22731089.2204
     -2841.0004
   -416994.00246   -310802.57842  24342486.6384   24342481.5014
      2680.5474
 -12925837.57849 -10056894.21347  21517076.4974   21517073.1964
      1306.7814
 -13396429.90348 -10434798.90447  21003677.4424   21003673.1344
       569.7814
 04  9  3 16 31 15.0010000  0  6G20G11G14G23G 1G25
  -6457366.97647  -5017595.19644  23092902.9424   23092899.6184
      2607.4384
  -8659307.70449  -6745548.57547  21633221.8104   21633217.2084
      -403.0164
  13422166.35348  10450300.22145  22739203.6464   22739199.5094
     -2842.3754
   -457190.90347   -342124.84042  24334836.9194   24334833.2284
      2678.6884
 -12945408.82549 -10072144.52847  21513352.2864   21513348.9624
      1302.2974
 -13404915.54149 -10441411.08947  21002062.4664   21002058.3414
       561.2974
 04  9  3 16 31 30.0010000  0  6G20G11G14G23G 1G25
  -6496467.12747  -5048062.81344  23085462.9664   23085458.6494
      2605.6724
  -8653193.63948  -6740784.36647  21634385.2164   21634380.6574
      -412.3594
  13464814.81548  10483532.76045  22747319.3804   22747315.4894
     -2844.3124
   -497354.75146   -373421.32043  24327195.2004   24327190.3294
      2676.3284
 -12964907.07849 -10087337.95947  21509641.8884   21509638.7904
      1297.2664
 -13413268.58748 -10447919.94947  21000473.0284   21000468.8374
       552.2974
 04  9  3 16 31 45.0010000  0  6G20G11G14G23G 1G25
  -6535543.98947  -5078512.32544  23078026.5994   23078023.0524
      2604.0944
  -8646942.35249  -6735913.24447  21635574.6064   21635570.0444
      -421.5164
  13507488.71949  10516785.14245  22755440.0364   22755436.2714
     -2846.0474
   -537486.17747   -404692.54443  24319558.1224   24319552.8214
      2674.1254
 -12984332.82349 -10102474.89647  21505945.4034   21505942.0134
      1292.4224
 -13421489.48649 -10454325.83247  20998908.5444   20998904.7434
       543.4224
 04  9  3 16 32  0.0010000  0  6G20G11G14G23G 1G25
  -6574594.20247  -5108941.04144  23070595.3964   23070591.4504
      2602.6564
  -8640550.63849  -6730932.70047  21636790.9354   21636786.2284
      -430.5784
  13550191.01048  10550059.63445  22763565.9974   22763562.1574
     -2847.4534
   -577581.98647   -435936.03343  24311928.3644   24311922.5174
      2672.1254
 -13003683.00349 -10117552.95947  21502263.3414   21502259.4074
      1287.7814
 -13429575.06949 -10460626.28647  20997369.9814   20997366.0444
       534.7974
 04  9  3 16 32 15.0010000  0  6G20G11G14G23G 1G25
  -6613621.84648  -5139352.18544  23063169.1614   23063164.3214
      2601.1414
  -8634022.71348  -6725846.01047  21638033.1224   21638028.5604
      -439.6874
  13592917.38449  10583352.89145  22771697.0834   22771692.9464
     -2849.1724
   -617646.16146   -467154.83942  24304303.5134   24304299.0604
      2669.9224
 -13022961.79149 -10132575.38847  21498594.4814   21498591.2084
      1282.8754
 -13437529.44149 -10466824.49447  20995856.3334   20995852.4934
       525.9384
 04  9  3 16 32 30.0010000  0  6G20G11G14G23G 1G25
  -6652626.10447  -5169745.10144  23055746.6774   23055742.6264
      2599.5164
  -8627358.10648  -6720652.81747  21639301.2784   21639296.5834
      -448.7814
  13635668.13449  10616665.14445  22779832.1144   22779828.4194
     -2850.7504
   -657678.19346   -498348.61543  24296685.9274   24296681.3294
      2667.8444
 -13042168.70749 -10147541.80547  21494939.7554   21494936.8454
      1278.1254
 -13445352.15749 -10472920.10947  20994367.5284   20994363.7904
       517.2504
 04  9  3 16 32 45.0010000  0  6G20G11G14G23G 1G25
  -6691603.81447  -5200117.33744  23048329.6924   23048325.2824
      2597.9064
  -8620553.76248  -6715350.72847  21640595.6854   21640591.4384
      -457.9694
  13678446.21149  10649998.69745  22787972.5214   22787968.3994
     -2852.4694
   -697674.93546   -529514.91543  24289075.1534   24289070.1264
      2665.5944
 -13061300.75249 -10162449.88647  21491298.9814   21491295.6574
      1273.3134
 -13453039.95149 -10478910.59047  20992904.5604   20992900.5444
       508.3284
 04  9  3 16 33  0.0010000  0  6G20G11G14G23G 1G25
  -6730554.82548  -5230468.77244  23040917.5284   23040913.0604
      2595.8134
  -8613609.71549  -6709939.80247  21641917.5834   21641912.7244
      -467.6724
  13721251.52948  10683353.46345  22796118.6224   22796114.1144
     -2854.6724
   -737636.23746   -560653.56643  24281470.1694   24281465.6694
      2662.8444
 -13080357.97249 -10177299.66847  21487672.1464   21487669.1064
      1267.9384
 -13460592.93349 -10484796.03247  20991467.1774   20991462.9154
       498.9534
 04  9  3 16 33 15.0010000  0  6G20G11G14G23G 1G25
  -6769478.70648  -5260799.05844  23033510.3644   23033506.3174
      2594.0314
  -8606525.94148  -6704419.98747  21643265.2944   21643260.7944
      -476.8594
  13764084.00749  10716729.39345  22804268.8724   22804264.9274
     -2856.3914
   -777562.03246   -591764.55343  24273872.3804   24273867.5054
      2660.5784
 -13099340.20649 -10192091.01147  21484060.0214   21484056.7394
      1263.0784
 -13468010.80648 -10490576.19447  20990055.8564   20990051.4894
       490.0944
 04  9  3 16 33 30.0010000  0  6G20G11G14G23G 1G25
  -6808377.52748  -5291109.80744  23026108.0134   23026104.2124
      2592.1414
  -8599304.63148  -6698793.00547  21644639.9354   21644635.3604
      -486.2504
  13806941.36348  10750124.72245  22812424.5604   22812420.4274
     -2858.2194
   -817454.28247   -622849.39443  24266281.3334   24266275.7514
      2658.1254
 -13118249.54649 -10206825.55047  21480461.9424   21480458.1854
      1257.9224
 -13475295.75049 -10496252.76647  20988669.3724   20988664.8724
       481.0004
 04  9  3 16 33 45.0010000  0  6G20G11G14G23G 1G25
  -6847248.62348  -5321398.96044  23018710.8254   23018706.8104
      2590.6884
  -8591943.34048  -6693056.93147  21646040.4584   21646036.1264
      -495.1874
  13849825.79249  10783541.14945  22820585.1534   22820581.3994
     -2859.6724
   -857310.55246   -653906.20743  24258697.2714   24258691.8764
      2656.1254
 -13137083.64949 -10221501.46647  21476877.9584   21476874.8724
      1253.3284
 -13482445.35348 -10501823.86347  20987308.8024   20987304.4074
       472.3754
 04  9  3 16 34  0.0010000  0  6G20G11G14G23G 1G25
  -6886092.56148  -5351666.96644  23011319.0674   23011315.2004
      2588.9384
  -8584442.79449  -6687212.36447  21647467.9744   21647463.0174
      -504.4374
  13892736.54549  10816978.09045  22828750.9744   22828746.7944
     -2861.3444
   -897131.37446   -684935.41443  24251120.2714   24251113.8724
      2653.7034
 -13155843.24849 -10236119.32647  21473308.2004   21473304.5674
      1248.3914
 -13489460.16149 -10507289.94247  20985973.9894   20985969.8494
       463.3754
 04  9  3 16 34 15.0010000  0  6G20G11G14G23G 1G25
  -6924912.77348  -5381916.46944  23003931.7714   23003927.6964
      2586.9694
  -8576806.65748  -6681262.14347  21648921.2314   21648916.3024
      -513.8284
  13935669.80749  10850432.55245  22836920.9034   22836916.1814
     -2863.1564
   -936920.57547   -715939.95943  24243547.8414   24243542.2394
      2651.3594
 -13174531.99749 -10250681.99247  21469751.9194   21469747.8334
      1243.4064
 -13496343.89448 -10512653.88447  20984663.8724   20984659.8564
       454.3914
 04  9  3 16 34 30.0010000  0  6G20G11G14G23G 1G25
  -6963704.70648  -5412143.94844  22996550.8564   22996546.2744
      2585.7194
  -8569030.64449  -6675202.91747  21650400.9744   21650396.3964
      -522.5944
  13978629.70748  10883907.77745  22845095.3494   22845091.7284
     -2864.4534
   -976673.65447   -746916.37243  24235983.4034   24235977.3964
      2649.4224
 -13193145.54049 -10265186.05247  21466209.8174   21466205.7984
      1238.8594
 -13503092.13449 -10517912.24447  20983379.7864   20983375.6384
       445.8594
 04  9  3 16 34 45.0010000  0  6G20G11G14G23G 1G25
  -7002469.97748  -5442350.65044  22989173.7314   22989170.0674
      2583.2974
  -8561116.67948  -6669036.20147  21651906.8104   21651902.3134
      -532.2664
  14021614.31548  10917402.25945  22853274.9194   22853271.6064
     -2866.5784
  -1016392.25547   -777865.90343  24228424.3804   24228419.9464
      2646.6414
 -13211685.68849 -10279632.91747  21462681.6694   21462678.0054
      1233.4534
 -13509706.57649 -10523066.35347  20982121.3564   20982117.2084
       436.3754
 04  9  3 16 35  0.0010000  0  6G20G11G14G23G 1G25
  -7041207.03848  -5472535.36745  22981802.4194   22981798.3564
      2581.6724
  -8553063.34449  -6662760.88447  21653439.2244   21653434.9934
      -541.3754
  14064624.89549  10950916.97545  22861459.8174   22861455.6614
     -2868.1414
  -1056074.94947   -808787.44843  24220873.2554   24220869.1034
      2644.4384
 -13230151.09449 -10294021.53547  21459167.4354   21459163.9504
      1228.6564
 -13516185.74449 -10528115.04247  20980888.3174   20980884.5564
       427.6094
 04  9  3 16 35 15.0010000  0  6G20G11G14G23G 1G25
  -7079919.22448  -5502700.69944  22974435.8334   22974431.2634
      2579.6724
  -8544874.32849  -6656379.84247  21654997.6384   21654993.0524
      -550.7504
  14107657.82548  10984449.10045  22869648.6924   22869644.6814
     -2869.9694
  -1095725.27647   -839683.79043  24213328.1064   24213323.5874
      2641.9224
 -13248545.38149 -10308354.75547  21455667.6774   21455663.4814
      1223.5634
 -13522533.23149 -10533061.13947  20979680.1534   20979676.4744
       418.4534
 04  9  3 16 35 30.0010000  0  6G20G11G14G23G 1G25
  -7118602.16648  -5532843.23445  22967074.5604   22967070.4354
      2577.7504
  -8536545.48249  -6649889.83347  21656582.4504   21656578.4854
      -560.0624
  14150717.09249  11018001.77045  22877842.5914   22877838.6304
     -2871.6094
  -1135338.92348   -870551.54943  24205790.2084   24205784.2124
      2639.5784
 -13266864.28949 -10322629.21647  21452181.6774   21452177.7744
      1218.5474
 -13528744.80849 -10537901.31247  20978498.4664   20978494.0954
       409.4384
 04  9  3 16 35 45.0010000  0  6G20G11G14G23G 1G25
  -7157256.80148  -5562963.74145  22959719.2554   22959714.5674
      2576.0784
  -8528077.86949  -6643291.70747  21658193.7714   21658189.4234
      -569.1094
  14193801.41548  11051573.95045  22886041.3414   22886036.9584
     -2873.0784
  -1174917.05148   -901391.63043  24198258.6224   24198253.1494
      2637.4064
 -13285108.97149 -10336845.85347  21448709.7244   21448705.9384
      1213.7814
 -13534821.52449 -10542636.41847  20977342.1224   20977337.9234
       400.6254
 04  9  3 16 36  0.0010000  0  6G20G11G14G23G 1G25
  -7195882.09948  -5593061.36344  22952368.5214   22952364.0754
      2574.3134
  -8519470.76049  -6636584.87147  21659831.4814   21659827.3604
      -578.2344
  14236911.57048  11085166.26444  22894245.1614   22894241.0954
     -2874.6414
  -1214458.59148   -932203.19643  24190734.1224   24190729.1064
      2635.0784
 -13303278.57849 -10351003.98147  21445252.1384   21445248.3064
      1209.0314
 -13540762.35349 -10547265.61647  20976211.6144   20976207.4894
       391.6884
 04  9  3 16 36 15.0010000  0  6G20G11G14G23G 1G25
  -7234478.47349  -5623136.44244  22945024.0604   22945019.1854
      2572.1094
  -8510724.79448  -6629769.84947  21661496.5284   21661492.0994
      -587.7034
  14280046.78448  11118778.09745  22902453.6534   22902449.4234
     -2876.5474
  -1253964.04748   -962986.64743  24183216.5134   24183210.6104
      2632.5164
 -13321373.70249 -10365104.07347  21441808.7944   21441804.8994
      1203.8754
 -13546568.02348 -10551789.51347  20975106.6224   20975102.2514
       382.5634
 04  9  3 16 36 30.0010000  0  6G20G11G14G23G 1G25
  -7273046.30349  -5653189.30344  22937685.2244   22937680.3884
      2570.5474
  -8501840.68749  -6622847.17647  21663186.7084   21663182.2474
      -596.6094
  14323206.28948  11152408.86245  22910666.2474   22910662.3374
     -2877.7974
  -1293434.04747   -993742.48343  24175705.6384   24175700.1064
      2630.4224
 -13339395.03549 -10379146.66847  21438379.1464   21438376.1924
      1199.2034
 -13552239.06149 -10556208.50047  20974027.3494   20974023.5244
       373.8284
 04  9  3 16 36 45.0010000  0  6G20G11G14G23G 1G25
  -7311586.63948  -5683220.72644  22930350.1384   22930346.6534
      2568.2504
  -8492819.64249  -6615817.80947  21664903.5604   21664898.9784
      -606.1254
  14366388.69948  11186057.46245  22918883.9034   22918879.5244
     -2879.7194
  -1332869.73848  -1024471.59443  24168200.7634   24168195.2674
      2627.7664
 -13357343.85449 -10393132.75947  21434963.9114   21434960.0874
      1194.0004
 -13557776.76149 -10560523.59247  20972973.7314   20972969.3724
       364.5944
 04  9  3 16 37  0.0010000  0  6G20G11G14G23G 1G25
  -7350095.86449  -5713227.89945  22923022.6614   22923018.3494
      2566.3284
  -8483658.46348  -6608679.23747  21666646.5364   21666641.8134
      -615.2344
  14409597.25448  11219726.45444  22927106.0284   22927101.8494
     -2881.2194
  -1372267.78847  -1055171.36143  24160704.0444   24160697.8104
      2625.4064
 -13375216.82949 -10407059.74847  21431562.8804   21431558.6534
      1189.1254
 -13563177.69748 -10564732.09947  20971946.0284   20971942.1034
       355.6414
 04  9  3 16 37 15.0010000  0  6G20G11G14G23G 1G25
  -7388576.73348  -5743212.98245  22915699.7784   22915695.0484
      2564.3594
  -8474360.07949  -6601433.75147  21668415.9894   21668411.2354
      -624.5004
  14452828.84748  11253413.38745  22935333.0214   22935328.7554
     -2882.8754
  -1411630.96646  -1085843.96143  24153213.7244   24153207.2634
      2623.0634
 -13393016.83349 -10420929.88147  21428175.6064   21428172.0284
      1184.1724
 -13568444.70749 -10568836.26547  20970943.8104   20970939.3884
       346.6564
 04  9  3 16 37 30.0010000  0  6G20G11G14G23G 1G25
  -7427029.74449  -5773176.34145  22908382.4584   22908378.7944
      2562.5474
  -8464925.14749  -6594081.84747  21670211.3964   21670206.8924
      -633.5474
  14496082.71248  11287117.69044  22943563.6144   22943559.4314
     -2884.4224
  -1450959.79647  -1116489.75543  24145729.5284   24145723.3604
      2620.7974
 -13410744.53249 -10434743.65247  21424802.0834   21424798.2674
      1179.3134
 -13573578.51149 -10572836.62047  20969966.8494   20969962.7594
       337.7034
 04  9  3 16 37 45.0010000  0  6G20G11G14G23G 1G25
  -7465454.46248  -5803117.68945  22901070.6924   22901066.2044
      2560.7034
  -8455353.53949  -6586623.46747  21672032.9194   21672028.4154
      -642.6874
  14539359.02248  11320839.46844  22951799.1384   22951794.8564
     -2885.8594
  -1490253.97546  -1147108.58743  24138251.7944   24138246.9464
      2618.4224
 -13428399.64949 -10448500.87947  21421442.1774   21421438.6384
      1174.5784
 -13578578.81149 -10576732.96147  20969015.3174   20969011.0014
       328.9064
 04  9  3 16 38  0.0010000  0  6G20G11G14G23G 1G25
  -7503848.81349  -5833035.35845  22893763.9664   22893760.0834
      2558.8754
  -8445643.49749  -6579057.21347  21673880.9584   21673876.2284
      -651.6874
  14582659.43048  11354580.03544  22960039.1224   22960034.6964
     -2887.2344
  -1529511.74748  -1177699.03543  24130781.7784   24130775.9314
      2616.2034
 -13445980.41649 -10462200.17847  21418096.6384   21418092.8604
      1169.8754
 -13583443.78549 -10580523.84448  20968089.6774   20968085.8214
       320.0944
 04  9  3 16 38 15.0010000  0  6G20G11G14G23G 1G25
  -7542215.50649  -5862931.47144  22886462.9354   22886459.0954
      2556.7344
  -8435797.68749  -6571385.16147  21675754.2714   21675750.2554
      -661.0474
  14625981.06448  11388337.12444  22968282.3414   22968278.2634
     -2888.9224
  -1568735.77248  -1208263.18643  24123317.4894   24123311.9464
      2613.7664
 -13463489.57549 -10475843.67947  21414764.7634   21414761.2284
      1164.7974
 -13588176.08549 -10584211.35047  20967188.9034   20967185.2124
       310.9384
 04  9  3 16 38 30.0010000  0  6G20G11G14G23G 1G25
  -7580552.68649  -5892804.58945  22879167.9424   22879164.0444
      2555.0634
  -8425814.69149  -6563606.21147  21677653.9814   21677649.2394
      -669.9534
  14669325.30948  11422111.84644  22976530.6774   22976526.3254
     -2890.1414
  -1607924.33548  -1238799.72643  24115859.6224   24115854.7284
      2611.6254
 -13480925.74749 -10489430.30147  21411447.0054   21411443.2674
      1160.2504
 -13592774.16749 -10587794.26447  20966314.3804   20966310.2904
       302.2504
 04  9  3 16 38 45.0010000  0  6G20G11G14G23G 1G25
  -7618866.89749  -5922659.80945  22871876.8104   22871873.2594
      2553.4224
  -8415701.44749  -6555725.76647  21679578.5284   21679573.8494
      -678.6724
  14712685.15148  11455898.72844  22984782.1304   22984777.6924
     -2891.2814
  -1647084.16347  -1269313.84743  24108408.1854   24108403.4974
      2609.6884
 -13498295.68649 -10502965.31447  21408141.5364   21408137.6424
      1155.7664
 -13597244.88549 -10591277.93747  20965463.1064   20965459.3254
       293.7974
 04  9  3 16 39  0.0010000  0  6G20G11G14G23G 1G25
  -7657149.23448  -5952490.19545  22864592.1224   22864587.8104
      2551.2664
  -8405449.25349  -6547737.06247  21681529.4744   21681524.8884
      -687.9374
  14756069.26148  11489704.49644  22993037.5054   22993033.8924
     -2892.8124
  -1686206.55846  -1299798.80743  24100962.7244   24100958.4814
      2607.0004
 -13515590.59549 -10516441.87147  21404850.3564   21404846.7674
      1150.7344
 -13601579.39149 -10594655.48047  20964638.4504   20964634.2984
       284.6414
 04  9  3 16 39 15.0010000  0  6G20G11G14G23G 1G25
  -7695402.80049  -5982298.17245  22857312.6064   22857308.5014
      2549.2664
  -8395061.50949  -6539642.73047  21683506.3414   21683501.3644
      -696.9844
  14799474.31548  11523526.60345  23001297.3884   23001293.5214
     -2894.3754
  -1725294.74447  -1330257.11043  24093524.2634   24093519.2164
      2604.7344
 -13532813.83049 -10529862.57147  21401572.9194   21401568.7744
      1145.8134
 -13605780.98049 -10597929.44047  20963838.5364   20963835.0994
       275.6564
 04  9  3 16 39 30.0010000  0  6G20G11G14G23G 1G25
  -7733625.84848  -6012082.36745  22850039.4274   22850034.9234
      2547.0314
  -8384536.54149  -6531441.46347  21685508.9974   21685503.8724
      -706.4064
  14842901.79148  11557366.16944  23009561.2394   23009557.4354
     -2896.1094
  -1764346.91947  -1360687.35343  24086093.5994   24086088.3994
      2602.1414
 -13549963.79349 -10543226.16547  21398309.3964   21398306.0054
      1140.7194
 -13609847.97649 -10601098.53147  20963064.5604   20963060.9464
       266.4844
 04  9  3 16 39 45.0010000  0  6G20G11G14G23G 1G25
  -7771818.73749  -6041843.03445  22842771.2164   22842767.0994
      2545.2034
  -8373875.15149  -6523133.89247  21687537.8494   21687533.5214
      -715.3124
  14886350.87348  11591222.57945  23017829.5834   23017825.6264
     -2897.2974
  -1803363.64148  -1391089.98143  24078668.9584   24078663.8924
      2599.9384
 -13567041.16149 -10556533.19747  21395059.4584   21395055.9934
      1136.1254
 -13613781.08049 -10604163.28247  20962316.8174   20962312.2744
       257.8134
 04  9  3 16 40  0.0010000  0  6G20G11G14G23G 1G25
  -7809983.69448  -6071581.96445  22835509.1304   22835504.7474
      2543.2504
  -8363079.83248  -6514721.97247  21689592.2784   21689587.5994
      -724.2974
  14929818.98848  11625093.82444  23026100.9974   23026097.0604
     -2898.5474
  -1842347.39647  -1421466.88244  24071250.5214   24071244.9384
      2597.6884
 -13584048.39449 -10569785.59547  21391823.3254   21391819.4584
      1131.3754
 -13617582.69049 -10607125.58847  20961593.2784   20961588.9814
       248.9224
 04  9  3 16 40 15.0010000  0  6G20G11G14G23G 1G25
  -7848116.40648  -6101295.74645  22828252.3964   22828248.1924
      2540.9064
  -8352146.58949  -6506202.56247  21691672.7314   21691668.4544
      -733.6564
  14973310.01148  11658982.90944  23034377.9194   23034373.3564
     -2900.2664
  -1881293.84248  -1451814.74844  24063839.7394   24063833.3804
      2595.0634
 -13600981.36449 -10582980.10347  21388601.3174   21388597.5714
      1126.2664
 -13621248.59849 -10609982.12947  20960895.5134   20960891.3804
       239.7034
 04  9  3 16 40 30.0010000  0  6G20G11G14G23G 1G25
  -7886219.12349  -6130986.18345  22821002.2944   22820997.5444
      2539.0634
  -8341077.92249  -6497577.64047  21693778.4584   21693774.4934
      -742.4694
  15016821.33148  11692887.80744  23042657.2944   23042653.2164
     -2901.5624
  -1920205.46048  -1482135.48343  24056434.2314   24056429.3564
      2592.9224
 -13617842.53449 -10596118.66547  21385392.5364   21385389.0324
      1121.6094
 -13624781.27049 -10612734.86347  20960223.5284   20960218.9114
       231.0004
 04  9  3 16 40 45.0010000  0  6G20G11G14G23G 1G25
  -7924290.93148  -6160652.51945  22813756.8724   22813752.9234
      2537.0634
  -8329873.20049  -6488846.69547  21695910.9744   21695906.7204
      -751.5314
  15060353.62348  11726809.05944  23050941.3724   23050937.2284
     -2902.8594
  -1959081.54947  -1512428.49044  24049037.1464   24049031.2474
      2590.6884
 -13634631.26849 -10609200.79347  21382197.6924   21382194.3604
      1116.8444
 -13628179.94849 -10615383.18247  20959576.6064   20959572.3994
       222.0314
 04  9  3 16 41  0.0010000  0  6G20G11G14G23G 1G25
  -7962331.04448  -6190294.16345  22806518.2084   22806514.0634
      2534.7974
  -8318531.86649  -6480009.30347  21698069.3104   21698065.1924
      -760.7504
  15103907.35748  11760747.01044  23059229.2474   23059225.0634
     -2904.4224
  -1997921.50847  -1542693.37744  24041645.5674   24041640.1854
      2587.9694
 -13651346.98849 -10622226.02347  21379016.8494   21379013.0794
      1111.8134
 -13631444.14049 -10617926.71048  20958955.6304   20958951.3174
       213.0164
 04  9  3 16 41 15.0010000  0  6G20G11G14G23G 1G25
  -8000338.45949  -6219910.32145  22799285.7314   22799281.3454
      2532.5784
  -8307053.26948  -6471064.95947  21700253.7474   21700248.9384
      -769.9694
  15147483.18948  11794702.17644  23067521.4974   23067517.4664
     -2905.9064
  -2036724.30048  -1572929.30444  24034262.0134   24034256.5874
      2585.4844
 -13667988.88249 -10635193.72747  21375850.0134   21375846.6654
      1106.8284
 -13634573.02948 -10620364.80547  20958360.0834   20958355.7244
       203.9534
 04  9  3 16 41 30.0010000  0  6G20G11G14G23G 1G25
  -8038313.56749  -6249501.30545  22792059.2634   22792054.7594
      2530.8444
  -8295438.06649  -6462014.15747  21702463.6924   21702459.5214
      -778.6874
  15191080.33548  11828673.96144  23075817.7714   23075813.8214
     -2906.9694
  -2075490.51948  -1603136.70844  24026885.2394   24026879.5014
      2583.5164
 -13684557.56449 -10648104.38147  21372696.8104   21372693.3494
      1102.3914
 -13637567.22149 -10622697.94147  20957790.6694   20957786.0244
       195.4384
 04  9  3 16 41 45.0010000  0  6G20G11G14G23G 1G25
  -8076260.51349  -6279070.35145  22784838.1924   22784834.2124
      2528.5164
  -8283690.67449  -6452860.35247  21704699.3024   21704695.1224
      -787.8594
  15234694.39248  11862658.92844  23084117.3644   23084113.1694
     -2908.4224
  -2114224.43548  -1633318.96944  24019514.0994   24019509.0134
      2581.0164
 -13701057.40749 -10660961.39247  21369556.9584   21369553.5214
      1097.3284
 -13640430.94649 -10624929.40747  20957245.2244   20957240.8294
       186.2344
 04  9  3 16 42  0.0010000  0  6G20G11G14G23G 1G25
  -8114174.13249  -6308613.41045  22777623.5604   22777619.8294
      2526.4224
  -8271806.16549  -6443599.71347  21706960.8724   21706956.3104
      -796.8124
  15278330.34248  11896660.96044  23092420.3644   23092416.5134
     -2909.8754
  -2152920.92848  -1663472.07244  24012150.5674   24012144.2984
      2578.5634
 -13717483.53349 -10673760.96547  21366431.5134   21366428.3604
      1092.6094
 -13643159.24949 -10627055.36747  20956726.3564   20956721.7284
       177.3284
 04  9  3 16 42 15.0010000  0  6G20G11G14G23G 1G25
  -8152053.83048  -6338130.05945  22770415.3174   22770411.3064
      2524.1254
  -8259784.22949  -6434231.98147  21709248.7004   21709244.7084
      -806.0784
  15321988.28348  11930680.09144  23100728.2084   23100725.0214
     -2911.2974
  -2191579.65847  -1693595.72544  24004793.6144   24004788.0674
      2576.0004
 -13733835.57449 -10686502.81147  21363319.7084   21363315.8804
      1087.6414
 -13645751.88549 -10629075.60047  20956232.9194   20956228.1424
       168.3594
 04  9  3 16 42 30.0010000  0  6G20G11G14G23G 1G25
  -8189901.36548  -6367621.63645  22763212.7634   22763208.7284
      2521.9534
  -8247626.99549  -6424758.82147  21711562.3414   21711557.9544
      -815.0474
  15365666.05548  11964714.70244  23109040.0604   23109036.4384
     -2912.5624
  -2230202.57547  -1723691.48544  23997443.7394   23997438.7474
      2573.5634
 -13750115.49749 -10699188.46147  21360221.6534   21360218.1614
      1082.7814
 -13648210.83749 -10630991.66548  20955764.9664   20955760.4114
       159.3444
 04  9  3 16 42 45.0010000  0  6G20G11G14G23G 1G25
  -8227713.50549  -6397085.64945  22756017.5054   22756013.4894
      2519.6254
  -8235331.45049  -6415177.88747  21713902.0994   21713897.6494
      -824.3594
  15409366.79947  11998767.19944  23117355.6774   23117352.2204
     -2914.1094
  -2268786.41048  -1753756.78144  23990101.4814   23990096.2164
      2570.8444
 -13766320.16949 -10711815.47847  21357137.8024   21357134.3454
      1077.7814
 -13650532.83949 -10632801.02347  20955323.1224   20955319.1224
       150.2034
 04  9  3 16 43  0.0010000  0  6G20G11G14G23G 1G25
  -8265492.19949  -6426523.57245  22748828.4584   22748824.4664
      2517.6094
  -8222899.84649  -6405490.94447  21716267.8964   21716263.3804
      -833.2194
  15453088.11847  12032835.74744  23125676.1304   23125671.9384
     -2915.3284
  -2307333.47348  -1783793.42943  23982767.0754   23982760.8764
      2568.6724
 -13782451.90649 -10724385.65147  21354068.3564   21354064.7204
      1073.1414
 -13652720.10549 -10634505.37948  20954906.6924   20954902.7354
       141.4224
 04  9  3 16 43 15.0010000  0  6G20G11G14G23G 1G25
  -8303238.14649  -6455936.00145  22741645.5214   22741641.7634
      2515.2504
  -8210333.32249  -6395698.85347  21718658.9974   21718654.3564
      -842.3284
  15496828.80947  12066919.39844  23133999.7314   23133995.9194
     -2916.7974
  -2345844.55748  -1813802.04043  23975437.7714   23975432.4624
      2566.1094
 -13798511.68849 -10736899.76647  21351011.8964   21351008.9744
      1068.1724
 -13654773.68149 -10636105.57347  20954515.7084   20954511.8604
       132.3594
 04  9  3 16 43 30.0010000  0  6G20G11G14G23G 1G25
  -8340954.86349  -6485325.63045  22734468.3024   22734464.0094
      2513.4224
  -8197635.58449  -6385804.52547  21721075.2864   21721070.8994
      -850.9374
  15540585.05547  12101015.14344  23142326.3254   23142322.1694
     -2917.6094
  -2384323.35247  -1843785.49043  23968115.3724   23968110.3024
      2564.2344
 -13814503.24849 -10749360.72247  21347969.0364   21347965.3724
      1063.8594
 -13656697.33649 -10637604.52447  20954149.9354   20954145.5564
       123.9224
 04  9  3 16 43 45.0010000  0  6G20G11G14G23G 1G25
  -8378638.22049  -6514689.28245  22727297.2164   22727293.2784
      2511.0164
  -8184802.70449  -6375804.88447  21723517.3254   21723512.5014
      -860.0944
  15584360.73947  12135126.04344  23150656.9424   23150652.5134
     -2919.0944
  -2422765.72447  -1873740.55943  23960800.0754   23960795.0364
      2561.5164
 -13830422.54249 -10761765.35847  21344939.7714   21344935.9114
      1058.8134
 -13658487.07149 -10638999.12247  20953809.4744   20953805.4584
       114.7974
 04  9  3 16 44  0.0010000  0  6G20G11G14G23G 1G25
  -8416288.27049  -6544026.97845  22720132.3964   22720128.4704
      2509.1254
  -8171835.18748  -6365700.33947  21725985.0524   21725980.5244
      -868.7344
  15628155.55047  12169251.84744  23158990.3724   23158986.4974
     -2920.0164
  -2461172.02148  -1903667.48643  23953492.0284   23953487.0714
      2559.4694
 -13846269.91149 -10774113.94847  21341923.9034   21341920.4744
      1054.2664
 -13660143.11349 -10640289.54347  20953493.8494   20953490.4814
       106.1254
 04  9  3 16 44 15.0010000  0  6G20G11G14G23G 1G25
  -8453905.98349  -6573339.46445  22712974.3724   22712970.5564
      2506.5314
  -8158734.16048  -6355491.75847  21728478.1534   21728473.0954
      -878.1414
  15671968.17247  12203391.53744  23167327.4664   23167323.5674
     -2921.6724
  -2499543.26747  -1933567.14143  23946188.7004   23946185.1304
      2556.5944
 -13862046.51149 -10786407.39847  21338921.7084   21338918.3064
      1049.1094
 -13661666.47048 -10641476.58147  20953204.4814   20953200.3644
        96.8284
 04  9  3 16 44 30.0010000  0  6G20G11G14G23G 1G25
  -8491488.39949  -6602624.45245  22705822.5364   22705818.5054
      2504.5474
  -8145497.09848  -6345177.17347  21730997.0444   21730992.2204
      -886.6724
  15715801.08447  12237547.02344  23175668.8024   23175664.5714
     -2922.6254
  -2537876.71747  -1963437.32643  23938894.8964   23938890.7394
      2554.5314
 -13877749.75748 -10798643.68347  21335933.3964   21335929.9624
      1044.7814
 -13663054.59748 -10642558.23847  20952940.0994   20952935.7714
        88.3284
 04  9  3 16 44 45.0010000  0  6G20G11G14G23G 1G25
  -8529038.12949  -6631883.97445  22698676.9744   22698673.2164
      2502.5944
  -8132126.92248  -6334758.86647  21733541.3174   21733536.9234
      -895.4374
  15759651.41147  12271716.09144  23184013.3414   23184008.8104
     -2923.5784
  -2576174.96847  -1993280.10643  23931607.0914   23931601.7634
      2552.3594
 -13893382.40748 -10810824.95947  21332958.7004   21332955.2674
      1040.2034
 -13664310.41549 -10643536.79847  20952701.1464   20952696.9814
        79.6884
 04  9  3 16 45  0.0010000  0  6G20G11G14G23G 1G25
  -8566554.49649  -6661117.50345  22691537.9664   22691534.0794
      2500.1094
  -8118623.42948  -6324236.66847  21736111.0284   21736106.4814
      -904.5474
  15803519.48347  12305898.97944  23192361.0914   23192357.0634
     -2924.9694
  -2614437.65048  -2023095.15243  23924325.7084   23924320.9114
      2549.7344
 -13908944.16048 -10822950.99247  21329997.5524   21329994.0484
      1035.2344
 -13665433.41048 -10644411.86447  20952487.1464   20952483.3494
        70.5784
 04  9  3 16 45 15.0010000  0  6G20G11G14G23G 1G25
  -8604034.64749  -6690322.80945  22684405.6614   22684401.8104
      2497.2194
  -8104983.98048  -6313608.55047  21738706.1224   21738701.9034
      -914.0944
  15847407.96047  12340097.76644  23200713.0994   23200709.0714
     -2926.7814
  -2652662.01648  -2052880.33843  23917052.5054   23917047.5484
      2546.6884
 -13924432.24248 -10835019.63547  21327049.8724   21327047.0364
      1029.8134
 -13666420.93048 -10645181.36347  20952299.2474   20952295.4274
        61.0474
 04  9  3 16 45 30.0010000  0  6G20G11G14G23G 1G25
  -8641476.42849  -6719498.21145  22677280.6774   22677277.0054
      2495.1254
  -8091206.47848  -6302872.83747  21741328.0834   21741323.7824
      -922.8284
  15891318.59147  12374313.81444  23209069.0674   23209064.9194
     -2927.9064
  -2690846.02248  -2082634.07643  23909785.9974   23909781.6264
      2544.4844
 -13939844.74148 -10847029.36847  21324116.8804   21324113.5754
      1025.2504
 -13667271.10748 -10645843.84247  20952137.5604   20952133.4814
        52.3594
 04  9  3 16 45 45.0010000  0  6G20G11G14G23G 1G25
  -8678887.16449  -6748649.42245  22670161.8564   22670157.6614
      2493.0314
  -8077298.72849  -6292035.64747  21743974.8024   21743970.4114
      -931.5784
  15935243.47547  12408540.98544  23217427.6304   23217423.7634
     -2928.7814
  -2728997.30548  -2112362.36143  23902525.4424   23902520.8334
      2542.2974
 -13955189.32848 -10858986.19147  21321197.0754   21321194.1614
      1020.6564
 -13667991.60748 -10646405.28047  20952000.5754   20951996.3844
        43.6414
 04  9  3 16 46  0.0010000  0  6G20G11G14G23G 1G25
  -8716263.06049  -6777773.48645  22663049.6924   22663045.2904
      2490.3594
  -8063257.08448  -6281094.11047  21746646.8024   21746642.4384
      -940.7504
  15979186.44347  12442782.23744  23225789.7864   23225785.6884
     -2930.3284
  -2767112.02447  -2142062.10743  23895272.8644   23895267.6144
      2539.6094
 -13970462.29849 -10870887.19747  21318290.7394   21318287.2284
      1015.6254
 -13668578.51849 -10646862.60947  20951888.8564   20951885.1304
        34.4694
 04  9  3 16 46 15.0010000  0  6G20G11G14G23G 1G25
  -8753599.42649  -6806866.75245  22655944.3494   22655940.1694
      2487.6414
  -8049077.45148  -6270045.06147  21749344.8884   21749340.7784
      -950.1564
  16023151.60947  12477040.79144  23234155.8564   23234152.1344
     -2931.9064
  -2805185.76047  -2171729.92743  23888028.1534   23888022.0094
      2536.6414
 -13985659.30048 -10882729.01547  21315399.1924   21315395.7044
      1010.4384
 -13669027.43248 -10647212.40847  20951803.4584   20951799.7944
        25.1414
 04  9  3 16 46 30.0010000  0  6G20G11G14G23G 1G25
  -8790898.74348  -6835931.15645  22648846.5914   22648842.2594
      2485.4064
  -8034762.60848  -6258890.64947  21752068.7244   21752064.0834
      -958.7814
  16067136.10047  12511314.40444  23242525.3564   23242521.8564
     -2932.8444
  -2843221.29046  -2201367.97343  23880790.1854   23880783.8134
      2534.4064
 -14000783.16948 -10894513.84447  21312521.0524   21312517.6614
      1005.8754
 -13669341.23849 -10647456.93047  20951743.5674   20951739.8104
        16.5164
 04  9  3 16 46 45.0010000  0  6G20G11G14G23G 1G25
  -8828162.84048  -6864968.09645  22641755.9504   22641751.6384
      2483.5474
  -8020314.64048  -6247632.50147  21754818.7634   21754814.1494
      -967.2344
  16111137.89147  12545601.47844  23250899.3414   23250895.3334
     -2933.5164
  -2881220.29946  -2230977.56343  23873559.0994   23873553.5244
      2532.5634
 -14015835.78348 -10906243.14347  21309656.6464   21309653.0674
      1001.5944
 -13669521.88149 -10647597.70047  20951709.0994   20951705.1464
         8.0164
 04  9  3 16 47  0.0010000  0  6G20G11G14G23G 1G25
  -8865394.24848  -6893979.58745  22634670.8644   22634666.5174
      2481.0314
  -8005736.36848  -6236272.81847  21757592.6614   21757588.1654
      -976.1414
  16155154.08547  12579899.80644  23259275.1384   23259271.6464
     -2934.8284
  -2919185.57746  -2260560.91044  23866334.5524   23866328.7084
      2530.0784
 -14030819.99548 -10917919.16247  21306805.2634   21306802.3884
       996.7344
 -13669572.27648 -10647636.97847  20951699.4974   20951695.4314
        -0.9224
 04  9  3 16 47 15.0010000  0  6G20G11G14G23G 1G25
  -8902590.29349  -6922963.50445  22627592.7864   22627588.5324
      2478.6724
  -7991025.31948  -6224809.66247  21760391.8494   21760387.8134
      -985.1094
  16199187.09547  12614211.22144  23267654.0994   23267650.5834
     -2936.1094
  -2957114.66447  -2290115.98543  23859116.3564   23859111.3844
      2527.5314
 -14045733.29149 -10929539.91247  21303966.7864   21303963.6184
       991.9224
 -13669489.83149 -10647572.72048  20951715.5674   20951711.3884
        -9.9224
 04  9  3 16 47 30.0010000  0  6G20G11G14G23G 1G25
  -8939745.89849  -6951915.92245  22620522.4034   22620518.3764
      2475.8284
  -7976177.07448  -6213239.62947  21763217.7784   21763213.2314
      -994.3594
  16243241.54947  12648539.31744  23276036.7864   23276034.0794
     -2937.5474
  -2995002.62148  -2319639.07943  23851907.0134   23851901.2284
      2524.5944
 -14060570.97349 -10941101.74347  21301143.6614   21301140.2674
       986.8444
 -13669269.82949 -10647401.30648  20951757.4424   20951753.5444
       -19.0624
 04  9  3 16 47 45.0010000  0  6G20G11G14G23G 1G25
  -8976864.52849  -6980839.51845  22613458.6924   22613454.8374
      2473.5004
  -7961195.26548  -6201565.49747  21766068.3104   21766064.0524
     -1003.0624
  16287313.73047  12682881.28344  23284424.4974   23284420.4074
     -2938.5474
  -3032853.15647  -2349132.97443  23844703.8964   23844698.8174
      2522.2504
 -14075336.66549 -10952607.47547  21298333.8024   21298330.9384
       982.1254
 -13668915.88149 -10647125.50747  20951824.3494   20951820.4504
       -28.0164
 04  9  3 16 48  0.0010000  0  6G20G11G14G23G 1G25
  -9013944.95748  -7009733.34345  22606402.4894   22606398.3064
      2470.8754
  -7946078.97048  -6189786.58047  21768945.0284   21768940.7744
     -1012.1254
  16331404.61248  12717237.78844  23292814.6534   23292811.1184
     -2939.9374
  -3070664.98146  -2378596.71944  23837507.8804   23837502.9354
      2519.4224
 -14090029.36149 -10964056.32047  21295537.9424   21295534.5094
       977.1254
 -13668427.11749 -10646744.64747  20951917.7004   20951913.9314
       -37.0164
 04  9  3 16 48 15.0010000  0  6G20G11G14G23G 1G25
  -9050985.82049  -7038596.35345  22599353.7164   22599348.7784
      2467.9694
  -7930827.19949  -6177902.09047  21771847.7394   21771843.2354
     -1021.4064
  16375515.14348  12751609.59844  23301208.8174   23301205.3994
     -2941.4224
  -3108436.98547  -2408029.40344  23830321.1694   23830316.2004
      2516.7664
 -14104647.98149 -10975447.45347  21292756.0674   21292753.0324
       972.0164
 -13667802.35049 -10646257.81647  20952036.3414   20952032.2944
       -46.1254
 04  9  3 16 48 30.0010000  0  6G20G11G14G23G 1G25
  -9087986.71349  -7067428.20345  22592312.7394   22592308.4854
      2465.3914
  -7915439.90048  -6165911.99547  21774775.1924   21774770.7634
     -1030.3594
  16419645.39548  12785996.78044  23309606.2314   23309602.6064
     -2942.6874
  -3146168.90948  -2437430.89144  23823140.4664   23823135.3334
      2514.0944
 -14119192.32949 -10986780.70947  21289988.8644   21289985.3924
       967.1414
 -13667041.50148 -10645664.95347  20952181.3174   20952176.9934
       -55.2504
 04  9  3 16 48 45.0010000  0  6G20G11G14G23G 1G25
  -9124946.80549  -7096228.27245  22585279.6924   22585275.4314
      2462.7504
  -7899916.51949  -6153815.87447  21777729.5444   21777725.0834
     -1039.3284
  16463795.77748  12820399.65044  23318007.6694   23318004.0524
     -2943.8914
  -3183860.15248  -2466800.69044  23815968.1144   23815963.0524
      2511.5164
 -14133661.89449 -10998055.68547  21287235.1694   21287231.5324
       962.2194
 -13666143.94348 -10644965.55247  20952351.9034   20952347.7164
       -64.2974
 04  9  3 16 49  0.0010000  0  6G20G11G14G23G 1G25
  -9161868.54449  -7124998.44445  22578253.7944   22578249.2084
      2460.4064
  -7884259.76449  -6141615.80847  21780709.0834   21780704.7434
     -1048.0314
  16507963.59748  12854816.12444  23326412.3564   23326409.0014
     -2944.8594
  -3221513.19348  -2496140.69144  23808802.7864   23808798.0444
      2509.1724
 -14148059.33448 -11009274.46847  21284495.2864   21284491.8564
       957.6254
 -13665112.34348 -10644161.72047  20952548.7084   20952544.4624
       -73.0314
 04  9  3 16 49 15.0010000  0  6G20G11G14G23G 1G25
  -9198751.41049  -7153738.33645  22571235.0364   22571230.4424
      2457.3284
  -7868469.56348  -6129311.77047  21783713.8564   21783709.3684
     -1057.3444
  16552149.03148  12889246.30644  23334820.8644   23334817.0174
     -2946.4534
  -3259127.70148  -2525450.70144  23801645.3174   23801639.6034
      2506.1414
 -14162384.39648 -11020436.85247  21281769.2634   21281766.2474
       952.4064
 -13663946.43648 -10643253.22847  20952770.3334   20952766.1304
       -82.4064
 04  9  3 16 49 30.0010000  0  6G20G11G14G23G 1G25
  -9235596.52249  -7182448.80745  22564223.5674   22564219.5324
      2454.8914
  -7852547.43749  -6116904.92947  21786743.3804   21786739.0174
     -1065.9844
  16596350.54348  12923689.01444  23343232.1144   23343228.1614
     -2947.3914
  -3296704.99248  -2554731.68744  23794494.8254   23794488.6814
      2503.7664
 -14176638.54549 -11031543.97847  21279056.9504   21279053.4814
       947.7664
 -13662647.52749 -10642241.08648  20953017.5994   20953013.8724
       -91.1414
 04  9  3 16 49 45.0010000  0  6G20G11G14G23G 1G25
  -9272402.54849  -7211128.81845  22557219.6144   22557215.0134
      2452.4534
  -7836492.31549  -6104394.45447  21789798.8494   21789794.6344
     -1074.7344
  16640569.19848  12958145.09144  23351646.6464   23351642.6884
     -2948.4374
  -3334243.95048  -2583982.81244  23787350.6614   23787344.9934
      2501.3444
 -14190820.61249 -11042594.94147  21276358.1694   21276354.4234
       943.0634
 -13661214.54248 -10641124.47347  20953290.5214   20953286.4464
      -100.0004
 04  9  3 16 50  0.0010000  0  6G20G11G14G23G 1G25
  -9309168.05448  -7239777.25145  22550223.1694   22550218.6654
      2449.6094
  -7820303.19349  -6091779.57147  21792879.5054   21792875.1924
     -1083.7344
  16684806.03448  12992615.31344  23360064.9974   23360061.1574
     -2949.7344
  -3371743.28347  -2613203.04644  23780215.5134   23780210.0634
      2498.6414
 -14204929.46449 -11053588.85147  21273673.3644   21273669.2864
       938.1254
 -13659646.47549 -10639902.60847  20953588.6854   20953584.5134
      -109.0784
 04  9  3 16 50 15.0010000  0  6G20G11G14G23G 1G25
  -9345893.57949  -7268394.53845  22543234.3104   22543230.2284
      2447.2034
  -7803980.83549  -6079060.85547  21795985.7164   21795980.9974
     -1092.3594
  16729060.32048  13027099.15844  23368485.9584   23368481.9544
     -2950.7194
  -3409203.72247  -2642392.99644  23773086.8644   23773081.2904
      2496.2194
 -14218965.82148 -11064526.27247  21271002.3024   21270998.3684
       933.5314
 -13657943.97148 -10638575.97447  20953912.5214   20953908.9354
      -117.8594
 04  9  3 16 50 30.0010000  0  6G20G11G14G23G 1G25
  -9382580.30549  -7296981.59145  22536253.1534   22536249.0874
      2444.3914
  -7787526.83248  -6066239.56147  21799116.9814   21799112.2784
     -1101.3914
  16773330.47848  13061595.36544  23376910.6464   23376906.7784
     -2952.0314
  -3446626.53647  -2671553.62744  23765965.2394   23765960.0874
      2493.3754
 -14232931.21248 -11075408.39347  21268344.6224   21268340.9424
       928.5634
 -13656108.65048 -10637145.86347  20954262.0754   20954257.5834
      -126.9224
 04  9  3 16 50 45.0010000  0  6G20G11G14G23G 1G25
  -9419227.85048  -7325538.11845  22529278.9424   22529275.1854
      2441.6884
  -7770941.18348  -6053315.69247  21802272.8414   21802268.6264
     -1110.2504
  16817616.51148  13096103.93644  23385337.8494   23385334.0914
     -2953.1094
  -3484011.65646  -2700684.87044  23758851.3104   23758845.9814
      2490.8284
 -14246825.40348 -11086235.03747  21265700.7634   21265697.1734
       923.7664
 -13654140.14849 -10635611.96947  20954636.6774   20954632.0364
      -135.8594
 04  9  3 16 51  0.0010000  0  6G20G11G14G23G 1G25
  -9455834.72049  -7354062.95446  22522313.2554   22522309.0324
      2439.1724
  -7754222.65248  -6040288.27847  21805454.3174   21805449.6534
     -1118.9224
  16861919.60548  13130625.80744  23393768.2554   23393764.7284
     -2953.9534
  -3521357.52248  -2729785.52744  23751744.5364   23751739.2744
      2488.5164
 -14260647.12949 -11097005.20247  21263070.2944   21263067.5404
       919.1254
 -13652037.33549 -10633973.41747  20955036.5914   20955032.2514
      -144.5314
 04  9  3 16 51 15.0010000  0  6G20G11G14G23G 1G25
  -9492399.38049  -7382554.88746  22515355.7864   22515351.0914
      2436.3754
  -7737369.89148  -6027156.26447  21808661.2474   21808657.0604
     -1127.7664
  16906241.11048  13165162.01444  23402202.9034   23402199.4114
     -2955.2194
  -3558662.86048  -2758854.59243  23744645.5284   23744640.0524
      2485.8594
 -14274395.15049 -11107717.94447  21260454.8644   21260451.2904
       914.2664
 -13649798.92049 -10632229.20047  20955462.4894   20955458.3134
      -153.6254
 04  9  3 16 51 30.0010000  0  6G20G11G14G23G 1G25
  -9528924.96349  -7411016.36345  22508404.7394   22508400.3604
      2433.7194
  -7720386.72148  -6013922.64147  21811892.9274   21811889.0284
     -1136.6564
  16950577.34248  13199709.71444  23410639.5054   23410636.0754
     -2956.2974
  -3595931.00348  -2787894.69744  23737553.7474   23737547.8174
      2483.2504
 -14288072.96148 -11118375.97247  21257851.7084   21257848.2554
       909.5004
 -13647428.45849 -10630382.08547  20955913.4504   20955909.5524
      -162.4844
 04  9  3 16 51 45.0010000  0  6G20G11G14G23G 1G25
  -9565410.52049  -7439446.68045  22501461.3254   22501457.6064
      2430.6564
  -7703272.55248  -6000586.93747  21815149.3644   21815145.0994
     -1145.7194
  16994928.97348  13234269.40944  23419079.1614   23419075.5674
     -2957.6874
  -3633161.10048  -2816905.14043  23730468.9194   23730463.1064
      2480.2814
 -14301679.70449 -11128978.63947  21255262.1694   21255258.3174
       904.3754
 -13644925.11849 -10628431.43947  20956389.8884   20956386.2904
      -171.7034
 04  9  3 16 52  0.0010000  0  6G20G11G14G23G 1G25
  -9601853.86248  -7467844.06745  22494527.3174   22494523.2434
      2428.0784
  -7686025.43348  -5987147.63847  21818431.6144   21818427.2004
     -1154.3444
  17039297.97048  13268842.62144  23427522.3024   23427518.2284
     -2958.5474
  -3670351.19447  -2845884.41344  23723391.8104   23723386.4234
      2477.9224
 -14315213.40549 -11139524.36447  21252686.9894   21252683.5874
       899.7504
 -13642286.96148 -10626375.73547  20956891.9354   20956887.4974
      -180.4064
 04  9  3 16 52 15.0010000  0  6G20G11G14G23G 1G25
  -9638256.25148  -7496209.55245  22487599.3884   22487595.8294
      2425.5004
  -7668647.06249  -5973606.06747  21821738.8724   21821734.4744
     -1162.9064
  17083682.75148  13303428.13944  23435968.3104   23435964.6614
     -2959.4534
  -3707502.76946  -2874833.68244  23716322.1384   23716316.7164
      2475.5164
 -14328675.72549 -11150014.48347  21250125.3804   21250122.0174
       895.1564
 -13639515.67249 -10624216.29347  20957419.3884   20957415.8414
      -189.1414
 04  9  3 16 52 30.0010000  0  6G20G11G14G23G 1G25
  -9674619.36849  -7524544.44246  22480679.8494   22480676.2944
      2422.8134
  -7651139.44348  -5959963.77347  21825070.2714   21825066.0284
     -1171.6414
  17128081.13948  13338024.25344  23444417.9894   23444413.5364
     -2960.4374
  -3744617.54947  -2903754.27344  23709259.3494   23709254.2824
      2473.0944
 -14342068.58649 -11160450.47947  21247576.5444   21247572.5834
       890.5004
 -13636613.19948 -10621954.62848  20957971.8494   20957967.5874
      -197.9534
 04  9  3 16 52 45.0010000  0  6G20G11G14G23G 1G25
  -9710940.49549  -7552846.62545  22473768.7164   22473764.6774
      2420.0164
  -7633500.31749  -5946219.01447  21828426.7164   21828422.1224
     -1180.2814
  17172495.48548  13372632.81444  23452868.9354   23452865.4704
     -2961.4534
  -3781693.05348  -2932644.27343  23702204.5604   23702198.6654
      2470.4064
 -14355389.60349 -11170830.48347  21245041.6304   21245038.3884
       885.7194
 -13633577.05949 -10619588.82048  20958549.5134   20958545.3604
      -206.8284
 04  9  3 16 53  0.0010000  0  6G20G11G14G23G 1G25
  -9747219.75349  -7581116.17645  22466864.6694   22466860.4854
      2417.0314
  -7615730.22848  -5932372.19647  21831808.4744   21831803.6104
     -1189.1254
  17216925.41448  13407253.52044  23461323.4354   23461320.0564
     -2962.7034
  -3818729.67948  -2961503.96644  23695156.0754   23695150.7204
      2467.6884
 -14368639.08049 -11181154.74847  21242520.5524   21242516.9194
       880.7814
 -13630407.63349 -10617119.12947  20959152.8644   20959148.5244
      -215.8914
 04  9  3 16 53 15.0010000  0  6G20G11G14G23G 1G25
  -9783454.46749  -7609351.00146  22459969.3564   22459965.2244
      2414.4384
  -7597826.46048  -5918421.23247  21835215.9194   21835210.8644
     -1197.7814
  17261373.31848  13441888.21144  23469781.9274   23469778.5094
     -2963.5944
  -3855724.74648  -2990331.25344  23688115.7784   23688110.5444
      2465.1564
 -14381814.54449 -11191421.35147  21240013.3494   21240009.7944
       876.1414
 -13627102.41949 -10614543.64947  20959781.6224   20959777.1734
      -224.6094
 04  9  3 16 53 30.0010000  0  6G20G11G14G23G 1G25
  -9819646.43049  -7637552.52346  22453082.3884   22453078.2714
      2411.7344
  -7579791.54549  -5904368.05347  21838647.5834   21838642.7634
     -1206.3284
  17305837.03648  13476535.25043  23478243.1854   23478239.9814
     -2964.3594
  -3892680.36348  -3019127.82244  23681084.0524   23681078.5994
      2462.7814
 -14394918.25149 -11201632.02247  21237519.6694   21237515.8924
       871.5784
 -13623663.75549 -10611864.17047  20960435.8644   20960432.0444
      -233.3124
